Wetterdaten: Freitag, 18.04.2025
Datum Zeit Temp. I. Temp. A. Feuchte I. Feuchte A. Luftdruck Regen Wind Richtung Richtung Sonnenschein Solar Taupunkt Windchill Windböen
18.04.2025 00:00 21,9 °C 10,9 °C 54 % 90 % 1008,7 hPa 0,0 l/m² 16,5 km/h (3 Bft) W 274 ° 0 min 0 W/m² 9,3 °C 5,6 °C 22,5 km/h (4 Bft)
18.04.2025 00:02 21,9 °C 10,8 °C 54 % 90 % 1008,6 hPa 0,0 l/m² 15,9 km/h (3 Bft) W 267 ° 0 min 0 W/m² 9,2 °C 5,7 °C 20,9 km/h (4 Bft)
18.04.2025 00:03 21,9 °C 10,9 °C 54 % 90 % 1008,6 hPa 0,0 l/m² 8,9 km/h (2 Bft) W-SW 255 ° 0 min 0 W/m² 9,3 °C 9,2 °C 12,9 km/h (3 Bft)
18.04.2025 00:05 21,9 °C 10,8 °C 54 % 90 % 1008,6 hPa 0,0 l/m² 8,8 km/h (2 Bft) W-SW 255 ° 0 min 0 W/m² 9,2 °C 9,2 °C 14,5 km/h (3 Bft)
18.04.2025 00:07 21,8 °C 10,8 °C 54 % 90 % 1008,6 hPa 0,0 l/m² 12,4 km/h (2 Bft) W 272 ° 0 min 0 W/m² 9,2 °C 7,2 °C 20,9 km/h (4 Bft)
18.04.2025 00:09 21,8 °C 10,8 °C 54 % 90 % 1008,6 hPa 0,0 l/m² 14,4 km/h (3 Bft) W-SW 257 ° 0 min 0 W/m² 9,2 °C 6,4 °C 20,9 km/h (4 Bft)
18.04.2025 00:11 21,8 °C 10,8 °C 54 % 90 % 1008,7 hPa 0,0 l/m² 16,4 km/h (3 Bft) W 271 ° 0 min 0 W/m² 9,2 °C 5,6 °C 22,5 km/h (4 Bft)
18.04.2025 00:12 21,8 °C 10,8 °C 54 % 90 % 1008,6 hPa 0,0 l/m² 17,5 km/h (3 Bft) W-SW 246 ° 0 min 0 W/m² 9,2 °C 5,2 °C 22,5 km/h (4 Bft)
18.04.2025 00:13 21,8 °C 10,8 °C 54 % 90 % 1008,6 hPa 0,0 l/m² 13,3 km/h (3 Bft) W-NW 289 ° 0 min 0 W/m² 9,2 °C 6,8 °C 17,7 km/h (3 Bft)
18.04.2025 00:14 21,8 °C 10,7 °C 54 % 90 % 1008,7 hPa 0,0 l/m² 15,5 km/h (3 Bft) W 279 ° 0 min 0 W/m² 9,1 °C 5,8 °C 20,9 km/h (4 Bft)
18.04.2025 00:16 21,9 °C 10,7 °C 54 % 90 % 1008,7 hPa 0,0 l/m² 13,6 km/h (3 Bft) W 269 ° 0 min 0 W/m² 9,1 °C 6,6 °C 17,7 km/h (3 Bft)
18.04.2025 00:18 21,8 °C 10,7 °C 54 % 90 % 1008,7 hPa 0,0 l/m² 10,6 km/h (2 Bft) W 278 ° 0 min 0 W/m² 9,1 °C 8,0 °C 17,7 km/h (3 Bft)
18.04.2025 00:20 21,9 °C 10,7 °C 54 % 90 % 1008,7 hPa 0,0 l/m² 14,1 km/h (3 Bft) W 278 ° 0 min 0 W/m² 9,1 °C 6,4 °C 19,3 km/h (3 Bft)
18.04.2025 00:21 21,8 °C 10,7 °C 54 % 90 % 1008,7 hPa 0,0 l/m² 14,8 km/h (3 Bft) W 272 ° 0 min 0 W/m² 9,1 °C 6,1 °C 22,5 km/h (4 Bft)
18.04.2025 00:23 21,8 °C 10,7 °C 54 % 90 % 1008,8 hPa 0,0 l/m² 9,3 km/h (2 Bft) W-SW 248 ° 0 min 0 W/m² 9,1 °C 8,8 °C 14,5 km/h (3 Bft)
18.04.2025 00:24 21,8 °C 10,6 °C 54 % 90 % 1008,7 hPa 0,0 l/m² 9,7 km/h (2 Bft) W 271 ° 0 min 0 W/m² 9,0 °C 8,4 °C 17,7 km/h (3 Bft)
18.04.2025 00:26 21,8 °C 10,6 °C 54 % 90 % 1008,6 hPa 0,0 l/m² 11,2 km/h (2 Bft) W 271 ° 0 min 0 W/m² 9,0 °C 7,6 °C 17,7 km/h (3 Bft)
18.04.2025 00:28 21,9 °C 10,6 °C 54 % 90 % 1008,6 hPa 0,0 l/m² 15,6 km/h (3 Bft) W 259 ° 0 min 0 W/m² 9,0 °C 5,6 °C 20,9 km/h (4 Bft)
18.04.2025 00:30 21,8 °C 10,6 °C 54 % 90 % 1008,6 hPa 0,0 l/m² 13,4 km/h (3 Bft) W-NW 288 ° 0 min 0 W/m² 9,0 °C 6,5 °C 19,3 km/h (3 Bft)
18.04.2025 00:31 21,8 °C 10,6 °C 54 % 90 % 1008,5 hPa 0,0 l/m² 10,7 km/h (2 Bft) W-SW 252 ° 0 min 0 W/m² 9,0 °C 7,9 °C 16,1 km/h (3 Bft)
18.04.2025 00:33 21,8 °C 10,6 °C 54 % 90 % 1008,5 hPa 0,0 l/m² 15,7 km/h (3 Bft) W 261 ° 0 min 0 W/m² 9,0 °C 5,6 °C 22,5 km/h (4 Bft)
18.04.2025 00:34 21,8 °C 10,5 °C 54 % 90 % 1008,5 hPa 0,0 l/m² 15,7 km/h (3 Bft) W-SW 244 ° 0 min 0 W/m² 8,9 °C 5,5 °C 20,9 km/h (4 Bft)
18.04.2025 00:36 21,8 °C 10,4 °C 54 % 90 % 1008,6 hPa 0,0 l/m² 16,2 km/h (3 Bft) W 261 ° 0 min 0 W/m² 8,8 °C 5,1 °C 20,9 km/h (4 Bft)
18.04.2025 00:38 21,8 °C 10,4 °C 54 % 90 % 1008,7 hPa 0,0 l/m² 14,4 km/h (3 Bft) W-SW 254 ° 0 min 0 W/m² 8,8 °C 5,9 °C 19,3 km/h (3 Bft)
18.04.2025 00:40 21,8 °C 10,4 °C 54 % 90 % 1008,7 hPa 0,0 l/m² 15,0 km/h (3 Bft) W 268 ° 0 min 0 W/m² 8,8 °C 5,6 °C 20,9 km/h (4 Bft)
18.04.2025 00:41 21,8 °C 10,3 °C 54 % 90 % 1008,8 hPa 0,0 l/m² 10,6 km/h (2 Bft) W-SW 256 ° 0 min 0 W/m² 8,7 °C 7,6 °C 16,1 km/h (3 Bft)
18.04.2025 00:43 21,8 °C 10,3 °C 54 % 91 % 1008,9 hPa 0,0 l/m² 14,6 km/h (3 Bft) W 263 ° 0 min 0 W/m² 8,9 °C 5,7 °C 20,9 km/h (4 Bft)
18.04.2025 00:45 21,8 °C 10,3 °C 54 % 91 % 1008,9 hPa 0,0 l/m² 14,4 km/h (3 Bft) W 269 ° 0 min 0 W/m² 8,9 °C 5,8 °C 17,7 km/h (3 Bft)
18.04.2025 00:46 21,8 °C 10,3 °C 54 % 91 % 1008,9 hPa 0,0 l/m² 11,9 km/h (2 Bft) W-SW 249 ° 0 min 0 W/m² 8,9 °C 6,9 °C 17,7 km/h (3 Bft)
18.04.2025 00:48 21,8 °C 10,2 °C 54 % 91 % 1008,9 hPa 0,0 l/m² 14,4 km/h (3 Bft) W 264 ° 0 min 0 W/m² 8,8 °C 5,6 °C 20,9 km/h (4 Bft)
18.04.2025 00:50 21,8 °C 10,2 °C 54 % 91 % 1008,9 hPa 0,0 l/m² 13,3 km/h (3 Bft) W 269 ° 0 min 0 W/m² 8,8 °C 6,1 °C 17,7 km/h (3 Bft)
18.04.2025 00:51 21,8 °C 10,2 °C 54 % 91 % 1008,9 hPa 0,0 l/m² 12,9 km/h (3 Bft) W 269 ° 0 min 0 W/m² 8,8 °C 6,3 °C 17,7 km/h (3 Bft)
18.04.2025 00:52 21,8 °C 10,2 °C 54 % 91 % 1008,9 hPa 0,0 l/m² 15,8 km/h (3 Bft) W-SW 248 ° 0 min 0 W/m² 8,8 °C 5,1 °C 19,3 km/h (3 Bft)
18.04.2025 00:53 21,8 °C 10,2 °C 54 % 91 % 1008,8 hPa 0,0 l/m² 15,2 km/h (3 Bft) W-SW 250 ° 0 min 0 W/m² 8,8 °C 5,3 °C 20,9 km/h (4 Bft)
18.04.2025 00:55 21,8 °C 10,2 °C 54 % 91 % 1008,8 hPa 0,0 l/m² 15,1 km/h (3 Bft) W-SW 244 ° 0 min 0 W/m² 8,8 °C 5,3 °C 20,9 km/h (4 Bft)
18.04.2025 00:57 21,8 °C 10,2 °C 54 % 91 % 1008,8 hPa 0,0 l/m² 11,0 km/h (2 Bft) W 274 ° 0 min 0 W/m² 8,8 °C 7,3 °C 19,3 km/h (3 Bft)
18.04.2025 00:59 21,8 °C 10,2 °C 54 % 91 % 1008,8 hPa 0,0 l/m² 8,3 km/h (2 Bft) W-SW 252 ° 0 min 0 W/m² 8,8 °C 8,9 °C 12,9 km/h (3 Bft)
18.04.2025 01:01 21,8 °C 10,1 °C 54 % 91 % 1008,9 hPa 0,0 l/m² 14,5 km/h (3 Bft) W 264 ° 0 min 0 W/m² 8,7 °C 5,5 °C 20,9 km/h (4 Bft)
18.04.2025 01:02 21,8 °C 10,1 °C 54 % 91 % 1008,9 hPa 0,0 l/m² 13,1 km/h (3 Bft) W 267 ° 0 min 0 W/m² 8,7 °C 6,1 °C 17,7 km/h (3 Bft)
18.04.2025 01:03 21,8 °C 10,1 °C 54 % 91 % 1008,8 hPa 0,0 l/m² 10,7 km/h (2 Bft) W-SW 250 ° 0 min 0 W/m² 8,7 °C 7,3 °C 16,1 km/h (3 Bft)
18.04.2025 01:04 21,8 °C 10,1 °C 54 % 91 % 1008,8 hPa 0,0 l/m² 10,4 km/h (2 Bft) W-SW 255 ° 0 min 0 W/m² 8,7 °C 7,5 °C 16,1 km/h (3 Bft)
18.04.2025 01:05 21,8 °C 10,1 °C 54 % 91 % 1008,9 hPa 0,0 l/m² 11,3 km/h (2 Bft) W 275 ° 0 min 0 W/m² 8,7 °C 7,0 °C 14,5 km/h (3 Bft)
18.04.2025 01:06 21,8 °C 10,1 °C 54 % 91 % 1008,9 hPa 0,0 l/m² 7,5 km/h (2 Bft) W-SW 255 ° 0 min 0 W/m² 8,7 °C 9,3 °C 11,3 km/h (2 Bft)
18.04.2025 01:08 21,8 °C 10,1 °C 54 % 91 % 1008,9 hPa 0,0 l/m² 11,5 km/h (2 Bft) W 269 ° 0 min 0 W/m² 8,7 °C 6,9 °C 16,1 km/h (3 Bft)
18.04.2025 01:10 21,8 °C 10,1 °C 54 % 91 % 1008,8 hPa 0,0 l/m² 13,2 km/h (3 Bft) W 269 ° 0 min 0 W/m² 8,7 °C 6,0 °C 17,7 km/h (3 Bft)
18.04.2025 01:12 21,8 °C 10,1 °C 54 % 91 % 1008,8 hPa 0,0 l/m² 13,7 km/h (3 Bft) W 272 ° 0 min 0 W/m² 8,7 °C 5,8 °C 19,3 km/h (3 Bft)
18.04.2025 01:13 21,8 °C 10,0 °C 54 % 91 % 1008,7 hPa 0,0 l/m² 14,8 km/h (3 Bft) W 267 ° 0 min 0 W/m² 8,6 °C 5,2 °C 17,7 km/h (3 Bft)
18.04.2025 01:15 21,8 °C 10,0 °C 54 % 91 % 1008,7 hPa 0,0 l/m² 11,5 km/h (2 Bft) W 277 ° 0 min 0 W/m² 8,6 °C 6,8 °C 16,1 km/h (3 Bft)
18.04.2025 01:17 21,8 °C 10,0 °C 54 % 91 % 1008,7 hPa 0,0 l/m² 10,7 km/h (2 Bft) W 275 ° 0 min 0 W/m² 8,6 °C 7,2 °C 14,5 km/h (3 Bft)
18.04.2025 01:19 21,8 °C 10,0 °C 54 % 91 % 1008,6 hPa 0,0 l/m² 11,8 km/h (2 Bft) NW 304 ° 0 min 0 W/m² 8,6 °C 6,6 °C 16,1 km/h (3 Bft)
18.04.2025 01:20 21,8 °C 9,9 °C 54 % 91 % 1008,5 hPa 0,0 l/m² 13,2 km/h (3 Bft) W 271 ° 0 min 0 W/m² 8,5 °C 5,8 °C 17,7 km/h (3 Bft)
18.04.2025 01:22 21,8 °C 10,0 °C 54 % 91 % 1008,6 hPa 0,0 l/m² 14,0 km/h (3 Bft) W 279 ° 0 min 0 W/m² 8,6 °C 5,6 °C 19,3 km/h (3 Bft)
18.04.2025 01:23 21,8 °C 9,9 °C 53 % 91 % 1008,5 hPa 0,0 l/m² 10,1 km/h (2 Bft) W 274 ° 0 min 0 W/m² 8,5 °C 7,4 °C 14,5 km/h (3 Bft)
18.04.2025 01:25 21,8 °C 9,9 °C 54 % 91 % 1008,6 hPa 0,0 l/m² 11,3 km/h (2 Bft) W 269 ° 0 min 0 W/m² 8,5 °C 6,8 °C 16,1 km/h (3 Bft)
18.04.2025 01:26 21,8 °C 9,9 °C 53 % 91 % 1008,5 hPa 0,0 l/m² 10,8 km/h (2 Bft) W 277 ° 0 min 0 W/m² 8,5 °C 7,0 °C 14,5 km/h (3 Bft)
18.04.2025 01:28 21,8 °C 9,9 °C 53 % 91 % 1008,5 hPa 0,0 l/m² 7,7 km/h (2 Bft) W 281 ° 0 min 0 W/m² 8,5 °C 9,0 °C 14,5 km/h (3 Bft)
18.04.2025 01:30 21,8 °C 9,9 °C 53 % 91 % 1008,4 hPa 0,0 l/m² 12,7 km/h (3 Bft) W-NW 285 ° 0 min 0 W/m² 8,5 °C 6,1 °C 16,1 km/h (3 Bft)
18.04.2025 01:31 21,8 °C 9,9 °C 53 % 91 % 1008,4 hPa 0,0 l/m² 11,5 km/h (2 Bft) W 280 ° 0 min 0 W/m² 8,5 °C 6,7 °C 14,5 km/h (3 Bft)
18.04.2025 01:33 21,8 °C 9,9 °C 53 % 91 % 1008,4 hPa 0,0 l/m² 6,6 km/h (2 Bft) W-SW 256 ° 0 min 0 W/m² 8,5 °C 9,8 °C 12,9 km/h (3 Bft)
18.04.2025 01:34 21,8 °C 9,9 °C 53 % 91 % 1008,5 hPa 0,0 l/m² 5,5 km/h (2 Bft) W 275 ° 0 min 0 W/m² 8,5 °C 9,9 °C 11,3 km/h (2 Bft)
18.04.2025 01:36 21,8 °C 9,9 °C 53 % 91 % 1008,5 hPa 0,0 l/m² 6,6 km/h (2 Bft) W-SW 258 ° 0 min 0 W/m² 8,5 °C 9,8 °C 11,3 km/h (2 Bft)
18.04.2025 01:38 21,8 °C 9,9 °C 53 % 91 % 1008,3 hPa 0,0 l/m² 5,8 km/h (2 Bft) W 265 ° 0 min 0 W/m² 8,5 °C 9,9 °C 9,7 km/h (2 Bft)
18.04.2025 01:40 21,8 °C 9,9 °C 53 % 91 % 1008,3 hPa 0,0 l/m² 2,8 km/h (1 Bft) W 277 ° 0 min 0 W/m² 8,5 °C 9,9 °C 6,4 km/h (2 Bft)
18.04.2025 01:41 21,8 °C 9,9 °C 53 % 91 % 1008,3 hPa 0,0 l/m² 8,0 km/h (2 Bft) W 277 ° 0 min 0 W/m² 8,5 °C 8,7 °C 11,3 km/h (2 Bft)
18.04.2025 01:43 21,8 °C 9,9 °C 53 % 91 % 1008,3 hPa 0,0 l/m² 4,5 km/h (1 Bft) W 271 ° 0 min 0 W/m² 8,5 °C 9,9 °C 6,4 km/h (2 Bft)
18.04.2025 01:44 21,8 °C 9,9 °C 53 % 91 % 1008,3 hPa 0,0 l/m² 3,2 km/h (1 Bft) W-NW 292 ° 0 min 0 W/m² 8,5 °C 9,9 °C 11,3 km/h (2 Bft)
18.04.2025 01:46 21,8 °C 9,9 °C 53 % 91 % 1008,3 hPa 0,0 l/m² 4,0 km/h (1 Bft) W-NW 290 ° 0 min 0 W/m² 8,5 °C 9,9 °C 11,3 km/h (2 Bft)
18.04.2025 01:48 21,8 °C 9,9 °C 53 % 91 % 1008,4 hPa 0,0 l/m² 3,3 km/h (1 Bft) W-NW 296 ° 0 min 0 W/m² 8,5 °C 9,9 °C 8,0 km/h (2 Bft)
18.04.2025 01:50 21,8 °C 9,9 °C 53 % 91 % 1008,3 hPa 0,0 l/m² 3,1 km/h (1 Bft) W-SW 245 ° 0 min 0 W/m² 8,5 °C 9,9 °C 6,4 km/h (2 Bft)
18.04.2025 01:51 21,8 °C 9,9 °C 53 % 91 % 1008,4 hPa 0,0 l/m² 7,3 km/h (2 Bft) W-NW 294 ° 0 min 0 W/m² 8,5 °C 9,2 °C 12,9 km/h (3 Bft)
18.04.2025 01:52 21,8 °C 9,9 °C 53 % 91 % 1008,4 hPa 0,0 l/m² 4,7 km/h (1 Bft) W 270 ° 0 min 0 W/m² 8,5 °C 9,9 °C 8,0 km/h (2 Bft)
18.04.2025 01:54 21,8 °C 9,9 °C 53 % 91 % 1008,4 hPa 0,0 l/m² 5,8 km/h (2 Bft) W 271 ° 0 min 0 W/m² 8,5 °C 9,9 °C 11,3 km/h (2 Bft)
18.04.2025 01:56 21,8 °C 9,9 °C 53 % 91 % 1008,4 hPa 0,0 l/m² 8,1 km/h (2 Bft) W 275 ° 0 min 0 W/m² 8,5 °C 8,7 °C 12,9 km/h (3 Bft)
18.04.2025 01:58 21,8 °C 9,9 °C 53 % 91 % 1008,4 hPa 0,0 l/m² 10,4 km/h (2 Bft) W 268 ° 0 min 0 W/m² 8,5 °C 7,3 °C 14,5 km/h (3 Bft)
18.04.2025 02:00 21,8 °C 9,9 °C 53 % 91 % 1008,4 hPa 0,0 l/m² 6,2 km/h (2 Bft) W-NW 283 ° 0 min 0 W/m² 8,5 °C 9,9 °C 11,3 km/h (2 Bft)
18.04.2025 02:01 21,8 °C 9,9 °C 53 % 91 % 1008,4 hPa 0,0 l/m² 4,5 km/h (1 Bft) W-NW 294 ° 0 min 0 W/m² 8,5 °C 9,9 °C 11,3 km/h (2 Bft)
18.04.2025 02:03 21,8 °C 9,9 °C 53 % 91 % 1008,4 hPa 0,0 l/m² 5,3 km/h (1 Bft) W 268 ° 0 min 0 W/m² 8,5 °C 9,9 °C 11,3 km/h (2 Bft)
18.04.2025 02:05 21,8 °C 9,9 °C 53 % 91 % 1008,4 hPa 0,0 l/m² 4,9 km/h (1 Bft) W 280 ° 0 min 0 W/m² 8,5 °C 9,9 °C 9,7 km/h (2 Bft)
18.04.2025 02:07 21,8 °C 9,9 °C 53 % 91 % 1008,4 hPa 0,0 l/m² 4,6 km/h (1 Bft) NW 305 ° 0 min 0 W/m² 8,5 °C 9,9 °C 9,7 km/h (2 Bft)
18.04.2025 02:09 21,8 °C 9,9 °C 53 % 91 % 1008,3 hPa 0,0 l/m² 3,5 km/h (1 Bft) W-SW 237 ° 0 min 0 W/m² 8,5 °C 9,9 °C 9,7 km/h (2 Bft)
18.04.2025 02:11 21,7 °C 9,9 °C 53 % 91 % 1008,2 hPa 0,0 l/m² 3,5 km/h (1 Bft) W-NW 302 ° 0 min 0 W/m² 8,5 °C 9,9 °C 6,4 km/h (2 Bft)
18.04.2025 02:12 21,7 °C 9,9 °C 53 % 91 % 1008,3 hPa 0,0 l/m² 4,8 km/h (1 Bft) W-NW 290 ° 0 min 0 W/m² 8,5 °C 9,9 °C 6,4 km/h (2 Bft)
18.04.2025 02:13 21,7 °C 9,9 °C 53 % 91 % 1008,3 hPa 0,0 l/m² 2,7 km/h (1 Bft) W 275 ° 0 min 0 W/m² 8,5 °C 9,9 °C 11,3 km/h (2 Bft)
18.04.2025 02:15 21,7 °C 9,9 °C 53 % 91 % 1008,2 hPa 0,0 l/m² 5,9 km/h (2 Bft) W-NW 296 ° 0 min 0 W/m² 8,5 °C 9,9 °C 12,9 km/h (3 Bft)
18.04.2025 02:17 21,8 °C 9,9 °C 53 % 91 % 1008,4 hPa 0,0 l/m² 4,5 km/h (1 Bft) W 275 ° 0 min 0 W/m² 8,5 °C 9,9 °C 11,3 km/h (2 Bft)
18.04.2025 02:19 21,7 °C 9,8 °C 53 % 91 % 1008,4 hPa 0,0 l/m² 1,6 km/h (1 Bft) NW 312 ° 0 min 0 W/m² 8,4 °C 9,8 °C 4,8 km/h (1 Bft)
18.04.2025 02:20 21,7 °C 9,8 °C 53 % 91 % 1008,4 hPa 0,0 l/m² 3,5 km/h (1 Bft) W 260 ° 0 min 0 W/m² 8,4 °C 9,8 °C 4,8 km/h (1 Bft)
18.04.2025 02:22 21,7 °C 9,8 °C 53 % 91 % 1008,5 hPa 0,0 l/m² 3,6 km/h (1 Bft) W-NW 297 ° 0 min 0 W/m² 8,4 °C 9,8 °C 9,7 km/h (2 Bft)
18.04.2025 02:24 21,7 °C 9,8 °C 53 % 91 % 1008,5 hPa 0,0 l/m² 4,7 km/h (1 Bft) W 275 ° 0 min 0 W/m² 8,4 °C 9,8 °C 9,7 km/h (2 Bft)
18.04.2025 02:26 21,7 °C 9,8 °C 53 % 91 % 1008,5 hPa 0,0 l/m² 6,6 km/h (2 Bft) W 277 ° 0 min 0 W/m² 8,4 °C 9,7 °C 9,7 km/h (2 Bft)
18.04.2025 02:28 21,7 °C 9,8 °C 53 % 92 % 1008,5 hPa 0,0 l/m² 4,6 km/h (1 Bft) W 270 ° 0 min 0 W/m² 8,6 °C 9,8 °C 9,7 km/h (2 Bft)
18.04.2025 02:30 21,7 °C 9,8 °C 53 % 92 % 1008,5 hPa 0,0 l/m² 4,7 km/h (1 Bft) W 269 ° 0 min 0 W/m² 8,6 °C 9,8 °C 6,4 km/h (2 Bft)
18.04.2025 02:31 21,7 °C 9,8 °C 53 % 92 % 1008,5 hPa 0,0 l/m² 4,9 km/h (1 Bft) W 261 ° 0 min 0 W/m² 8,6 °C 9,8 °C 9,7 km/h (2 Bft)
18.04.2025 02:32 21,7 °C 9,8 °C 53 % 92 % 1008,5 hPa 0,0 l/m² 1,8 km/h (1 Bft) W 261 ° 0 min 0 W/m² 8,6 °C 9,8 °C 3,2 km/h (1 Bft)
18.04.2025 02:33 21,7 °C 9,8 °C 53 % 92 % 1008,5 hPa 0,0 l/m² 2,3 km/h (1 Bft) W 264 ° 0 min 0 W/m² 8,6 °C 9,8 °C 4,8 km/h (1 Bft)
18.04.2025 02:35 21,7 °C 9,8 °C 53 % 92 % 1008,4 hPa 0,0 l/m² 4,3 km/h (1 Bft) W 268 ° 0 min 0 W/m² 8,6 °C 9,8 °C 9,7 km/h (2 Bft)
18.04.2025 02:37 21,7 °C 9,8 °C 53 % 92 % 1008,5 hPa 0,0 l/m² 4,5 km/h (1 Bft) W 269 ° 0 min 0 W/m² 8,6 °C 9,8 °C 6,4 km/h (2 Bft)
18.04.2025 02:39 21,7 °C 9,8 °C 53 % 92 % 1008,5 hPa 0,0 l/m² 4,9 km/h (1 Bft) W-SW 257 ° 0 min 0 W/m² 8,6 °C 9,8 °C 6,4 km/h (2 Bft)
18.04.2025 02:40 21,7 °C 9,8 °C 53 % 92 % 1008,6 hPa 0,0 l/m² 5,7 km/h (2 Bft) W-SW 258 ° 0 min 0 W/m² 8,6 °C 9,8 °C 6,4 km/h (2 Bft)
18.04.2025 02:42 21,7 °C 9,8 °C 53 % 92 % 1008,5 hPa 0,0 l/m² 4,8 km/h (1 Bft) W-SW 245 ° 0 min 0 W/m² 8,6 °C 9,8 °C 6,4 km/h (2 Bft)
18.04.2025 02:44 21,7 °C 9,7 °C 53 % 92 % 1008,6 hPa 0,0 l/m² 3,8 km/h (1 Bft) W-SW 248 ° 0 min 0 W/m² 8,5 °C 9,7 °C 4,8 km/h (1 Bft)
18.04.2025 02:46 21,7 °C 9,7 °C 53 % 92 % 1008,5 hPa 0,0 l/m² 3,9 km/h (1 Bft) W-SW 249 ° 0 min 0 W/m² 8,5 °C 9,7 °C 4,8 km/h (1 Bft)
18.04.2025 02:48 21,7 °C 9,8 °C 53 % 92 % 1008,6 hPa 0,0 l/m² 5,0 km/h (1 Bft) W-SW 253 ° 0 min 0 W/m² 8,6 °C 9,8 °C 6,4 km/h (2 Bft)
18.04.2025 02:50 21,7 °C 9,7 °C 53 % 92 % 1008,6 hPa 0,0 l/m² 4,5 km/h (1 Bft) W-SW 246 ° 0 min 0 W/m² 8,5 °C 9,7 °C 6,4 km/h (2 Bft)
18.04.2025 02:51 21,7 °C 9,7 °C 53 % 92 % 1008,7 hPa 0,0 l/m² 3,9 km/h (1 Bft) W 261 ° 0 min 0 W/m² 8,5 °C 9,7 °C 6,4 km/h (2 Bft)
18.04.2025 02:52 21,7 °C 9,7 °C 53 % 92 % 1008,7 hPa 0,0 l/m² 5,6 km/h (2 Bft) W-SW 242 ° 0 min 0 W/m² 8,5 °C 9,7 °C 9,7 km/h (2 Bft)
18.04.2025 02:53 21,7 °C 9,7 °C 53 % 92 % 1008,7 hPa 0,0 l/m² 5,8 km/h (2 Bft) W 263 ° 0 min 0 W/m² 8,5 °C 9,7 °C 9,7 km/h (2 Bft)
18.04.2025 02:55 21,7 °C 9,7 °C 53 % 92 % 1008,7 hPa 0,0 l/m² 4,7 km/h (1 Bft) W 260 ° 0 min 0 W/m² 8,5 °C 9,7 °C 6,4 km/h (2 Bft)
18.04.2025 02:57 21,7 °C 9,7 °C 53 % 92 % 1008,6 hPa 0,0 l/m² 4,0 km/h (1 Bft) W 260 ° 0 min 0 W/m² 8,5 °C 9,7 °C 6,4 km/h (2 Bft)
18.04.2025 02:59 21,7 °C 9,7 °C 53 % 92 % 1008,6 hPa 0,0 l/m² 5,4 km/h (2 Bft) W-SW 253 ° 0 min 0 W/m² 8,5 °C 9,7 °C 9,7 km/h (2 Bft)
18.04.2025 03:00 21,7 °C 9,7 °C 53 % 92 % 1008,6 hPa 0,0 l/m² 3,2 km/h (1 Bft) W-SW 247 ° 0 min 0 W/m² 8,5 °C 9,7 °C 6,4 km/h (2 Bft)
18.04.2025 03:01 21,7 °C 9,8 °C 53 % 92 % 1008,6 hPa 0,0 l/m² 4,8 km/h (1 Bft) W-SW 247 ° 0 min 0 W/m² 8,6 °C 9,8 °C 6,4 km/h (2 Bft)
18.04.2025 03:06 21,7 °C 9,8 °C 53 % 92 % 1008,8 hPa 0,0 l/m² 3,4 km/h (1 Bft) W 262 ° 0 min 0 W/m² 8,6 °C 9,8 °C 4,8 km/h (1 Bft)
18.04.2025 03:08 21,7 °C 9,8 °C 53 % 92 % 1008,8 hPa 0,0 l/m² 2,9 km/h (1 Bft) W 265 ° 0 min 0 W/m² 8,6 °C 9,8 °C 4,8 km/h (1 Bft)
18.04.2025 03:09 21,7 °C 9,7 °C 53 % 92 % 1008,9 hPa 0,0 l/m² 1,4 km/h (1 Bft) W 265 ° 0 min 0 W/m² 8,5 °C 9,7 °C 3,2 km/h (1 Bft)
18.04.2025 03:11 21,7 °C 9,8 °C 53 % 92 % 1008,9 hPa 0,0 l/m² 1,5 km/h (1 Bft) W 265 ° 0 min 0 W/m² 8,6 °C 9,8 °C 3,2 km/h (1 Bft)
18.04.2025 03:13 21,7 °C 9,8 °C 53 % 92 % 1008,9 hPa 0,0 l/m² 3,3 km/h (1 Bft) W 265 ° 0 min 0 W/m² 8,6 °C 9,8 °C 4,8 km/h (1 Bft)
18.04.2025 03:14 21,7 °C 9,8 °C 53 % 92 % 1009,0 hPa 0,0 l/m² 2,6 km/h (1 Bft) W 265 ° 0 min 0 W/m² 8,6 °C 9,8 °C 4,8 km/h (1 Bft)
18.04.2025 03:15 21,7 °C 9,8 °C 53 % 92 % 1009,0 hPa 0,0 l/m² 1,9 km/h (1 Bft) W 265 ° 0 min 0 W/m² 8,6 °C 9,8 °C 3,2 km/h (1 Bft)
18.04.2025 03:17 21,7 °C 9,8 °C 53 % 92 % 1009,0 hPa 0,0 l/m² 1,8 km/h (1 Bft) W 265 ° 0 min 0 W/m² 8,6 °C 9,8 °C 4,8 km/h (1 Bft)
18.04.2025 03:18 21,7 °C 9,8 °C 53 % 92 % 1009,1 hPa 0,0 l/m² 1,3 km/h (1 Bft) W 265 ° 0 min 0 W/m² 8,6 °C 9,8 °C 3,2 km/h (1 Bft)
18.04.2025 03:19 21,7 °C 9,8 °C 53 % 92 % 1009,2 hPa 0,0 l/m² 1,7 km/h (1 Bft) W 265 ° 0 min 0 W/m² 8,6 °C 9,8 °C 3,2 km/h (1 Bft)
18.04.2025 03:21 21,7 °C 9,8 °C 53 % 92 % 1009,2 hPa 0,0 l/m² 2,9 km/h (1 Bft) W 264 ° 0 min 0 W/m² 8,6 °C 9,8 °C 4,8 km/h (1 Bft)
18.04.2025 03:24 21,7 °C 9,8 °C 53 % 92 % 1009,4 hPa 0,0 l/m² 2,9 km/h (1 Bft) W-SW 253 ° 0 min 0 W/m² 8,6 °C 9,8 °C 4,8 km/h (1 Bft)
18.04.2025 03:25 21,7 °C 9,7 °C 53 % 92 % 1009,4 hPa 0,0 l/m² 2,3 km/h (1 Bft) W-SW 253 ° 0 min 0 W/m² 8,5 °C 9,7 °C 3,2 km/h (1 Bft)
18.04.2025 03:26 21,7 °C 9,8 °C 53 % 92 % 1009,3 hPa 0,0 l/m² 3,7 km/h (1 Bft) W-SW 253 ° 0 min 0 W/m² 8,6 °C 9,8 °C 4,8 km/h (1 Bft)
18.04.2025 03:27 21,7 °C 9,8 °C 53 % 92 % 1009,4 hPa 0,0 l/m² 2,7 km/h (1 Bft) W-SW 253 ° 0 min 0 W/m² 8,6 °C 9,8 °C 4,8 km/h (1 Bft)
18.04.2025 03:28 21,7 °C 9,8 °C 53 % 92 % 1009,3 hPa 0,0 l/m² 4,0 km/h (1 Bft) W-SW 248 ° 0 min 0 W/m² 8,6 °C 9,8 °C 4,8 km/h (1 Bft)
18.04.2025 03:29 21,7 °C 9,8 °C 53 % 92 % 1009,4 hPa 0,0 l/m² 4,3 km/h (1 Bft) W-SW 250 ° 0 min 0 W/m² 8,6 °C 9,8 °C 6,4 km/h (2 Bft)
18.04.2025 03:31 21,7 °C 9,8 °C 53 % 92 % 1009,3 hPa 0,0 l/m² 4,2 km/h (1 Bft) W-SW 255 ° 0 min 0 W/m² 8,6 °C 9,8 °C 6,4 km/h (2 Bft)
18.04.2025 03:33 21,7 °C 9,7 °C 53 % 92 % 1009,0 hPa 0,0 l/m² 8,5 km/h (2 Bft) W 277 ° 0 min 0 W/m² 8,5 °C 8,2 °C 11,3 km/h (2 Bft)
18.04.2025 03:34 21,7 °C 9,7 °C 53 % 92 % 1009,0 hPa 0,0 l/m² 8,9 km/h (2 Bft) W 264 ° 0 min 0 W/m² 8,5 °C 7,9 °C 9,7 km/h (2 Bft)
18.04.2025 03:35 21,7 °C 9,7 °C 53 % 92 % 1008,9 hPa 0,0 l/m² 5,4 km/h (2 Bft) W 259 ° 0 min 0 W/m² 8,5 °C 9,7 °C 9,7 km/h (2 Bft)
18.04.2025 03:37 21,7 °C 9,7 °C 53 % 92 % 1009,1 hPa 0,0 l/m² 5,7 km/h (2 Bft) W-SW 252 ° 0 min 0 W/m² 8,5 °C 9,7 °C 11,3 km/h (2 Bft)
18.04.2025 03:38 21,7 °C 9,7 °C 53 % 92 % 1009,1 hPa 0,0 l/m² 5,0 km/h (1 Bft) W-SW 251 ° 0 min 0 W/m² 8,5 °C 9,7 °C 9,7 km/h (2 Bft)
18.04.2025 03:39 21,7 °C 9,7 °C 53 % 92 % 1009,2 hPa 0,0 l/m² 4,4 km/h (1 Bft) W-SW 246 ° 0 min 0 W/m² 8,5 °C 9,7 °C 6,4 km/h (2 Bft)
18.04.2025 03:41 21,7 °C 9,7 °C 53 % 92 % 1009,2 hPa 0,0 l/m² 4,5 km/h (1 Bft) W-SW 252 ° 0 min 0 W/m² 8,5 °C 9,7 °C 8,0 km/h (2 Bft)
18.04.2025 03:43 21,7 °C 9,7 °C 53 % 92 % 1009,2 hPa 0,0 l/m² 4,7 km/h (1 Bft) W-SW 256 ° 0 min 0 W/m² 8,5 °C 9,7 °C 6,4 km/h (2 Bft)
18.04.2025 03:44 21,7 °C 9,7 °C 53 % 92 % 1009,2 hPa 0,0 l/m² 3,1 km/h (1 Bft) W-SW 247 ° 0 min 0 W/m² 8,5 °C 9,7 °C 6,4 km/h (2 Bft)
18.04.2025 03:46 21,7 °C 9,7 °C 53 % 92 % 1009,2 hPa 0,0 l/m² 4,0 km/h (1 Bft) W-SW 240 ° 0 min 0 W/m² 8,5 °C 9,7 °C 4,8 km/h (1 Bft)
18.04.2025 03:47 21,7 °C 9,7 °C 53 % 92 % 1009,2 hPa 0,0 l/m² 5,0 km/h (1 Bft) SW 230 ° 0 min 0 W/m² 8,5 °C 9,7 °C 6,4 km/h (2 Bft)
18.04.2025 03:48 21,7 °C 9,7 °C 53 % 92 % 1009,3 hPa 0,0 l/m² 5,7 km/h (2 Bft) SW 231 ° 0 min 0 W/m² 8,5 °C 9,7 °C 6,4 km/h (2 Bft)
18.04.2025 03:49 21,7 °C 9,7 °C 53 % 92 % 1009,2 hPa 0,0 l/m² 4,5 km/h (1 Bft) W-SW 245 ° 0 min 0 W/m² 8,5 °C 9,7 °C 6,4 km/h (2 Bft)
18.04.2025 03:51 21,7 °C 9,7 °C 53 % 92 % 1009,2 hPa 0,0 l/m² 7,8 km/h (2 Bft) W-SW 254 ° 0 min 0 W/m² 8,5 °C 8,7 °C 14,5 km/h (3 Bft)
18.04.2025 03:53 21,7 °C 9,7 °C 53 % 92 % 1009,1 hPa 0,0 l/m² 8,5 km/h (2 Bft) W-SW 250 ° 0 min 0 W/m² 8,5 °C 8,2 °C 14,5 km/h (3 Bft)
18.04.2025 03:54 21,7 °C 9,7 °C 53 % 92 % 1009,1 hPa 0,0 l/m² 10,0 km/h (2 Bft) W-SW 244 ° 0 min 0 W/m² 8,5 °C 7,3 °C 16,1 km/h (3 Bft)
18.04.2025 03:55 21,7 °C 9,7 °C 53 % 92 % 1009,1 hPa 0,0 l/m² 10,5 km/h (2 Bft) W-SW 254 ° 0 min 0 W/m² 8,5 °C 7,0 °C 14,5 km/h (3 Bft)
18.04.2025 03:56 21,7 °C 9,6 °C 53 % 92 % 1009,1 hPa 0,0 l/m² 8,5 km/h (2 Bft) W-SW 255 ° 0 min 0 W/m² 8,4 °C 8,1 °C 12,9 km/h (3 Bft)
18.04.2025 03:57 21,7 °C 9,6 °C 53 % 93 % 1009,2 hPa 0,0 l/m² 10,9 km/h (2 Bft) W 263 ° 0 min 0 W/m² 8,5 °C 6,6 °C 16,1 km/h (3 Bft)
18.04.2025 03:58 21,7 °C 9,6 °C 53 % 93 % 1009,2 hPa 0,0 l/m² 11,2 km/h (2 Bft) W 269 ° 0 min 0 W/m² 8,5 °C 6,5 °C 14,5 km/h (3 Bft)
18.04.2025 03:59 21,7 °C 9,6 °C 53 % 93 % 1009,2 hPa 0,0 l/m² 10,2 km/h (2 Bft) W 264 ° 0 min 0 W/m² 8,5 °C 7,0 °C 12,9 km/h (3 Bft)
18.04.2025 04:02 21,7 °C 9,6 °C 53 % 93 % 1009,2 hPa 0,0 l/m² 8,2 km/h (2 Bft) W 261 ° 0 min 0 W/m² 8,5 °C 8,3 °C 11,3 km/h (2 Bft)
18.04.2025 04:03 21,7 °C 9,6 °C 53 % 93 % 1009,2 hPa 0,0 l/m² 7,5 km/h (2 Bft) W 274 ° 0 min 0 W/m² 8,5 °C 8,8 °C 14,5 km/h (3 Bft)
18.04.2025 04:05 21,7 °C 9,6 °C 53 % 93 % 1009,2 hPa 0,0 l/m² 11,5 km/h (2 Bft) W 280 ° 0 min 0 W/m² 8,5 °C 6,3 °C 14,5 km/h (3 Bft)
18.04.2025 04:06 21,7 °C 9,6 °C 53 % 93 % 1009,2 hPa 0,0 l/m² 9,6 km/h (2 Bft) W 278 ° 0 min 0 W/m² 8,5 °C 7,4 °C 11,3 km/h (2 Bft)
18.04.2025 04:07 21,7 °C 9,6 °C 53 % 93 % 1009,2 hPa 0,0 l/m² 9,0 km/h (2 Bft) W 273 ° 0 min 0 W/m² 8,5 °C 7,8 °C 12,9 km/h (3 Bft)
18.04.2025 04:08 21,7 °C 9,6 °C 53 % 93 % 1009,1 hPa 0,0 l/m² 7,3 km/h (2 Bft) W 275 ° 0 min 0 W/m² 8,5 °C 8,9 °C 11,3 km/h (2 Bft)
18.04.2025 04:09 21,7 °C 9,6 °C 53 % 93 % 1009,1 hPa 0,0 l/m² 6,1 km/h (2 Bft) W 275 ° 0 min 0 W/m² 8,5 °C 9,6 °C 9,7 km/h (2 Bft)
18.04.2025 04:11 21,7 °C 9,6 °C 53 % 93 % 1009,2 hPa 0,0 l/m² 6,7 km/h (2 Bft) W 261 ° 0 min 0 W/m² 8,5 °C 9,4 °C 11,3 km/h (2 Bft)
18.04.2025 04:13 21,7 °C 9,6 °C 53 % 93 % 1009,1 hPa 0,0 l/m² 3,8 km/h (1 Bft) W-SW 250 ° 0 min 0 W/m² 8,5 °C 9,6 °C 6,4 km/h (2 Bft)
18.04.2025 04:14 21,7 °C 9,6 °C 53 % 93 % 1009,2 hPa 0,0 l/m² 4,0 km/h (1 Bft) W-SW 254 ° 0 min 0 W/m² 8,5 °C 9,6 °C 4,8 km/h (1 Bft)
18.04.2025 04:15 21,7 °C 9,6 °C 53 % 93 % 1009,2 hPa 0,0 l/m² 3,6 km/h (1 Bft) W 267 ° 0 min 0 W/m² 8,5 °C 9,6 °C 6,4 km/h (2 Bft)
18.04.2025 04:16 21,6 °C 9,6 °C 53 % 93 % 1009,1 hPa 0,0 l/m² 4,2 km/h (1 Bft) W 263 ° 0 min 0 W/m² 8,5 °C 9,6 °C 4,8 km/h (1 Bft)
18.04.2025 04:17 21,7 °C 9,6 °C 53 % 93 % 1009,1 hPa 0,0 l/m² 4,4 km/h (1 Bft) W 277 ° 0 min 0 W/m² 8,5 °C 9,6 °C 6,4 km/h (2 Bft)
18.04.2025 04:18 21,7 °C 9,6 °C 53 % 93 % 1009,1 hPa 0,0 l/m² 5,2 km/h (1 Bft) W 273 ° 0 min 0 W/m² 8,5 °C 9,6 °C 6,4 km/h (2 Bft)
18.04.2025 04:19 21,6 °C 9,6 °C 53 % 93 % 1009,1 hPa 0,0 l/m² 5,7 km/h (2 Bft) W-NW 283 ° 0 min 0 W/m² 8,5 °C 9,6 °C 6,4 km/h (2 Bft)
18.04.2025 04:21 21,7 °C 9,6 °C 53 % 93 % 1009,1 hPa 0,0 l/m² 6,1 km/h (2 Bft) W 277 ° 0 min 0 W/m² 8,5 °C 9,6 °C 11,3 km/h (2 Bft)
18.04.2025 04:24 21,6 °C 9,6 °C 53 % 93 % 1009,1 hPa 0,0 l/m² 5,5 km/h (2 Bft) W 259 ° 0 min 0 W/m² 8,5 °C 9,6 °C 9,7 km/h (2 Bft)
18.04.2025 04:25 21,7 °C 9,6 °C 53 % 93 % 1009,1 hPa 0,0 l/m² 4,8 km/h (1 Bft) W 262 ° 0 min 0 W/m² 8,5 °C 9,6 °C 6,4 km/h (2 Bft)
18.04.2025 04:26 21,7 °C 9,6 °C 53 % 93 % 1009,1 hPa 0,0 l/m² 4,6 km/h (1 Bft) W 270 ° 0 min 0 W/m² 8,5 °C 9,6 °C 6,4 km/h (2 Bft)
18.04.2025 04:27 21,6 °C 9,6 °C 53 % 93 % 1009,1 hPa 0,0 l/m² 5,3 km/h (1 Bft) W-NW 284 ° 0 min 0 W/m² 8,5 °C 9,6 °C 6,4 km/h (2 Bft)
18.04.2025 04:28 21,6 °C 9,6 °C 53 % 93 % 1009,2 hPa 0,0 l/m² 5,6 km/h (2 Bft) W 271 ° 0 min 0 W/m² 8,5 °C 9,6 °C 6,4 km/h (2 Bft)
18.04.2025 04:29 21,6 °C 9,6 °C 53 % 93 % 1009,2 hPa 0,0 l/m² 6,4 km/h (2 Bft) W 271 ° 0 min 0 W/m² 8,5 °C 9,6 °C 9,7 km/h (2 Bft)
18.04.2025 04:31 21,6 °C 9,6 °C 53 % 93 % 1009,2 hPa 0,0 l/m² 6,6 km/h (2 Bft) W-SW 255 ° 0 min 0 W/m² 8,5 °C 9,5 °C 11,3 km/h (2 Bft)
18.04.2025 04:33 21,6 °C 9,6 °C 53 % 93 % 1009,3 hPa 0,0 l/m² 6,4 km/h (2 Bft) W 269 ° 0 min 0 W/m² 8,5 °C 9,6 °C 11,3 km/h (2 Bft)
18.04.2025 04:34 21,6 °C 9,6 °C 53 % 93 % 1009,3 hPa 0,0 l/m² 3,6 km/h (1 Bft) W 262 ° 0 min 0 W/m² 8,5 °C 9,6 °C 4,8 km/h (1 Bft)
18.04.2025 04:35 21,6 °C 9,5 °C 53 % 93 % 1009,3 hPa 0,0 l/m² 5,8 km/h (2 Bft) W 280 ° 0 min 0 W/m² 8,4 °C 9,5 °C 9,7 km/h (2 Bft)
18.04.2025 04:36 21,6 °C 9,6 °C 53 % 93 % 1009,2 hPa 0,0 l/m² 8,3 km/h (2 Bft) W-SW 257 ° 0 min 0 W/m² 8,5 °C 8,2 °C 11,3 km/h (2 Bft)
18.04.2025 04:37 21,6 °C 9,6 °C 53 % 93 % 1009,2 hPa 0,0 l/m² 10,1 km/h (2 Bft) W 272 ° 0 min 0 W/m² 8,5 °C 7,1 °C 12,9 km/h (3 Bft)
18.04.2025 04:38 21,6 °C 9,5 °C 53 % 93 % 1009,2 hPa 0,0 l/m² 7,9 km/h (2 Bft) W 277 ° 0 min 0 W/m² 8,4 °C 8,4 °C 11,3 km/h (2 Bft)
18.04.2025 04:39 21,6 °C 9,5 °C 53 % 93 % 1009,2 hPa 0,0 l/m² 9,2 km/h (2 Bft) W 265 ° 0 min 0 W/m² 8,4 °C 7,5 °C 11,3 km/h (2 Bft)
18.04.2025 04:42 21,6 °C 9,5 °C 53 % 93 % 1009,4 hPa 0,0 l/m² 4,8 km/h (1 Bft) W 265 ° 0 min 0 W/m² 8,4 °C 9,5 °C 9,7 km/h (2 Bft)
18.04.2025 04:43 21,6 °C 9,5 °C 53 % 93 % 1009,4 hPa 0,0 l/m² 4,7 km/h (1 Bft) W 274 ° 0 min 0 W/m² 8,4 °C 9,5 °C 6,4 km/h (2 Bft)
18.04.2025 04:45 21,6 °C 9,5 °C 53 % 93 % 1009,4 hPa 0,0 l/m² 6,0 km/h (2 Bft) W 269 ° 0 min 0 W/m² 8,4 °C 9,5 °C 11,3 km/h (2 Bft)
18.04.2025 04:46 21,6 °C 9,5 °C 53 % 93 % 1009,5 hPa 0,0 l/m² 7,0 km/h (2 Bft) W 263 ° 0 min 0 W/m² 8,4 °C 9,1 °C 9,7 km/h (2 Bft)
18.04.2025 04:47 21,6 °C 9,5 °C 53 % 93 % 1009,5 hPa 0,0 l/m² 4,8 km/h (1 Bft) W 269 ° 0 min 0 W/m² 8,4 °C 9,5 °C 6,4 km/h (2 Bft)
18.04.2025 04:48 21,6 °C 9,5 °C 53 % 93 % 1009,5 hPa 0,0 l/m² 6,7 km/h (2 Bft) W 271 ° 0 min 0 W/m² 8,4 °C 9,3 °C 11,3 km/h (2 Bft)
18.04.2025 04:49 21,6 °C 9,5 °C 53 % 93 % 1009,5 hPa 0,0 l/m² 6,9 km/h (2 Bft) W-SW 253 ° 0 min 0 W/m² 8,4 °C 9,1 °C 9,7 km/h (2 Bft)
18.04.2025 04:50 21,6 °C 9,5 °C 53 % 93 % 1009,4 hPa 0,0 l/m² 5,0 km/h (1 Bft) W-NW 282 ° 0 min 0 W/m² 8,4 °C 9,5 °C 9,7 km/h (2 Bft)
18.04.2025 04:52 21,6 °C 9,4 °C 53 % 93 % 1009,3 hPa 0,0 l/m² 6,8 km/h (2 Bft) W 278 ° 0 min 0 W/m² 8,3 °C 9,1 °C 11,3 km/h (2 Bft)
18.04.2025 04:53 21,6 °C 9,4 °C 53 % 93 % 1009,2 hPa 0,0 l/m² 4,6 km/h (1 Bft) W 273 ° 0 min 0 W/m² 8,3 °C 9,4 °C 6,4 km/h (2 Bft)
18.04.2025 04:54 21,6 °C 9,5 °C 53 % 93 % 1009,2 hPa 0,0 l/m² 3,2 km/h (1 Bft) W 275 ° 0 min 0 W/m² 8,4 °C 9,5 °C 4,8 km/h (1 Bft)
18.04.2025 04:55 21,6 °C 9,4 °C 53 % 93 % 1009,1 hPa 0,0 l/m² 2,2 km/h (1 Bft) W 267 ° 0 min 0 W/m² 8,3 °C 9,4 °C 6,4 km/h (2 Bft)
18.04.2025 04:56 21,6 °C 9,5 °C 53 % 93 % 1009,2 hPa 0,0 l/m² 1,4 km/h (1 Bft) W 267 ° 0 min 0 W/m² 8,4 °C 9,5 °C 3,2 km/h (1 Bft)
18.04.2025 04:57 21,6 °C 9,5 °C 53 % 93 % 1009,2 hPa 0,0 l/m² 0,5 km/h (0 Bft) W 267 ° 0 min 0 W/m² 8,4 °C 9,5 °C 1,6 km/h (1 Bft)
18.04.2025 04:58 21,6 °C 9,5 °C 53 % 94 % 1009,2 hPa 0,0 l/m² 3,1 km/h (1 Bft) W 265 ° 0 min 0 W/m² 8,6 °C 9,5 °C 4,8 km/h (1 Bft)
18.04.2025 04:59 21,6 °C 9,4 °C 53 % 93 % 1009,1 hPa 0,0 l/m² 2,4 km/h (1 Bft) W 265 ° 0 min 0 W/m² 8,3 °C 9,4 °C 4,8 km/h (1 Bft)
18.04.2025 05:02 21,6 °C 9,4 °C 53 % 94 % 1009,1 hPa 0,0 l/m² 2,0 km/h (1 Bft) W 275 ° 0 min 0 W/m² 8,5 °C 9,4 °C 6,4 km/h (2 Bft)
18.04.2025 05:03 21,6 °C 9,4 °C 53 % 94 % 1009,1 hPa 0,0 l/m² 2,4 km/h (1 Bft) W-NW 296 ° 0 min 0 W/m² 8,5 °C 9,4 °C 4,8 km/h (1 Bft)
18.04.2025 05:05 21,6 °C 9,4 °C 53 % 94 % 1009,1 hPa 0,0 l/m² 2,0 km/h (1 Bft) W 270 ° 0 min 0 W/m² 8,5 °C 9,4 °C 4,8 km/h (1 Bft)
18.04.2025 05:06 21,6 °C 9,4 °C 53 % 94 % 1009,1 hPa 0,0 l/m² 2,1 km/h (1 Bft) W-NW 286 ° 0 min 0 W/m² 8,5 °C 9,4 °C 4,8 km/h (1 Bft)
18.04.2025 05:08 21,6 °C 9,4 °C 53 % 94 % 1009,1 hPa 0,0 l/m² 0,7 km/h (0 Bft) W-NW 283 ° 0 min 0 W/m² 8,5 °C 9,4 °C 3,2 km/h (1 Bft)
18.04.2025 05:09 21,6 °C 9,4 °C 53 % 94 % 1009,1 hPa 0,0 l/m² 1,2 km/h (1 Bft) W-NW 286 ° 0 min 0 W/m² 8,5 °C 9,4 °C 1,6 km/h (1 Bft)
18.04.2025 05:10 21,6 °C 9,4 °C 53 % 94 % 1009,3 hPa 0,0 l/m² 2,3 km/h (1 Bft) W 279 ° 0 min 0 W/m² 8,5 °C 9,4 °C 3,2 km/h (1 Bft)
18.04.2025 05:11 21,6 °C 9,4 °C 53 % 94 % 1009,3 hPa 0,0 l/m² 2,7 km/h (1 Bft) W 273 ° 0 min 0 W/m² 8,5 °C 9,4 °C 4,8 km/h (1 Bft)
18.04.2025 05:12 21,6 °C 9,4 °C 53 % 94 % 1009,3 hPa 0,0 l/m² 2,5 km/h (1 Bft) W 270 ° 0 min 0 W/m² 8,5 °C 9,4 °C 4,8 km/h (1 Bft)
18.04.2025 05:13 21,6 °C 9,4 °C 53 % 94 % 1009,4 hPa 0,0 l/m² 2,6 km/h (1 Bft) W-SW 257 ° 0 min 0 W/m² 8,5 °C 9,4 °C 4,8 km/h (1 Bft)
18.04.2025 05:14 21,6 °C 9,4 °C 53 % 94 % 1009,4 hPa 0,0 l/m² 4,1 km/h (1 Bft) W-SW 255 ° 0 min 0 W/m² 8,5 °C 9,4 °C 4,8 km/h (1 Bft)
18.04.2025 05:15 21,6 °C 9,4 °C 53 % 94 % 1009,4 hPa 0,0 l/m² 3,3 km/h (1 Bft) W-SW 255 ° 0 min 0 W/m² 8,5 °C 9,4 °C 4,8 km/h (1 Bft)
18.04.2025 05:16 21,6 °C 9,4 °C 53 % 94 % 1009,4 hPa 0,0 l/m² 3,2 km/h (1 Bft) W-SW 246 ° 0 min 0 W/m² 8,5 °C 9,4 °C 4,8 km/h (1 Bft)
18.04.2025 05:17 21,6 °C 9,4 °C 53 % 94 % 1009,4 hPa 0,0 l/m² 3,6 km/h (1 Bft) W-SW 252 ° 0 min 0 W/m² 8,5 °C 9,4 °C 4,8 km/h (1 Bft)
18.04.2025 05:18 21,6 °C 9,4 °C 53 % 94 % 1009,4 hPa 0,0 l/m² 3,7 km/h (1 Bft) W-SW 254 ° 0 min 0 W/m² 8,5 °C 9,4 °C 4,8 km/h (1 Bft)
18.04.2025 05:19 21,6 °C 9,4 °C 53 % 94 % 1009,4 hPa 0,0 l/m² 3,6 km/h (1 Bft) W 259 ° 0 min 0 W/m² 8,5 °C 9,4 °C 4,8 km/h (1 Bft)
18.04.2025 05:21 21,6 °C 9,4 °C 53 % 94 % 1009,4 hPa 0,0 l/m² 2,1 km/h (1 Bft) W 259 ° 0 min 0 W/m² 8,5 °C 9,4 °C 4,8 km/h (1 Bft)
18.04.2025 05:23 21,6 °C 9,4 °C 53 % 94 % 1009,4 hPa 0,0 l/m² 2,3 km/h (1 Bft) W 259 ° 0 min 0 W/m² 8,5 °C 9,4 °C 3,2 km/h (1 Bft)
18.04.2025 05:24 21,6 °C 9,4 °C 53 % 94 % 1009,3 hPa 0,0 l/m² 3,6 km/h (1 Bft) W 261 ° 0 min 0 W/m² 8,5 °C 9,4 °C 4,8 km/h (1 Bft)
18.04.2025 05:25 21,6 °C 9,5 °C 53 % 94 % 1009,3 hPa 0,0 l/m² 4,3 km/h (1 Bft) W 269 ° 0 min 0 W/m² 8,6 °C 9,5 °C 4,8 km/h (1 Bft)
18.04.2025 05:26 21,6 °C 9,4 °C 53 % 94 % 1009,4 hPa 0,0 l/m² 3,3 km/h (1 Bft) W 272 ° 0 min 0 W/m² 8,5 °C 9,4 °C 4,8 km/h (1 Bft)
18.04.2025 05:27 21,6 °C 9,4 °C 53 % 94 % 1009,3 hPa 0,0 l/m² 3,2 km/h (1 Bft) W 277 ° 0 min 0 W/m² 8,5 °C 9,4 °C 4,8 km/h (1 Bft)
18.04.2025 05:28 21,6 °C 9,4 °C 53 % 94 % 1009,3 hPa 0,0 l/m² 2,4 km/h (1 Bft) W 277 ° 0 min 0 W/m² 8,5 °C 9,4 °C 4,8 km/h (1 Bft)
18.04.2025 05:29 21,6 °C 9,4 °C 53 % 94 % 1009,4 hPa 0,0 l/m² 3,0 km/h (1 Bft) W 280 ° 0 min 0 W/m² 8,5 °C 9,4 °C 4,8 km/h (1 Bft)
18.04.2025 05:31 21,6 °C 9,4 °C 53 % 94 % 1009,4 hPa 0,0 l/m² 2,1 km/h (1 Bft) W-NW 284 ° 0 min 0 W/m² 8,5 °C 9,4 °C 4,8 km/h (1 Bft)
18.04.2025 05:33 21,6 °C 9,4 °C 53 % 94 % 1009,3 hPa 0,0 l/m² 0,7 km/h (0 Bft) W-NW 284 ° 0 min 0 W/m² 8,5 °C 9,4 °C 1,6 km/h (1 Bft)
18.04.2025 05:34 21,6 °C 9,4 °C 53 % 94 % 1009,3 hPa 0,0 l/m² 2,1 km/h (1 Bft) NW 317 ° 0 min 0 W/m² 8,5 °C 9,4 °C 4,8 km/h (1 Bft)
18.04.2025 05:35 21,6 °C 9,4 °C 53 % 94 % 1009,3 hPa 0,0 l/m² 2,6 km/h (1 Bft) W-NW 302 ° 0 min 0 W/m² 8,5 °C 9,4 °C 4,8 km/h (1 Bft)
18.04.2025 05:36 21,6 °C 9,4 °C 53 % 94 % 1009,3 hPa 0,0 l/m² 1,5 km/h (1 Bft) NW 314 ° 0 min 0 W/m² 8,5 °C 9,4 °C 4,8 km/h (1 Bft)
18.04.2025 05:37 21,6 °C 9,4 °C 53 % 94 % 1009,3 hPa 0,0 l/m² 0,8 km/h (0 Bft) W-NW 301 ° 0 min 0 W/m² 8,5 °C 9,4 °C 3,2 km/h (1 Bft)
18.04.2025 05:38 21,6 °C 9,4 °C 53 % 94 % 1009,4 hPa 0,0 l/m² 0,2 km/h (0 Bft) W-NW 300 ° 0 min 0 W/m² 8,5 °C 9,4 °C 1,6 km/h (1 Bft)
18.04.2025 05:39 21,6 °C 9,4 °C 53 % 94 % 1009,4 hPa 0,0 l/m² 2,1 km/h (1 Bft) W 268 ° 0 min 0 W/m² 8,5 °C 9,4 °C 3,2 km/h (1 Bft)
18.04.2025 05:40 21,6 °C 9,4 °C 53 % 94 % 1009,5 hPa 0,0 l/m² 2,3 km/h (1 Bft) W 264 ° 0 min 0 W/m² 8,5 °C 9,4 °C 4,8 km/h (1 Bft)
18.04.2025 05:42 21,6 °C 9,4 °C 53 % 94 % 1009,5 hPa 0,0 l/m² 2,5 km/h (1 Bft) W 259 ° 0 min 0 W/m² 8,5 °C 9,4 °C 4,8 km/h (1 Bft)
18.04.2025 05:44 21,6 °C 9,4 °C 53 % 94 % 1009,5 hPa 0,0 l/m² 2,3 km/h (1 Bft) W-SW 258 ° 0 min 0 W/m² 8,5 °C 9,4 °C 3,2 km/h (1 Bft)
18.04.2025 05:45 21,6 °C 9,4 °C 53 % 94 % 1009,5 hPa 0,0 l/m² 1,4 km/h (1 Bft) W-SW 258 ° 0 min 0 W/m² 8,5 °C 9,4 °C 3,2 km/h (1 Bft)
18.04.2025 05:46 21,6 °C 9,4 °C 53 % 94 % 1009,5 hPa 0,0 l/m² 1,4 km/h (1 Bft) W 259 ° 0 min 0 W/m² 8,5 °C 9,4 °C 1,6 km/h (1 Bft)
18.04.2025 05:47 21,6 °C 9,4 °C 52 % 94 % 1009,4 hPa 0,0 l/m² 1,0 km/h (0 Bft) W 259 ° 0 min 0 W/m² 8,5 °C 9,4 °C 1,6 km/h (1 Bft)
18.04.2025 05:48 21,6 °C 9,4 °C 53 % 94 % 1009,4 hPa 0,0 l/m² 2,1 km/h (1 Bft) W-SW 258 ° 0 min 0 W/m² 8,5 °C 9,4 °C 3,2 km/h (1 Bft)
18.04.2025 05:49 21,6 °C 9,4 °C 52 % 94 % 1009,5 hPa 0,0 l/m² 1,8 km/h (1 Bft) W 259 ° 0 min 0 W/m² 8,5 °C 9,4 °C 3,2 km/h (1 Bft)
18.04.2025 05:50 21,6 °C 9,4 °C 52 % 94 % 1009,5 hPa 0,0 l/m² 1,3 km/h (1 Bft) W 259 ° 0 min 0 W/m² 8,5 °C 9,4 °C 3,2 km/h (1 Bft)
18.04.2025 05:52 21,6 °C 9,4 °C 52 % 94 % 1009,5 hPa 0,0 l/m² 0,0 km/h (0 Bft) W-SW 258 ° 0 min 0 W/m² 8,5 °C 9,4 °C 0,0 km/h (0 Bft)
18.04.2025 05:54 21,6 °C 9,4 °C 53 % 94 % 1009,5 hPa 0,0 l/m² 0,0 km/h (0 Bft) W 259 ° 0 min 0 W/m² 8,5 °C 9,4 °C 0,0 km/h (0 Bft)
18.04.2025 05:55 21,6 °C 9,4 °C 52 % 94 % 1009,6 hPa 0,0 l/m² 0,0 km/h (0 Bft) W-SW 258 ° 0 min 0 W/m² 8,5 °C 9,4 °C 0,0 km/h (0 Bft)
18.04.2025 05:56 21,6 °C 9,4 °C 53 % 94 % 1009,5 hPa 0,0 l/m² 0,0 km/h (0 Bft) W-SW 258 ° 0 min 0 W/m² 8,5 °C 9,4 °C 0,0 km/h (0 Bft)
18.04.2025 05:57 21,6 °C 9,4 °C 53 % 94 % 1009,6 hPa 0,0 l/m² 0,0 km/h (0 Bft) W-SW 258 ° 0 min 0 W/m² 8,5 °C 9,4 °C 0,0 km/h (0 Bft)
18.04.2025 05:58 21,6 °C 9,4 °C 52 % 94 % 1009,6 hPa 0,0 l/m² 0,4 km/h (0 Bft) W-SW 258 ° 0 min 0 W/m² 8,5 °C 9,4 °C 1,6 km/h (1 Bft)
18.04.2025 05:59 21,6 °C 9,4 °C 52 % 94 % 1009,7 hPa 0,0 l/m² 1,4 km/h (1 Bft) W-SW 258 ° 0 min 0 W/m² 8,5 °C 9,4 °C 3,2 km/h (1 Bft)
18.04.2025 06:00 21,6 °C 9,4 °C 52 % 94 % 1009,7 hPa 0,0 l/m² 1,9 km/h (1 Bft) W-SW 258 ° 0 min 0 W/m² 8,5 °C 9,4 °C 3,2 km/h (1 Bft)
18.04.2025 06:01 21,6 °C 9,4 °C 52 % 94 % 1009,8 hPa 0,0 l/m² 1,6 km/h (1 Bft) W-SW 258 ° 0 min 0 W/m² 8,5 °C 9,4 °C 3,2 km/h (1 Bft)
18.04.2025 06:02 21,6 °C 9,4 °C 52 % 94 % 1009,8 hPa 0,0 l/m² 0,2 km/h (0 Bft) W-SW 258 ° 0 min 0 W/m² 8,5 °C 9,4 °C 1,6 km/h (1 Bft)
18.04.2025 06:03 21,6 °C 9,4 °C 52 % 94 % 1009,7 hPa 0,0 l/m² 1,2 km/h (1 Bft) W-SW 258 ° 0 min 0 W/m² 8,5 °C 9,4 °C 1,6 km/h (1 Bft)
18.04.2025 06:04 21,6 °C 9,4 °C 53 % 94 % 1009,7 hPa 0,0 l/m² 0,2 km/h (0 Bft) W 259 ° 0 min 0 W/m² 8,5 °C 9,4 °C 1,6 km/h (1 Bft)
18.04.2025 06:05 21,6 °C 9,4 °C 52 % 94 % 1009,8 hPa 0,0 l/m² 0,0 km/h (0 Bft) W-SW 258 ° 0 min 0 W/m² 8,5 °C 9,4 °C 0,0 km/h (0 Bft)
18.04.2025 06:06 21,5 °C 9,5 °C 52 % 94 % 1009,7 hPa 0,0 l/m² 0,0 km/h (0 Bft) W-SW 258 ° 0 min 0 W/m² 8,6 °C 9,5 °C 0,0 km/h (0 Bft)
18.04.2025 06:07 21,6 °C 9,5 °C 52 % 94 % 1009,7 hPa 0,0 l/m² 1,5 km/h (1 Bft) W 259 ° 0 min 0 W/m² 8,6 °C 9,5 °C 3,2 km/h (1 Bft)
18.04.2025 06:08 21,6 °C 9,5 °C 52 % 94 % 1009,7 hPa 0,0 l/m² 1,5 km/h (1 Bft) W-SW 258 ° 0 min 0 W/m² 8,6 °C 9,5 °C 1,6 km/h (1 Bft)
18.04.2025 06:09 21,5 °C 9,5 °C 52 % 94 % 1009,6 hPa 0,0 l/m² 1,7 km/h (1 Bft) W 259 ° 0 min 0 W/m² 8,6 °C 9,5 °C 3,2 km/h (1 Bft)
18.04.2025 06:10 21,5 °C 9,5 °C 52 % 94 % 1009,5 hPa 0,0 l/m² 1,4 km/h (1 Bft) W 259 ° 0 min 0 W/m² 8,6 °C 9,5 °C 3,2 km/h (1 Bft)
18.04.2025 06:11 21,5 °C 9,4 °C 52 % 94 % 1009,6 hPa 0,0 l/m² 2,0 km/h (1 Bft) W 259 ° 0 min 0 W/m² 8,5 °C 9,4 °C 3,2 km/h (1 Bft)
18.04.2025 06:12 21,5 °C 9,5 °C 52 % 94 % 1009,6 hPa 0,0 l/m² 1,5 km/h (1 Bft) W 262 ° 0 min 0 W/m² 8,6 °C 9,5 °C 3,2 km/h (1 Bft)
18.04.2025 06:13 21,5 °C 9,5 °C 52 % 94 % 1009,6 hPa 0,0 l/m² 0,8 km/h (0 Bft) W 262 ° 0 min 0 W/m² 8,6 °C 9,5 °C 3,2 km/h (1 Bft)
18.04.2025 06:14 21,5 °C 9,5 °C 52 % 94 % 1009,5 hPa 0,0 l/m² 0,0 km/h (0 Bft) W 262 ° 0 min 0 W/m² 8,6 °C 9,5 °C 0,0 km/h (0 Bft)
18.04.2025 06:15 21,5 °C 9,5 °C 52 % 94 % 1009,6 hPa 0,0 l/m² 0,0 km/h (0 Bft) W 262 ° 0 min 0 W/m² 8,6 °C 9,5 °C 0,0 km/h (0 Bft)
18.04.2025 06:16 21,5 °C 9,6 °C 52 % 94 % 1009,5 hPa 0,0 l/m² 0,0 km/h (0 Bft) W 262 ° 0 min 0 W/m² 8,7 °C 9,6 °C 0,0 km/h (0 Bft)
18.04.2025 06:17 21,5 °C 9,6 °C 52 % 94 % 1009,5 hPa 0,0 l/m² 0,0 km/h (0 Bft) W 262 ° 0 min 0 W/m² 8,7 °C 9,6 °C 0,0 km/h (0 Bft)
18.04.2025 06:18 21,5 °C 9,6 °C 52 % 94 % 1009,5 hPa 0,0 l/m² 0,0 km/h (0 Bft) W 262 ° 0 min 0 W/m² 8,7 °C 9,6 °C 0,0 km/h (0 Bft)
18.04.2025 06:19 21,5 °C 9,6 °C 52 % 94 % 1009,5 hPa 0,0 l/m² 0,0 km/h (0 Bft) W 262 ° 0 min 0 W/m² 8,7 °C 9,6 °C 0,0 km/h (0 Bft)
18.04.2025 06:20 21,5 °C 9,6 °C 52 % 94 % 1009,5 hPa 0,0 l/m² 0,0 km/h (0 Bft) W 262 ° 0 min 0 W/m² 8,7 °C 9,6 °C 0,0 km/h (0 Bft)
18.04.2025 06:21 21,5 °C 9,6 °C 52 % 94 % 1009,5 hPa 0,0 l/m² 0,0 km/h (0 Bft) W 262 ° 0 min 0 W/m² 8,7 °C 9,6 °C 0,0 km/h (0 Bft)
18.04.2025 06:22 21,5 °C 9,5 °C 52 % 94 % 1009,5 hPa 0,0 l/m² 0,0 km/h (0 Bft) W 262 ° 0 min 0 W/m² 8,6 °C 9,5 °C 0,0 km/h (0 Bft)
18.04.2025 06:23 21,5 °C 9,6 °C 52 % 94 % 1009,7 hPa 0,0 l/m² 0,0 km/h (0 Bft) W 262 ° 0 min 0 W/m² 8,7 °C 9,6 °C 0,0 km/h (0 Bft)
18.04.2025 06:24 21,5 °C 9,6 °C 52 % 94 % 1009,6 hPa 0,0 l/m² 0,0 km/h (0 Bft) W 262 ° 0 min 0 W/m² 8,7 °C 9,6 °C 0,0 km/h (0 Bft)
18.04.2025 06:25 21,5 °C 9,6 °C 52 % 94 % 1009,6 hPa 0,0 l/m² 0,0 km/h (0 Bft) W 262 ° 0 min 0 W/m² 8,7 °C 9,6 °C 0,0 km/h (0 Bft)
18.04.2025 06:26 21,5 °C 9,6 °C 52 % 94 % 1009,7 hPa 0,0 l/m² 0,0 km/h (0 Bft) W 262 ° 0 min 0 W/m² 8,7 °C 9,6 °C 0,0 km/h (0 Bft)
18.04.2025 06:27 21,5 °C 9,6 °C 53 % 94 % 1009,7 hPa 0,0 l/m² 0,5 km/h (0 Bft) W 262 ° 0 min 0 W/m² 8,7 °C 9,6 °C 1,6 km/h (1 Bft)
18.04.2025 06:28 21,5 °C 9,6 °C 52 % 94 % 1009,6 hPa 0,0 l/m² 0,5 km/h (0 Bft) W 262 ° 0 min 0 W/m² 8,7 °C 9,6 °C 1,6 km/h (1 Bft)
18.04.2025 06:29 21,5 °C 9,6 °C 53 % 94 % 1009,7 hPa 0,0 l/m² 0,8 km/h (0 Bft) W 262 ° 0 min 0 W/m² 8,7 °C 9,6 °C 3,2 km/h (1 Bft)
18.04.2025 06:30 21,5 °C 9,6 °C 53 % 94 % 1009,7 hPa 0,0 l/m² 0,3 km/h (0 Bft) W 262 ° 0 min 0 W/m² 8,7 °C 9,6 °C 1,6 km/h (1 Bft)
18.04.2025 06:31 21,5 °C 9,6 °C 53 % 94 % 1009,7 hPa 0,0 l/m² 1,2 km/h (1 Bft) W 271 ° 0 min 0 W/m² 8,7 °C 9,6 °C 3,2 km/h (1 Bft)
18.04.2025 06:32 21,5 °C 9,6 °C 53 % 94 % 1009,8 hPa 0,0 l/m² 1,5 km/h (1 Bft) W 271 ° 0 min 0 W/m² 8,7 °C 9,6 °C 3,2 km/h (1 Bft)
18.04.2025 06:33 21,5 °C 9,6 °C 53 % 94 % 1009,7 hPa 0,0 l/m² 1,1 km/h (1 Bft) W 271 ° 0 min 0 W/m² 8,7 °C 9,6 °C 3,2 km/h (1 Bft)
18.04.2025 06:34 21,5 °C 9,5 °C 53 % 94 % 1009,7 hPa 0,0 l/m² 0,5 km/h (0 Bft) W 271 ° 0 min 0 W/m² 8,6 °C 9,5 °C 1,6 km/h (1 Bft)
18.04.2025 06:35 21,5 °C 9,6 °C 53 % 94 % 1009,7 hPa 0,0 l/m² 1,0 km/h (0 Bft) W 271 ° 0 min 0 W/m² 8,7 °C 9,6 °C 3,2 km/h (1 Bft)
18.04.2025 06:36 21,5 °C 9,6 °C 53 % 94 % 1009,8 hPa 0,0 l/m² 0,0 km/h (0 Bft) W 271 ° 0 min 0 W/m² 8,7 °C 9,6 °C 0,0 km/h (0 Bft)
18.04.2025 06:37 21,5 °C 9,6 °C 53 % 94 % 1009,8 hPa 0,0 l/m² 0,0 km/h (0 Bft) W 271 ° 0 min 0 W/m² 8,7 °C 9,6 °C 0,0 km/h (0 Bft)
18.04.2025 06:38 21,5 °C 9,6 °C 53 % 94 % 1009,8 hPa 0,0 l/m² 0,0 km/h (0 Bft) W 271 ° 0 min 0 W/m² 8,7 °C 9,6 °C 0,0 km/h (0 Bft)
18.04.2025 06:39 21,5 °C 9,6 °C 53 % 94 % 1009,9 hPa 0,0 l/m² 0,0 km/h (0 Bft) W 271 ° 0 min 0 W/m² 8,7 °C 9,6 °C 0,0 km/h (0 Bft)
18.04.2025 06:40 21,4 °C 9,5 °C 53 % 94 % 1009,9 hPa 0,0 l/m² 0,0 km/h (0 Bft) W 271 ° 0 min 0 W/m² 8,6 °C 9,5 °C 0,0 km/h (0 Bft)
18.04.2025 06:41 21,5 °C 9,5 °C 53 % 94 % 1009,9 hPa 0,0 l/m² 0,0 km/h (0 Bft) W 271 ° 0 min 0 W/m² 8,6 °C 9,5 °C 0,0 km/h (0 Bft)
18.04.2025 06:42 21,5 °C 9,5 °C 53 % 94 % 1009,9 hPa 0,0 l/m² 0,0 km/h (0 Bft) W 271 ° 0 min 0 W/m² 8,6 °C 9,5 °C 0,0 km/h (0 Bft)
18.04.2025 06:43 21,5 °C 9,5 °C 53 % 94 % 1009,9 hPa 0,0 l/m² 0,0 km/h (0 Bft) W 271 ° 0 min 0 W/m² 8,6 °C 9,5 °C 0,0 km/h (0 Bft)
18.04.2025 06:44 21,5 °C 9,5 °C 53 % 94 % 1010,0 hPa 0,0 l/m² 0,0 km/h (0 Bft) W 271 ° 0 min 0 W/m² 8,6 °C 9,5 °C 0,0 km/h (0 Bft)
18.04.2025 06:46 21,5 °C 9,6 °C 53 % 94 % 1010,0 hPa 0,0 l/m² 0,2 km/h (0 Bft) W 271 ° 0 min 0 W/m² 8,7 °C 9,6 °C 1,6 km/h (1 Bft)
18.04.2025 06:47 21,5 °C 9,6 °C 53 % 94 % 1009,9 hPa 0,0 l/m² 0,0 km/h (0 Bft) W 271 ° 0 min 0 W/m² 8,7 °C 9,6 °C 0,0 km/h (0 Bft)
18.04.2025 06:48 21,4 °C 9,5 °C 53 % 94 % 1009,9 hPa 0,0 l/m² 0,0 km/h (0 Bft) W 271 ° 0 min 0 W/m² 8,6 °C 9,5 °C 0,0 km/h (0 Bft)
18.04.2025 06:49 21,5 °C 9,6 °C 53 % 94 % 1010,0 hPa 0,0 l/m² 0,0 km/h (0 Bft) W 271 ° 0 min 0 W/m² 8,7 °C 9,6 °C 0,0 km/h (0 Bft)
18.04.2025 06:50 21,4 °C 9,6 °C 53 % 94 % 1010,0 hPa 0,0 l/m² 0,0 km/h (0 Bft) W 271 ° 0 min 0 W/m² 8,7 °C 9,6 °C 0,0 km/h (0 Bft)
18.04.2025 06:51 21,5 °C 9,6 °C 53 % 94 % 1010,0 hPa 0,0 l/m² 0,0 km/h (0 Bft) W 271 ° 0 min 0 W/m² 8,7 °C 9,6 °C 0,0 km/h (0 Bft)
18.04.2025 06:52 21,4 °C 9,6 °C 53 % 94 % 1010,1 hPa 0,0 l/m² 1,1 km/h (1 Bft) W 270 ° 0 min 0 W/m² 8,7 °C 9,6 °C 1,6 km/h (1 Bft)
18.04.2025 06:53 21,4 °C 9,6 °C 53 % 94 % 1010,0 hPa 0,0 l/m² 1,8 km/h (1 Bft) W 270 ° 0 min 0 W/m² 8,7 °C 9,6 °C 3,2 km/h (1 Bft)
18.04.2025 06:54 21,5 °C 9,6 °C 53 % 94 % 1010,0 hPa 0,0 l/m² 2,1 km/h (1 Bft) W 262 ° 0 min 5 W/m² 8,7 °C 9,6 °C 3,2 km/h (1 Bft)
18.04.2025 06:55 21,4 °C 9,6 °C 53 % 94 % 1010,1 hPa 0,0 l/m² 0,8 km/h (0 Bft) W 262 ° 0 min 5 W/m² 8,7 °C 9,6 °C 1,6 km/h (1 Bft)
18.04.2025 06:56 21,4 °C 9,6 °C 53 % 94 % 1010,1 hPa 0,0 l/m² 0,0 km/h (0 Bft) W 262 ° 0 min 5 W/m² 8,7 °C 9,6 °C 0,0 km/h (0 Bft)
18.04.2025 06:57 21,5 °C 9,5 °C 53 % 94 % 1010,1 hPa 0,0 l/m² 0,0 km/h (0 Bft) W 262 ° 0 min 0 W/m² 8,6 °C 9,5 °C 0,0 km/h (0 Bft)
18.04.2025 06:58 21,5 °C 9,6 °C 53 % 94 % 1010,1 hPa 0,0 l/m² 0,0 km/h (0 Bft) W 262 ° 0 min 0 W/m² 8,7 °C 9,6 °C 0,0 km/h (0 Bft)
18.04.2025 06:59 21,5 °C 9,5 °C 53 % 94 % 1010,1 hPa 0,0 l/m² 1,1 km/h (1 Bft) W 262 ° 0 min 0 W/m² 8,6 °C 9,5 °C 3,2 km/h (1 Bft)
18.04.2025 07:00 21,5 °C 9,6 °C 53 % 94 % 1010,1 hPa 0,0 l/m² 1,9 km/h (1 Bft) W 262 ° 0 min 0 W/m² 8,7 °C 9,6 °C 3,2 km/h (1 Bft)
18.04.2025 07:01 21,5 °C 9,5 °C 53 % 94 % 1010,1 hPa 0,0 l/m² 2,5 km/h (1 Bft) W 259 ° 0 min 0 W/m² 8,6 °C 9,5 °C 4,8 km/h (1 Bft)
18.04.2025 07:02 21,5 °C 9,6 °C 53 % 94 % 1010,1 hPa 0,0 l/m² 2,3 km/h (1 Bft) W 259 ° 0 min 0 W/m² 8,7 °C 9,6 °C 3,2 km/h (1 Bft)
18.04.2025 07:03 21,5 °C 9,6 °C 53 % 94 % 1010,2 hPa 0,0 l/m² 2,8 km/h (1 Bft) W-SW 254 ° 0 min 0 W/m² 8,7 °C 9,6 °C 3,2 km/h (1 Bft)
18.04.2025 07:04 21,5 °C 9,5 °C 53 % 94 % 1010,1 hPa 0,0 l/m² 3,4 km/h (1 Bft) W-SW 254 ° 0 min 0 W/m² 8,6 °C 9,5 °C 4,8 km/h (1 Bft)
18.04.2025 07:05 21,5 °C 9,5 °C 53 % 94 % 1010,2 hPa 0,0 l/m² 3,5 km/h (1 Bft) W-SW 251 ° 0 min 0 W/m² 8,6 °C 9,5 °C 4,8 km/h (1 Bft)
18.04.2025 07:06 21,5 °C 9,5 °C 53 % 94 % 1010,2 hPa 0,0 l/m² 2,9 km/h (1 Bft) W-SW 245 ° 0 min 0 W/m² 8,6 °C 9,5 °C 4,8 km/h (1 Bft)
18.04.2025 07:07 21,4 °C 9,6 °C 53 % 94 % 1010,2 hPa 0,0 l/m² 3,4 km/h (1 Bft) W-SW 242 ° 0 min 0 W/m² 8,7 °C 9,6 °C 4,8 km/h (1 Bft)
18.04.2025 07:08 21,5 °C 9,5 °C 53 % 94 % 1010,1 hPa 0,0 l/m² 2,6 km/h (1 Bft) SW 227 ° 0 min 0 W/m² 8,6 °C 9,5 °C 3,2 km/h (1 Bft)
18.04.2025 07:09 21,4 °C 9,6 °C 53 % 94 % 1010,1 hPa 0,0 l/m² 3,2 km/h (1 Bft) W-SW 238 ° 0 min 5 W/m² 8,7 °C 9,6 °C 6,4 km/h (2 Bft)
18.04.2025 07:10 21,5 °C 9,5 °C 53 % 94 % 1010,2 hPa 0,0 l/m² 4,6 km/h (1 Bft) W-SW 247 ° 0 min 5 W/m² 8,6 °C 9,5 °C 8,0 km/h (2 Bft)
18.04.2025 07:11 21,5 °C 9,6 °C 53 % 94 % 1010,1 hPa 0,0 l/m² 7,6 km/h (2 Bft) W-SW 241 ° 0 min 5 W/m² 8,7 °C 8,7 °C 9,7 km/h (2 Bft)
18.04.2025 07:12 21,5 °C 9,5 °C 53 % 94 % 1010,1 hPa 0,0 l/m² 3,8 km/h (1 Bft) SW 236 ° 0 min 5 W/m² 8,6 °C 9,5 °C 6,4 km/h (2 Bft)
18.04.2025 07:13 21,5 °C 9,4 °C 53 % 94 % 1010,1 hPa 0,0 l/m² 7,2 km/h (2 Bft) W-SW 244 ° 0 min 5 W/m² 8,5 °C 8,8 °C 12,9 km/h (3 Bft)
18.04.2025 07:14 21,5 °C 9,4 °C 53 % 94 % 1010,1 hPa 0,0 l/m² 7,3 km/h (2 Bft) W-SW 248 ° 0 min 5 W/m² 8,5 °C 8,7 °C 8,0 km/h (2 Bft)
18.04.2025 07:15 21,5 °C 9,4 °C 53 % 94 % 1010,1 hPa 0,0 l/m² 6,5 km/h (2 Bft) W-SW 245 ° 0 min 5 W/m² 8,5 °C 9,4 °C 8,0 km/h (2 Bft)
18.04.2025 07:16 21,5 °C 9,3 °C 53 % 94 % 1010,1 hPa 0,0 l/m² 7,0 km/h (2 Bft) W-SW 237 ° 0 min 5 W/m² 8,4 °C 8,9 °C 8,0 km/h (2 Bft)
18.04.2025 07:17 21,6 °C 9,3 °C 53 % 94 % 1010,1 hPa 0,0 l/m² 6,1 km/h (2 Bft) W-SW 247 ° 0 min 5 W/m² 8,4 °C 9,3 °C 8,0 km/h (2 Bft)
18.04.2025 07:18 21,5 °C 9,3 °C 53 % 94 % 1010,2 hPa 0,0 l/m² 5,4 km/h (2 Bft) W-SW 248 ° 0 min 7 W/m² 8,4 °C 9,3 °C 9,7 km/h (2 Bft)
18.04.2025 07:19 21,5 °C 9,3 °C 53 % 94 % 1010,1 hPa 0,0 l/m² 8,5 km/h (2 Bft) W-SW 245 ° 0 min 7 W/m² 8,4 °C 7,8 °C 11,3 km/h (2 Bft)
18.04.2025 07:20 21,5 °C 9,3 °C 53 % 94 % 1010,2 hPa 0,0 l/m² 7,9 km/h (2 Bft) W-SW 242 ° 0 min 7 W/m² 8,4 °C 8,2 °C 11,3 km/h (2 Bft)
18.04.2025 07:21 21,6 °C 9,3 °C 53 % 94 % 1010,1 hPa 0,0 l/m² 8,0 km/h (2 Bft) W-SW 241 ° 0 min 7 W/m² 8,4 °C 8,1 °C 11,3 km/h (2 Bft)
18.04.2025 07:22 21,5 °C 9,3 °C 53 % 94 % 1010,2 hPa 0,0 l/m² 6,6 km/h (2 Bft) W-SW 243 ° 0 min 7 W/m² 8,4 °C 9,2 °C 9,7 km/h (2 Bft)
18.04.2025 07:23 21,5 °C 9,3 °C 53 % 94 % 1010,2 hPa 0,0 l/m² 7,8 km/h (2 Bft) W-SW 241 ° 0 min 7 W/m² 8,4 °C 8,3 °C 11,3 km/h (2 Bft)
18.04.2025 07:24 21,5 °C 9,3 °C 53 % 94 % 1010,2 hPa 0,0 l/m² 7,2 km/h (2 Bft) W-SW 237 ° 0 min 9 W/m² 8,4 °C 8,7 °C 11,3 km/h (2 Bft)
18.04.2025 07:25 21,6 °C 9,3 °C 53 % 94 % 1010,2 hPa 0,0 l/m² 6,6 km/h (2 Bft) W-SW 252 ° 0 min 11 W/m² 8,4 °C 9,2 °C 8,0 km/h (2 Bft)
18.04.2025 07:26 21,5 °C 9,3 °C 53 % 94 % 1010,1 hPa 0,0 l/m² 4,3 km/h (1 Bft) W-SW 238 ° 0 min 11 W/m² 8,4 °C 9,3 °C 6,4 km/h (2 Bft)
18.04.2025 07:27 21,6 °C 9,3 °C 53 % 94 % 1010,1 hPa 0,0 l/m² 6,8 km/h (2 Bft) W-SW 241 ° 0 min 12 W/m² 8,4 °C 9,0 °C 9,7 km/h (2 Bft)
18.04.2025 07:28 21,6 °C 9,3 °C 53 % 94 % 1010,1 hPa 0,0 l/m² 6,5 km/h (2 Bft) SW 227 ° 0 min 12 W/m² 8,4 °C 9,3 °C 11,3 km/h (2 Bft)
18.04.2025 07:29 21,6 °C 9,3 °C 53 % 94 % 1010,1 hPa 0,0 l/m² 5,4 km/h (2 Bft) W-SW 237 ° 0 min 11 W/m² 8,4 °C 9,3 °C 8,0 km/h (2 Bft)
18.04.2025 07:30 21,6 °C 9,3 °C 53 % 94 % 1010,1 hPa 0,0 l/m² 4,4 km/h (1 Bft) SW 227 ° 0 min 11 W/m² 8,4 °C 9,3 °C 8,0 km/h (2 Bft)
18.04.2025 07:31 21,6 °C 9,3 °C 53 % 94 % 1010,0 hPa 0,0 l/m² 5,5 km/h (2 Bft) W-SW 238 ° 0 min 12 W/m² 8,4 °C 9,3 °C 8,0 km/h (2 Bft)
18.04.2025 07:32 21,6 °C 9,3 °C 53 % 94 % 1010,0 hPa 0,0 l/m² 5,0 km/h (1 Bft) W-SW 255 ° 0 min 12 W/m² 8,4 °C 9,3 °C 6,4 km/h (2 Bft)
18.04.2025 07:33 21,5 °C 9,3 °C 53 % 94 % 1010,1 hPa 0,0 l/m² 4,7 km/h (1 Bft) W-SW 244 ° 0 min 14 W/m² 8,4 °C 9,3 °C 6,4 km/h (2 Bft)
18.04.2025 07:34 21,5 °C 9,3 °C 53 % 94 % 1010,1 hPa 0,0 l/m² 7,6 km/h (2 Bft) W-SW 254 ° 0 min 14 W/m² 8,4 °C 8,4 °C 11,3 km/h (2 Bft)
18.04.2025 07:35 21,6 °C 9,3 °C 53 % 94 % 1010,0 hPa 0,0 l/m² 5,6 km/h (2 Bft) W-SW 251 ° 0 min 16 W/m² 8,4 °C 9,3 °C 8,0 km/h (2 Bft)
18.04.2025 07:36 21,6 °C 9,3 °C 53 % 94 % 1010,0 hPa 0,0 l/m² 7,6 km/h (2 Bft) SW 236 ° 0 min 16 W/m² 8,4 °C 8,4 °C 11,3 km/h (2 Bft)
18.04.2025 07:37 21,5 °C 9,3 °C 53 % 94 % 1010,0 hPa 0,0 l/m² 6,7 km/h (2 Bft) W 259 ° 0 min 16 W/m² 8,4 °C 9,1 °C 9,7 km/h (2 Bft)
18.04.2025 07:38 21,6 °C 9,3 °C 53 % 93 % 1010,1 hPa 0,0 l/m² 6,1 km/h (2 Bft) SW 221 ° 0 min 16 W/m² 8,2 °C 9,3 °C 8,0 km/h (2 Bft)
18.04.2025 07:39 21,5 °C 9,3 °C 53 % 93 % 1010,1 hPa 0,0 l/m² 7,4 km/h (2 Bft) SW 236 ° 0 min 16 W/m² 8,2 °C 8,6 °C 9,7 km/h (2 Bft)
18.04.2025 07:40 21,5 °C 9,3 °C 53 % 93 % 1010,1 hPa 0,0 l/m² 4,8 km/h (1 Bft) W-SW 243 ° 0 min 14 W/m² 8,2 °C 9,3 °C 6,4 km/h (2 Bft)
18.04.2025 07:41 21,6 °C 9,3 °C 53 % 93 % 1010,2 hPa 0,0 l/m² 5,3 km/h (1 Bft) SW 233 ° 0 min 14 W/m² 8,2 °C 9,3 °C 8,0 km/h (2 Bft)
18.04.2025 07:42 21,6 °C 9,3 °C 53 % 93 % 1010,2 hPa 0,0 l/m² 4,3 km/h (1 Bft) SW 236 ° 0 min 12 W/m² 8,2 °C 9,3 °C 6,4 km/h (2 Bft)
18.04.2025 07:43 21,5 °C 9,3 °C 53 % 93 % 1010,1 hPa 0,0 l/m² 6,8 km/h (2 Bft) W-SW 243 ° 0 min 12 W/m² 8,2 °C 9,0 °C 8,0 km/h (2 Bft)
18.04.2025 07:44 21,6 °C 9,3 °C 53 % 93 % 1010,2 hPa 0,0 l/m² 3,7 km/h (1 Bft) W-SW 246 ° 0 min 12 W/m² 8,2 °C 9,3 °C 4,8 km/h (1 Bft)
18.04.2025 07:45 21,6 °C 9,3 °C 53 % 93 % 1010,2 hPa 0,0 l/m² 4,5 km/h (1 Bft) W-SW 240 ° 0 min 12 W/m² 8,2 °C 9,3 °C 6,4 km/h (2 Bft)
18.04.2025 07:46 21,6 °C 9,3 °C 53 % 93 % 1010,2 hPa 0,0 l/m² 4,4 km/h (1 Bft) SW 236 ° 0 min 12 W/m² 8,2 °C 9,3 °C 6,4 km/h (2 Bft)
18.04.2025 07:47 21,6 °C 9,3 °C 53 % 93 % 1010,2 hPa 0,0 l/m² 4,4 km/h (1 Bft) W-SW 243 ° 0 min 11 W/m² 8,2 °C 9,3 °C 6,4 km/h (2 Bft)
18.04.2025 07:48 21,5 °C 9,3 °C 53 % 93 % 1010,2 hPa 0,0 l/m² 3,9 km/h (1 Bft) W-SW 239 ° 0 min 11 W/m² 8,2 °C 9,3 °C 4,8 km/h (1 Bft)
18.04.2025 07:49 21,5 °C 9,3 °C 53 % 93 % 1010,3 hPa 0,0 l/m² 3,2 km/h (1 Bft) W-SW 253 ° 0 min 11 W/m² 8,2 °C 9,3 °C 6,4 km/h (2 Bft)
18.04.2025 07:50 21,6 °C 9,3 °C 53 % 93 % 1010,3 hPa 0,0 l/m² 3,8 km/h (1 Bft) W-SW 240 ° 0 min 11 W/m² 8,2 °C 9,3 °C 6,4 km/h (2 Bft)
18.04.2025 07:51 21,5 °C 9,3 °C 53 % 93 % 1010,4 hPa 0,0 l/m² 4,9 km/h (1 Bft) SW 226 ° 0 min 12 W/m² 8,2 °C 9,3 °C 8,0 km/h (2 Bft)
18.04.2025 07:52 21,5 °C 9,4 °C 53 % 93 % 1010,4 hPa 0,0 l/m² 5,8 km/h (2 Bft) W-SW 238 ° 0 min 12 W/m² 8,3 °C 9,4 °C 8,0 km/h (2 Bft)
18.04.2025 07:53 21,6 °C 9,3 °C 53 % 93 % 1010,4 hPa 0,0 l/m² 7,5 km/h (2 Bft) SW 227 ° 0 min 16 W/m² 8,2 °C 8,5 °C 11,3 km/h (2 Bft)
18.04.2025 07:54 21,6 °C 9,3 °C 53 % 93 % 1010,4 hPa 0,0 l/m² 7,6 km/h (2 Bft) W-SW 238 ° 0 min 16 W/m² 8,2 °C 8,4 °C 11,3 km/h (2 Bft)
18.04.2025 07:55 21,6 °C 9,3 °C 53 % 93 % 1010,4 hPa 0,0 l/m² 8,2 km/h (2 Bft) SW 224 ° 0 min 16 W/m² 8,2 °C 8,0 °C 12,9 km/h (3 Bft)
18.04.2025 07:56 21,6 °C 9,3 °C 53 % 93 % 1010,4 hPa 0,0 l/m² 5,2 km/h (1 Bft) W-SW 240 ° 0 min 16 W/m² 8,2 °C 9,3 °C 8,0 km/h (2 Bft)
18.04.2025 07:57 21,6 °C 9,3 °C 53 % 93 % 1010,4 hPa 0,0 l/m² 5,3 km/h (1 Bft) W-SW 248 ° 0 min 16 W/m² 8,2 °C 9,3 °C 8,0 km/h (2 Bft)
18.04.2025 07:58 21,6 °C 9,3 °C 53 % 93 % 1010,4 hPa 0,0 l/m² 5,3 km/h (1 Bft) W-SW 242 ° 0 min 16 W/m² 8,2 °C 9,3 °C 6,4 km/h (2 Bft)
18.04.2025 07:59 21,6 °C 9,3 °C 53 % 93 % 1010,5 hPa 0,0 l/m² 5,8 km/h (2 Bft) W-SW 238 ° 0 min 18 W/m² 8,2 °C 9,3 °C 8,0 km/h (2 Bft)
18.04.2025 08:00 21,6 °C 9,3 °C 53 % 93 % 1010,5 hPa 0,0 l/m² 4,7 km/h (1 Bft) W-SW 252 ° 0 min 18 W/m² 8,2 °C 9,3 °C 8,0 km/h (2 Bft)
18.04.2025 08:01 21,5 °C 9,4 °C 53 % 93 % 1010,5 hPa 0,0 l/m² 6,4 km/h (2 Bft) W-SW 250 ° 0 min 18 W/m² 8,3 °C 9,4 °C 11,3 km/h (2 Bft)
18.04.2025 08:02 21,6 °C 9,3 °C 53 % 93 % 1010,5 hPa 0,0 l/m² 6,2 km/h (2 Bft) W 262 ° 0 min 18 W/m² 8,2 °C 9,3 °C 8,0 km/h (2 Bft)
18.04.2025 08:03 21,6 °C 9,4 °C 53 % 93 % 1010,4 hPa 0,0 l/m² 5,9 km/h (2 Bft) W-SW 242 ° 0 min 19 W/m² 8,3 °C 9,4 °C 6,4 km/h (2 Bft)
18.04.2025 08:04 21,5 °C 9,4 °C 53 % 93 % 1010,4 hPa 0,0 l/m² 9,6 km/h (2 Bft) W-SW 242 ° 0 min 19 W/m² 8,3 °C 7,2 °C 12,9 km/h (3 Bft)
18.04.2025 08:05 21,6 °C 9,4 °C 53 % 93 % 1010,4 hPa 0,0 l/m² 8,1 km/h (2 Bft) W-SW 244 ° 0 min 21 W/m² 8,3 °C 8,2 °C 11,3 km/h (2 Bft)
18.04.2025 08:06 21,6 °C 9,4 °C 53 % 93 % 1010,3 hPa 0,0 l/m² 9,2 km/h (2 Bft) W 263 ° 0 min 23 W/m² 8,3 °C 7,4 °C 12,9 km/h (3 Bft)
18.04.2025 08:07 21,5 °C 9,4 °C 53 % 92 % 1010,4 hPa 0,0 l/m² 10,2 km/h (2 Bft) W-SW 246 ° 0 min 25 W/m² 8,2 °C 6,8 °C 14,5 km/h (3 Bft)
18.04.2025 08:08 21,6 °C 9,4 °C 53 % 92 % 1010,3 hPa 0,0 l/m² 7,2 km/h (2 Bft) W-SW 252 ° 0 min 25 W/m² 8,2 °C 8,8 °C 11,3 km/h (2 Bft)
18.04.2025 08:09 21,6 °C 9,4 °C 53 % 92 % 1010,3 hPa 0,0 l/m² 7,8 km/h (2 Bft) W-SW 242 ° 0 min 26 W/m² 8,2 °C 8,4 °C 12,9 km/h (3 Bft)
18.04.2025 08:10 21,6 °C 9,3 °C 53 % 92 % 1010,3 hPa 0,0 l/m² 11,1 km/h (2 Bft) W 269 ° 0 min 26 W/m² 8,1 °C 6,2 °C 14,5 km/h (3 Bft)
18.04.2025 08:11 21,6 °C 9,4 °C 53 % 92 % 1010,3 hPa 0,0 l/m² 12,8 km/h (3 Bft) W 260 ° 0 min 30 W/m² 8,2 °C 5,4 °C 16,1 km/h (3 Bft)
18.04.2025 08:12 21,6 °C 9,4 °C 53 % 92 % 1010,3 hPa 0,0 l/m² 10,1 km/h (2 Bft) W-SW 244 ° 0 min 32 W/m² 8,2 °C 6,9 °C 16,1 km/h (3 Bft)
18.04.2025 08:13 21,6 °C 9,4 °C 53 % 92 % 1010,3 hPa 0,0 l/m² 11,3 km/h (2 Bft) W 265 ° 0 min 33 W/m² 8,2 °C 6,2 °C 14,5 km/h (3 Bft)
18.04.2025 08:14 21,6 °C 9,4 °C 53 % 92 % 1010,2 hPa 0,0 l/m² 12,8 km/h (3 Bft) W 272 ° 0 min 35 W/m² 8,2 °C 5,4 °C 17,7 km/h (3 Bft)
18.04.2025 08:15 21,6 °C 9,4 °C 53 % 92 % 1010,2 hPa 0,0 l/m² 11,6 km/h (2 Bft) W-SW 252 ° 0 min 37 W/m² 8,2 °C 6,0 °C 14,5 km/h (3 Bft)
18.04.2025 08:16 21,6 °C 9,4 °C 53 % 92 % 1010,2 hPa 0,0 l/m² 12,4 km/h (2 Bft) W-SW 248 ° 0 min 39 W/m² 8,2 °C 5,6 °C 14,5 km/h (3 Bft)
18.04.2025 08:17 21,6 °C 9,4 °C 53 % 92 % 1010,2 hPa 0,0 l/m² 10,6 km/h (2 Bft) W-SW 252 ° 0 min 40 W/m² 8,2 °C 6,6 °C 14,5 km/h (3 Bft)
18.04.2025 08:18 21,6 °C 9,4 °C 53 % 92 % 1010,2 hPa 0,0 l/m² 9,8 km/h (2 Bft) W-SW 247 ° 0 min 42 W/m² 8,2 °C 7,1 °C 12,9 km/h (3 Bft)
18.04.2025 08:19 21,6 °C 9,4 °C 53 % 92 % 1010,2 hPa 0,0 l/m² 8,0 km/h (2 Bft) W-SW 253 ° 0 min 42 W/m² 8,2 °C 8,2 °C 12,9 km/h (3 Bft)
18.04.2025 08:20 21,6 °C 9,5 °C 53 % 92 % 1010,2 hPa 0,0 l/m² 6,8 km/h (2 Bft) W-SW 252 ° 0 min 44 W/m² 8,3 °C 9,2 °C 11,3 km/h (2 Bft)
18.04.2025 08:21 21,6 °C 9,5 °C 53 % 92 % 1010,2 hPa 0,0 l/m² 6,7 km/h (2 Bft) W-SW 252 ° 0 min 44 W/m² 8,3 °C 9,3 °C 11,3 km/h (2 Bft)
18.04.2025 08:22 21,6 °C 9,5 °C 53 % 92 % 1010,2 hPa 0,0 l/m² 6,4 km/h (2 Bft) W 271 ° 0 min 44 W/m² 8,3 °C 9,5 °C 14,5 km/h (3 Bft)
18.04.2025 08:23 21,6 °C 9,5 °C 53 % 92 % 1010,3 hPa 0,0 l/m² 5,9 km/h (2 Bft) W 273 ° 0 min 44 W/m² 8,3 °C 9,5 °C 9,7 km/h (2 Bft)
18.04.2025 08:24 21,6 °C 9,6 °C 53 % 92 % 1010,2 hPa 0,0 l/m² 4,0 km/h (1 Bft) W-SW 252 ° 0 min 44 W/m² 8,4 °C 9,6 °C 11,3 km/h (2 Bft)
18.04.2025 08:25 21,6 °C 9,6 °C 53 % 92 % 1010,2 hPa 0,0 l/m² 1,7 km/h (1 Bft) W 279 ° 0 min 47 W/m² 8,4 °C 9,6 °C 4,8 km/h (1 Bft)
18.04.2025 08:26 21,6 °C 9,6 °C 53 % 92 % 1010,3 hPa 0,0 l/m² 4,2 km/h (1 Bft) NW 325 ° 0 min 49 W/m² 8,4 °C 9,6 °C 11,3 km/h (2 Bft)
18.04.2025 08:27 21,6 °C 9,6 °C 53 % 92 % 1010,3 hPa 0,0 l/m² 3,1 km/h (1 Bft) W-NW 284 ° 1 min 53 W/m² 8,4 °C 9,6 °C 6,4 km/h (2 Bft)
18.04.2025 08:28 21,6 °C 9,6 °C 53 % 92 % 1010,3 hPa 0,0 l/m² 5,0 km/h (1 Bft) W 277 ° 1 min 54 W/m² 8,4 °C 9,6 °C 6,4 km/h (2 Bft)
18.04.2025 08:29 21,6 °C 9,6 °C 53 % 92 % 1010,3 hPa 0,0 l/m² 1,7 km/h (1 Bft) W-NW 300 ° 1 min 60 W/m² 8,4 °C 9,6 °C 6,4 km/h (2 Bft)
18.04.2025 08:30 21,6 °C 9,6 °C 53 % 92 % 1010,3 hPa 0,0 l/m² 1,3 km/h (1 Bft) W-NW 298 ° 1 min 60 W/m² 8,4 °C 9,6 °C 6,4 km/h (2 Bft)
18.04.2025 08:31 21,6 °C 9,6 °C 53 % 92 % 1010,3 hPa 0,0 l/m² 3,2 km/h (1 Bft) W 273 ° 1 min 60 W/m² 8,4 °C 9,6 °C 6,4 km/h (2 Bft)
18.04.2025 08:32 21,6 °C 9,6 °C 53 % 92 % 1010,3 hPa 0,0 l/m² 4,1 km/h (1 Bft) W-NW 302 ° 1 min 58 W/m² 8,4 °C 9,6 °C 6,4 km/h (2 Bft)
18.04.2025 08:33 21,6 °C 9,6 °C 53 % 92 % 1010,4 hPa 0,0 l/m² 5,2 km/h (1 Bft) W 279 ° 1 min 56 W/m² 8,4 °C 9,6 °C 11,3 km/h (2 Bft)
18.04.2025 08:34 21,6 °C 9,6 °C 53 % 92 % 1010,4 hPa 0,0 l/m² 4,4 km/h (1 Bft) W 273 ° 1 min 56 W/m² 8,4 °C 9,6 °C 6,4 km/h (2 Bft)
18.04.2025 08:35 21,6 °C 9,6 °C 53 % 92 % 1010,4 hPa 0,0 l/m² 6,2 km/h (2 Bft) W 265 ° 1 min 58 W/m² 8,4 °C 9,6 °C 9,7 km/h (2 Bft)
18.04.2025 08:36 21,6 °C 9,7 °C 53 % 92 % 1010,4 hPa 0,0 l/m² 4,8 km/h (1 Bft) W 276 ° 1 min 56 W/m² 8,5 °C 9,7 °C 8,0 km/h (2 Bft)
18.04.2025 08:37 21,6 °C 9,7 °C 53 % 92 % 1010,4 hPa 0,0 l/m² 1,8 km/h (1 Bft) W 280 ° 1 min 53 W/m² 8,5 °C 9,7 °C 4,8 km/h (1 Bft)
18.04.2025 08:38 21,6 °C 9,7 °C 53 % 92 % 1010,4 hPa 0,0 l/m² 3,2 km/h (1 Bft) W-NW 289 ° 0 min 49 W/m² 8,5 °C 9,7 °C 6,4 km/h (2 Bft)
18.04.2025 08:39 21,6 °C 9,7 °C 53 % 92 % 1010,4 hPa 0,0 l/m² 4,7 km/h (1 Bft) NW 311 ° 0 min 47 W/m² 8,5 °C 9,7 °C 9,7 km/h (2 Bft)
18.04.2025 08:40 21,6 °C 9,7 °C 53 % 92 % 1010,5 hPa 0,0 l/m² 7,4 km/h (2 Bft) W-NW 283 ° 0 min 47 W/m² 8,5 °C 9,0 °C 12,9 km/h (3 Bft)
18.04.2025 08:41 21,6 °C 9,7 °C 54 % 92 % 1010,4 hPa 0,0 l/m² 6,6 km/h (2 Bft) W 280 ° 0 min 46 W/m² 8,5 °C 9,6 °C 12,9 km/h (3 Bft)
18.04.2025 08:42 21,6 °C 9,7 °C 54 % 92 % 1010,4 hPa 0,0 l/m² 4,2 km/h (1 Bft) W 267 ° 0 min 44 W/m² 8,5 °C 9,7 °C 9,7 km/h (2 Bft)
18.04.2025 08:43 21,6 °C 9,6 °C 54 % 91 % 1010,4 hPa 0,0 l/m² 5,3 km/h (1 Bft) NW 316 ° 0 min 46 W/m² 8,2 °C 9,6 °C 11,3 km/h (2 Bft)
18.04.2025 08:44 21,6 °C 9,6 °C 54 % 91 % 1010,4 hPa 0,0 l/m² 7,9 km/h (2 Bft) NW 314 ° 0 min 51 W/m² 8,2 °C 8,5 °C 12,9 km/h (3 Bft)
18.04.2025 08:45 21,6 °C 9,6 °C 54 % 91 % 1010,4 hPa 0,0 l/m² 4,7 km/h (1 Bft) W 273 ° 1 min 54 W/m² 8,2 °C 9,6 °C 11,3 km/h (2 Bft)
18.04.2025 08:46 21,6 °C 9,6 °C 54 % 92 % 1010,4 hPa 0,0 l/m² 5,4 km/h (2 Bft) W-NW 287 ° 1 min 54 W/m² 8,4 °C 9,6 °C 11,3 km/h (2 Bft)
18.04.2025 08:47 21,6 °C 9,6 °C 54 % 92 % 1010,4 hPa 0,0 l/m² 2,6 km/h (1 Bft) W-NW 284 ° 1 min 54 W/m² 8,4 °C 9,6 °C 4,8 km/h (1 Bft)
18.04.2025 08:48 21,6 °C 9,6 °C 54 % 92 % 1010,4 hPa 0,0 l/m² 4,0 km/h (1 Bft) NW 318 ° 1 min 53 W/m² 8,4 °C 9,6 °C 6,4 km/h (2 Bft)
18.04.2025 08:49 21,6 °C 9,6 °C 54 % 92 % 1010,4 hPa 0,0 l/m² 5,0 km/h (1 Bft) W-NW 285 ° 0 min 49 W/m² 8,4 °C 9,6 °C 12,9 km/h (3 Bft)
18.04.2025 08:50 21,6 °C 9,6 °C 54 % 91 % 1010,5 hPa 0,0 l/m² 5,0 km/h (1 Bft) W-NW 284 ° 0 min 42 W/m² 8,2 °C 9,6 °C 11,3 km/h (2 Bft)
18.04.2025 08:51 21,6 °C 9,6 °C 54 % 91 % 1010,5 hPa 0,0 l/m² 9,5 km/h (2 Bft) W 272 ° 0 min 37 W/m² 8,2 °C 7,5 °C 14,5 km/h (3 Bft)
18.04.2025 08:52 21,6 °C 9,6 °C 54 % 91 % 1010,4 hPa 0,0 l/m² 5,1 km/h (1 Bft) W-NW 284 ° 0 min 33 W/m² 8,2 °C 9,6 °C 11,3 km/h (2 Bft)
18.04.2025 08:53 21,6 °C 9,6 °C 54 % 91 % 1010,4 hPa 0,0 l/m² 8,1 km/h (2 Bft) W 261 ° 0 min 33 W/m² 8,2 °C 8,4 °C 14,5 km/h (3 Bft)
18.04.2025 08:54 21,7 °C 9,6 °C 54 % 91 % 1010,5 hPa 0,0 l/m² 1,9 km/h (1 Bft) W-NW 286 ° 0 min 32 W/m² 8,2 °C 9,6 °C 4,8 km/h (1 Bft)
18.04.2025 08:55 21,7 °C 9,6 °C 54 % 91 % 1010,5 hPa 0,0 l/m² 5,4 km/h (2 Bft) W 271 ° 0 min 32 W/m² 8,2 °C 9,6 °C 11,3 km/h (2 Bft)
18.04.2025 08:56 21,6 °C 9,6 °C 54 % 91 % 1010,5 hPa 0,0 l/m² 5,9 km/h (2 Bft) W 267 ° 0 min 32 W/m² 8,2 °C 9,6 °C 11,3 km/h (2 Bft)
18.04.2025 08:57 21,7 °C 9,6 °C 54 % 91 % 1010,6 hPa 0,0 l/m² 6,4 km/h (2 Bft) W 278 ° 0 min 30 W/m² 8,2 °C 9,6 °C 12,9 km/h (3 Bft)
18.04.2025 08:58 21,6 °C 9,6 °C 54 % 91 % 1010,6 hPa 0,0 l/m² 8,6 km/h (2 Bft) W 279 ° 0 min 28 W/m² 8,2 °C 8,0 °C 16,1 km/h (3 Bft)
18.04.2025 08:59 21,7 °C 9,5 °C 54 % 91 % 1010,5 hPa 0,0 l/m² 13,5 km/h (3 Bft) W 276 ° 0 min 26 W/m² 8,1 °C 5,2 °C 16,1 km/h (3 Bft)
18.04.2025 09:00 21,6 °C 9,5 °C 54 % 91 % 1010,5 hPa 0,0 l/m² 10,4 km/h (2 Bft) W 261 ° 0 min 26 W/m² 8,1 °C 6,8 °C 14,5 km/h (3 Bft)
18.04.2025 09:01 21,6 °C 9,5 °C 54 % 91 % 1010,6 hPa 0,0 l/m² 9,2 km/h (2 Bft) W-NW 288 ° 0 min 26 W/m² 8,1 °C 7,5 °C 14,5 km/h (3 Bft)
18.04.2025 09:03 21,6 °C 9,4 °C 54 % 91 % 1010,6 hPa 0,0 l/m² 9,6 km/h (2 Bft) W 267 ° 0 min 30 W/m² 8,0 °C 7,2 °C 17,7 km/h (3 Bft)
18.04.2025 09:04 21,6 °C 9,5 °C 54 % 91 % 1010,6 hPa 0,0 l/m² 7,1 km/h (2 Bft) W 274 ° 0 min 32 W/m² 8,1 °C 9,0 °C 9,7 km/h (2 Bft)
18.04.2025 09:05 21,7 °C 9,4 °C 54 % 91 % 1010,6 hPa 0,0 l/m² 10,0 km/h (2 Bft) W 279 ° 0 min 33 W/m² 8,0 °C 6,9 °C 12,9 km/h (3 Bft)
18.04.2025 09:06 21,7 °C 9,4 °C 54 % 91 % 1010,5 hPa 0,0 l/m² 10,0 km/h (2 Bft) W 277 ° 0 min 35 W/m² 8,0 °C 6,9 °C 12,9 km/h (3 Bft)
18.04.2025 09:08 21,7 °C 9,5 °C 54 % 91 % 1010,6 hPa 0,0 l/m² 6,9 km/h (2 Bft) NW 317 ° 0 min 37 W/m² 8,1 °C 9,1 °C 11,3 km/h (2 Bft)
18.04.2025 09:09 21,7 °C 9,5 °C 54 % 91 % 1010,6 hPa 0,0 l/m² 7,7 km/h (2 Bft) W 259 ° 0 min 40 W/m² 8,1 °C 8,5 °C 12,9 km/h (3 Bft)
18.04.2025 09:10 21,7 °C 9,5 °C 54 % 91 % 1010,6 hPa 0,0 l/m² 7,6 km/h (2 Bft) W-SW 246 ° 0 min 40 W/m² 8,1 °C 8,6 °C 12,9 km/h (3 Bft)
18.04.2025 09:11 21,7 °C 9,5 °C 54 % 91 % 1010,6 hPa 0,0 l/m² 9,7 km/h (2 Bft) W 270 ° 0 min 40 W/m² 8,1 °C 7,2 °C 14,5 km/h (3 Bft)
18.04.2025 09:12 21,7 °C 9,5 °C 54 % 91 % 1010,6 hPa 0,0 l/m² 11,3 km/h (2 Bft) W 270 ° 0 min 42 W/m² 8,1 °C 6,3 °C 12,9 km/h (3 Bft)
18.04.2025 09:17 21,7 °C 9,6 °C 54 % 91 % 1010,7 hPa 0,0 l/m² 4,5 km/h (1 Bft) W-NW 300 ° 0 min 46 W/m² 8,2 °C 9,6 °C 6,4 km/h (2 Bft)
18.04.2025 09:19 21,7 °C 9,6 °C 54 % 91 % 1010,7 hPa 0,0 l/m² 8,9 km/h (2 Bft) W 277 ° 0 min 47 W/m² 8,2 °C 7,8 °C 12,9 km/h (3 Bft)
18.04.2025 09:20 21,7 °C 9,6 °C 54 % 91 % 1010,7 hPa 0,0 l/m² 9,6 km/h (2 Bft) W 271 ° 0 min 47 W/m² 8,2 °C 7,4 °C 12,9 km/h (3 Bft)
18.04.2025 09:22 21,7 °C 9,6 °C 54 % 91 % 1010,7 hPa 0,0 l/m² 8,1 km/h (2 Bft) W-NW 290 ° 0 min 47 W/m² 8,2 °C 8,4 °C 12,9 km/h (3 Bft)
18.04.2025 09:23 21,7 °C 9,6 °C 54 % 90 % 1010,8 hPa 0,0 l/m² 7,7 km/h (2 Bft) W-NW 288 ° 0 min 46 W/m² 8,0 °C 8,6 °C 9,7 km/h (2 Bft)
18.04.2025 09:25 21,7 °C 9,6 °C 54 % 90 % 1010,8 hPa 0,0 l/m² 7,8 km/h (2 Bft) W 271 ° 0 min 47 W/m² 8,0 °C 8,6 °C 12,9 km/h (3 Bft)
18.04.2025 09:26 21,7 °C 9,6 °C 54 % 90 % 1010,7 hPa 0,0 l/m² 6,5 km/h (2 Bft) W 263 ° 0 min 49 W/m² 8,0 °C 9,6 °C 11,3 km/h (2 Bft)
18.04.2025 09:28 21,7 °C 9,7 °C 54 % 90 % 1010,8 hPa 0,0 l/m² 7,8 km/h (2 Bft) W 278 ° 0 min 51 W/m² 8,1 °C 8,7 °C 12,9 km/h (3 Bft)
18.04.2025 09:30 21,7 °C 9,7 °C 54 % 90 % 1010,8 hPa 0,0 l/m² 9,0 km/h (2 Bft) W 276 ° 0 min 51 W/m² 8,1 °C 7,9 °C 12,9 km/h (3 Bft)
18.04.2025 09:31 21,7 °C 9,7 °C 54 % 90 % 1010,8 hPa 0,0 l/m² 8,0 km/h (2 Bft) W 267 ° 0 min 51 W/m² 8,1 °C 8,5 °C 11,3 km/h (2 Bft)
18.04.2025 09:32 21,7 °C 9,7 °C 54 % 90 % 1010,9 hPa 0,0 l/m² 7,3 km/h (2 Bft) W 265 ° 1 min 53 W/m² 8,1 °C 9,0 °C 11,3 km/h (2 Bft)
18.04.2025 09:34 21,7 °C 9,8 °C 54 % 90 % 1010,8 hPa 0,0 l/m² 7,6 km/h (2 Bft) W 265 ° 2 min 56 W/m² 8,2 °C 8,9 °C 12,9 km/h (3 Bft)
18.04.2025 09:35 21,7 °C 9,8 °C 54 % 90 % 1010,9 hPa 0,0 l/m² 6,0 km/h (2 Bft) W 277 ° 1 min 56 W/m² 8,2 °C 9,8 °C 11,3 km/h (2 Bft)
18.04.2025 09:37 21,7 °C 9,8 °C 54 % 90 % 1010,9 hPa 0,0 l/m² 6,4 km/h (2 Bft) W 275 ° 2 min 56 W/m² 8,2 °C 9,8 °C 9,7 km/h (2 Bft)
18.04.2025 09:39 21,7 °C 9,8 °C 55 % 90 % 1010,8 hPa 0,0 l/m² 7,7 km/h (2 Bft) W 281 ° 2 min 60 W/m² 8,2 °C 8,9 °C 12,9 km/h (3 Bft)
18.04.2025 09:40 21,8 °C 9,8 °C 54 % 90 % 1010,8 hPa 0,0 l/m² 8,5 km/h (2 Bft) W 266 ° 1 min 60 W/m² 8,2 °C 8,3 °C 14,5 km/h (3 Bft)
18.04.2025 09:42 21,7 °C 9,8 °C 54 % 89 % 1010,8 hPa 0,0 l/m² 10,4 km/h (2 Bft) W 274 ° 2 min 62 W/m² 8,1 °C 7,1 °C 12,9 km/h (3 Bft)
18.04.2025 09:43 21,7 °C 9,8 °C 54 % 89 % 1010,8 hPa 0,0 l/m² 9,2 km/h (2 Bft) W-SW 246 ° 1 min 62 W/m² 8,1 °C 7,9 °C 14,5 km/h (3 Bft)
18.04.2025 09:45 21,8 °C 9,8 °C 55 % 89 % 1010,8 hPa 0,0 l/m² 9,5 km/h (2 Bft) W-NW 295 ° 2 min 54 W/m² 8,1 °C 7,7 °C 14,5 km/h (3 Bft)
18.04.2025 09:46 21,8 °C 9,8 °C 55 % 89 % 1010,8 hPa 0,0 l/m² 3,1 km/h (1 Bft) W-NW 298 ° 1 min 53 W/m² 8,1 °C 9,8 °C 4,8 km/h (1 Bft)
18.04.2025 09:48 21,8 °C 9,9 °C 55 % 89 % 1010,7 hPa 0,0 l/m² 3,9 km/h (1 Bft) W-NW 298 ° 0 min 47 W/m² 8,2 °C 9,9 °C 8,0 km/h (2 Bft)
18.04.2025 09:50 21,8 °C 9,9 °C 55 % 89 % 1010,6 hPa 0,0 l/m² 7,7 km/h (2 Bft) W-SW 254 ° 0 min 51 W/m² 8,2 °C 9,0 °C 12,9 km/h (3 Bft)
18.04.2025 09:51 21,8 °C 9,9 °C 55 % 89 % 1010,6 hPa 0,0 l/m² 10,4 km/h (2 Bft) W-SW 244 ° 0 min 51 W/m² 8,2 °C 7,3 °C 14,5 km/h (3 Bft)
18.04.2025 09:52 21,8 °C 9,9 °C 55 % 89 % 1010,6 hPa 0,0 l/m² 11,4 km/h (2 Bft) NW 311 ° 0 min 49 W/m² 8,2 °C 6,7 °C 14,5 km/h (3 Bft)
18.04.2025 09:54 21,8 °C 9,9 °C 55 % 88 % 1010,6 hPa 0,0 l/m² 8,8 km/h (2 Bft) W 269 ° 0 min 49 W/m² 8,0 °C 8,2 °C 16,1 km/h (3 Bft)
18.04.2025 09:56 21,7 °C 9,9 °C 55 % 88 % 1010,6 hPa 0,0 l/m² 6,2 km/h (2 Bft) W-NW 294 ° 2 min 53 W/m² 8,0 °C 9,9 °C 14,5 km/h (3 Bft)
18.04.2025 09:58 21,8 °C 9,9 °C 55 % 88 % 1010,6 hPa 0,0 l/m² 9,9 km/h (2 Bft) W-NW 282 ° 2 min 54 W/m² 8,0 °C 7,5 °C 16,1 km/h (3 Bft)
18.04.2025 10:00 21,8 °C 9,9 °C 55 % 88 % 1010,6 hPa 0,0 l/m² 6,9 km/h (2 Bft) W 266 ° 2 min 56 W/m² 8,0 °C 9,5 °C 12,9 km/h (3 Bft)
18.04.2025 10:01 21,8 °C 9,9 °C 55 % 88 % 1010,6 hPa 0,0 l/m² 8,4 km/h (2 Bft) W-NW 285 ° 1 min 62 W/m² 8,0 °C 8,5 °C 14,5 km/h (3 Bft)
18.04.2025 10:02 21,8 °C 9,9 °C 55 % 88 % 1010,6 hPa 0,0 l/m² 8,4 km/h (2 Bft) W 269 ° 1 min 65 W/m² 8,0 °C 8,5 °C 12,9 km/h (3 Bft)
18.04.2025 10:03 21,8 °C 9,9 °C 55 % 88 % 1010,7 hPa 0,0 l/m² 10,9 km/h (2 Bft) W 279 ° 1 min 72 W/m² 8,0 °C 7,0 °C 17,7 km/h (3 Bft)
18.04.2025 10:04 21,8 °C 9,9 °C 55 % 88 % 1010,6 hPa 0,0 l/m² 9,7 km/h (2 Bft) W-NW 284 ° 1 min 79 W/m² 8,0 °C 7,7 °C 14,5 km/h (3 Bft)
18.04.2025 10:06 21,8 °C 9,9 °C 54 % 88 % 1010,5 hPa 0,0 l/m² 11,1 km/h (2 Bft) W 278 ° 2 min 83 W/m² 8,0 °C 6,9 °C 20,9 km/h (4 Bft)
18.04.2025 10:08 21,8 °C 10,0 °C 54 % 88 % 1010,6 hPa 0,0 l/m² 14,2 km/h (3 Bft) W 273 ° 2 min 91 W/m² 8,1 °C 5,5 °C 19,3 km/h (3 Bft)
18.04.2025 10:10 21,8 °C 10,0 °C 54 % 87 % 1010,6 hPa 0,0 l/m² 14,5 km/h (3 Bft) W-NW 283 ° 2 min 88 W/m² 7,9 °C 5,3 °C 17,7 km/h (3 Bft)
18.04.2025 10:11 21,8 °C 10,0 °C 54 % 88 % 1010,6 hPa 0,0 l/m² 18,5 km/h (3 Bft) W 273 ° 1 min 88 W/m² 8,1 °C 3,8 °C 22,5 km/h (4 Bft)
18.04.2025 10:12 21,8 °C 9,9 °C 54 % 88 % 1010,6 hPa 0,0 l/m² 18,5 km/h (3 Bft) W-NW 294 ° 1 min 88 W/m² 8,0 °C 3,7 °C 24,1 km/h (4 Bft)
18.04.2025 10:15 21,8 °C 10,0 °C 54 % 88 % 1010,7 hPa 0,0 l/m² 12,0 km/h (2 Bft) W-NW 283 ° 3 min 81 W/m² 8,1 °C 6,5 °C 20,9 km/h (4 Bft)
18.04.2025 10:17 21,8 °C 10,0 °C 54 % 88 % 1010,6 hPa 0,0 l/m² 9,0 km/h (2 Bft) W 279 ° 2 min 90 W/m² 8,1 °C 8,2 °C 17,7 km/h (3 Bft)
18.04.2025 10:19 21,8 °C 10,0 °C 54 % 88 % 1010,6 hPa 0,0 l/m² 8,8 km/h (2 Bft) W 274 ° 2 min 76 W/m² 8,1 °C 8,3 °C 16,1 km/h (3 Bft)
18.04.2025 10:20 21,7 °C 9,9 °C 54 % 88 % 1010,6 hPa 0,0 l/m² 11,5 km/h (2 Bft) W 267 ° 1 min 83 W/m² 8,0 °C 6,7 °C 17,7 km/h (3 Bft)
18.04.2025 10:22 21,8 °C 9,9 °C 54 % 88 % 1010,7 hPa 0,0 l/m² 10,2 km/h (2 Bft) W-NW 285 ° 2 min 84 W/m² 8,0 °C 7,4 °C 17,7 km/h (3 Bft)
18.04.2025 10:24 21,8 °C 9,9 °C 54 % 88 % 1010,7 hPa 0,0 l/m² 11,5 km/h (2 Bft) W 275 ° 2 min 95 W/m² 8,0 °C 6,7 °C 17,7 km/h (3 Bft)
18.04.2025 10:26 21,7 °C 9,9 °C 54 % 88 % 1010,6 hPa 0,0 l/m² 11,1 km/h (2 Bft) W-NW 288 ° 2 min 105 W/m² 8,0 °C 6,9 °C 16,1 km/h (3 Bft)
18.04.2025 10:28 21,7 °C 9,9 °C 54 % 88 % 1010,8 hPa 0,0 l/m² 11,0 km/h (2 Bft) W 271 ° 2 min 105 W/m² 8,0 °C 6,9 °C 17,7 km/h (3 Bft)
18.04.2025 10:30 21,7 °C 9,9 °C 54 % 88 % 1010,7 hPa 0,0 l/m² 11,1 km/h (2 Bft) W 268 ° 2 min 98 W/m² 8,0 °C 6,9 °C 17,7 km/h (3 Bft)
18.04.2025 10:31 21,7 °C 10,0 °C 54 % 88 % 1010,9 hPa 0,0 l/m² 9,9 km/h (2 Bft) W 271 ° 1 min 88 W/m² 8,1 °C 7,7 °C 16,1 km/h (3 Bft)
18.04.2025 10:32 21,7 °C 10,0 °C 54 % 88 % 1010,9 hPa 0,0 l/m² 9,9 km/h (2 Bft) W-NW 285 ° 1 min 84 W/m² 8,1 °C 7,7 °C 12,9 km/h (3 Bft)
18.04.2025 10:33 21,7 °C 10,1 °C 54 % 88 % 1010,9 hPa 0,0 l/m² 8,3 km/h (2 Bft) W-NW 287 ° 1 min 81 W/m² 8,2 °C 8,8 °C 14,5 km/h (3 Bft)
18.04.2025 10:35 21,7 °C 10,1 °C 54 % 88 % 1011,0 hPa 0,0 l/m² 6,9 km/h (2 Bft) W 278 ° 2 min 77 W/m² 8,2 °C 9,7 °C 12,9 km/h (3 Bft)
18.04.2025 10:37 21,7 °C 10,1 °C 54 % 88 % 1010,9 hPa 0,0 l/m² 9,7 km/h (2 Bft) NW 318 ° 2 min 77 W/m² 8,2 °C 7,9 °C 16,1 km/h (3 Bft)
18.04.2025 10:39 21,7 °C 10,1 °C 54 % 87 % 1010,9 hPa 0,0 l/m² 7,8 km/h (2 Bft) W 273 ° 2 min 72 W/m² 8,0 °C 9,1 °C 12,9 km/h (3 Bft)
18.04.2025 10:40 21,7 °C 10,1 °C 54 % 88 % 1010,9 hPa 0,0 l/m² 10,3 km/h (2 Bft) W 265 ° 1 min 72 W/m² 8,2 °C 7,5 °C 12,9 km/h (3 Bft)
18.04.2025 10:41 21,7 °C 10,1 °C 54 % 87 % 1010,9 hPa 0,0 l/m² 11,2 km/h (2 Bft) W 279 ° 1 min 70 W/m² 8,0 °C 7,0 °C 14,5 km/h (3 Bft)
18.04.2025 10:42 21,7 °C 10,1 °C 54 % 87 % 1011,0 hPa 0,0 l/m² 11,7 km/h (2 Bft) W 267 ° 1 min 72 W/m² 8,0 °C 6,8 °C 12,9 km/h (3 Bft)
18.04.2025 10:44 21,7 °C 10,2 °C 54 % 87 % 1010,9 hPa 0,0 l/m² 9,0 km/h (2 Bft) W 271 ° 2 min 81 W/m² 8,1 °C 8,4 °C 11,3 km/h (2 Bft)
18.04.2025 10:46 21,7 °C 10,2 °C 54 % 87 % 1010,8 hPa 0,0 l/m² 8,4 km/h (2 Bft) W 279 ° 2 min 84 W/m² 8,1 °C 8,8 °C 12,9 km/h (3 Bft)
18.04.2025 10:48 21,7 °C 10,2 °C 54 % 87 % 1010,8 hPa 0,0 l/m² 8,3 km/h (2 Bft) W 277 ° 2 min 83 W/m² 8,1 °C 8,9 °C 14,5 km/h (3 Bft)
18.04.2025 10:50 21,7 °C 10,3 °C 54 % 87 % 1010,7 hPa 0,0 l/m² 8,4 km/h (2 Bft) W 275 ° 2 min 84 W/m² 8,2 °C 8,9 °C 16,1 km/h (3 Bft)
18.04.2025 10:51 21,7 °C 10,2 °C 54 % 87 % 1010,7 hPa 0,0 l/m² 11,7 km/h (2 Bft) W 268 ° 1 min 90 W/m² 8,1 °C 6,9 °C 16,1 km/h (3 Bft)
18.04.2025 10:52 21,7 °C 10,3 °C 54 % 87 % 1010,7 hPa 0,0 l/m² 9,3 km/h (2 Bft) W-NW 282 ° 1 min 93 W/m² 8,2 °C 8,3 °C 14,5 km/h (3 Bft)
18.04.2025 10:53 21,7 °C 10,3 °C 54 % 87 % 1010,7 hPa 0,0 l/m² 8,6 km/h (2 Bft) W 263 ° 1 min 93 W/m² 8,2 °C 8,8 °C 12,9 km/h (3 Bft)
18.04.2025 10:55 21,7 °C 10,3 °C 54 % 87 % 1010,7 hPa 0,0 l/m² 11,2 km/h (2 Bft) W 267 ° 2 min 93 W/m² 8,2 °C 7,3 °C 16,1 km/h (3 Bft)
18.04.2025 10:57 21,7 °C 10,4 °C 54 % 87 % 1010,7 hPa 0,0 l/m² 11,2 km/h (2 Bft) W 277 ° 2 min 95 W/m² 8,3 °C 7,4 °C 14,5 km/h (3 Bft)
18.04.2025 10:59 21,7 °C 10,4 °C 54 % 86 % 1010,6 hPa 0,0 l/m² 8,6 km/h (2 Bft) W 267 ° 2 min 93 W/m² 8,2 °C 8,9 °C 14,5 km/h (3 Bft)
18.04.2025 11:00 21,7 °C 10,4 °C 54 % 86 % 1010,6 hPa 0,0 l/m² 10,0 km/h (2 Bft) W 273 ° 1 min 88 W/m² 8,2 °C 8,0 °C 14,5 km/h (3 Bft)
18.04.2025 11:01 21,7 °C 10,5 °C 54 % 86 % 1010,6 hPa 0,0 l/m² 11,0 km/h (2 Bft) W 275 ° 1 min 88 W/m² 8,3 °C 7,6 °C 12,9 km/h (3 Bft)
18.04.2025 11:03 21,7 °C 10,5 °C 54 % 86 % 1010,6 hPa 0,0 l/m² 10,4 km/h (2 Bft) W-NW 282 ° 2 min 88 W/m² 8,3 °C 7,9 °C 14,5 km/h (3 Bft)
18.04.2025 11:04 21,7 °C 10,5 °C 54 % 86 % 1010,6 hPa 0,0 l/m² 13,7 km/h (3 Bft) W 269 ° 1 min 90 W/m² 8,3 °C 6,3 °C 17,7 km/h (3 Bft)
18.04.2025 11:05 21,7 °C 10,6 °C 54 % 85 % 1010,6 hPa 0,0 l/m² 10,5 km/h (2 Bft) W-SW 242 ° 1 min 91 W/m² 8,2 °C 8,0 °C 14,5 km/h (3 Bft)
18.04.2025 11:06 21,7 °C 10,6 °C 54 % 86 % 1010,6 hPa 0,0 l/m² 12,8 km/h (3 Bft) W-NW 287 ° 1 min 98 W/m² 8,4 °C 6,8 °C 19,3 km/h (3 Bft)
18.04.2025 11:08 21,7 °C 10,6 °C 54 % 85 % 1010,5 hPa 0,0 l/m² 16,1 km/h (3 Bft) W 269 ° 2 min 109 W/m² 8,2 °C 5,4 °C 20,9 km/h (4 Bft)
18.04.2025 11:09 21,7 °C 10,6 °C 54 % 85 % 1010,5 hPa 0,0 l/m² 14,9 km/h (3 Bft) W 267 ° 1 min 102 W/m² 8,2 °C 5,9 °C 20,9 km/h (4 Bft)
18.04.2025 11:11 21,7 °C 10,6 °C 54 % 84 % 1010,5 hPa 0,0 l/m² 14,0 km/h (3 Bft) W-NW 303 ° 2 min 88 W/m² 8,0 °C 6,3 °C 22,5 km/h (4 Bft)
18.04.2025 11:12 21,7 °C 10,6 °C 54 % 84 % 1010,6 hPa 0,0 l/m² 9,1 km/h (2 Bft) W-NW 288 ° 1 min 86 W/m² 8,0 °C 8,8 °C 12,9 km/h (3 Bft)
18.04.2025 11:13 21,7 °C 10,6 °C 54 % 85 % 1010,6 hPa 0,0 l/m² 12,1 km/h (2 Bft) W 279 ° 1 min 86 W/m² 8,2 °C 7,2 °C 19,3 km/h (3 Bft)
18.04.2025 11:14 21,7 °C 10,6 °C 54 % 84 % 1010,6 hPa 0,0 l/m² 9,6 km/h (2 Bft) W-NW 285 ° 1 min 91 W/m² 8,0 °C 8,5 °C 14,5 km/h (3 Bft)
18.04.2025 11:15 21,7 °C 10,6 °C 54 % 84 % 1010,6 hPa 0,0 l/m² 9,7 km/h (2 Bft) W-NW 289 ° 1 min 95 W/m² 8,0 °C 8,4 °C 14,5 km/h (3 Bft)
18.04.2025 11:16 21,7 °C 10,7 °C 54 % 84 % 1010,6 hPa 0,0 l/m² 10,0 km/h (2 Bft) W 263 ° 1 min 100 W/m² 8,1 °C 8,4 °C 14,5 km/h (3 Bft)
18.04.2025 11:17 21,7 °C 10,7 °C 54 % 84 % 1010,6 hPa 0,0 l/m² 11,7 km/h (2 Bft) W 263 ° 1 min 100 W/m² 8,1 °C 7,5 °C 14,5 km/h (3 Bft)
18.04.2025 11:18 21,7 °C 10,7 °C 55 % 84 % 1010,6 hPa 0,0 l/m² 10,6 km/h (2 Bft) W-SW 257 ° 1 min 95 W/m² 8,1 °C 8,0 °C 12,9 km/h (3 Bft)
18.04.2025 11:19 21,7 °C 10,7 °C 55 % 85 % 1010,6 hPa 0,0 l/m² 8,3 km/h (2 Bft) W 262 ° 1 min 97 W/m² 8,3 °C 9,4 °C 12,9 km/h (3 Bft)
18.04.2025 11:21 21,7 °C 10,8 °C 55 % 84 % 1010,6 hPa 0,0 l/m² 12,8 km/h (3 Bft) W-NW 284 ° 2 min 102 W/m² 8,2 °C 7,1 °C 19,3 km/h (3 Bft)
18.04.2025 11:23 21,7 °C 10,7 °C 55 % 84 % 1010,6 hPa 0,0 l/m² 13,0 km/h (3 Bft) W-NW 288 ° 2 min 91 W/m² 8,1 °C 6,8 °C 17,7 km/h (3 Bft)
18.04.2025 11:24 21,7 °C 10,8 °C 55 % 84 % 1010,6 hPa 0,0 l/m² 7,8 km/h (2 Bft) W-NW 301 ° 1 min 83 W/m² 8,2 °C 9,8 °C 14,5 km/h (3 Bft)
18.04.2025 11:25 21,7 °C 10,8 °C 55 % 84 % 1010,7 hPa 0,0 l/m² 9,5 km/h (2 Bft) W 270 ° 1 min 90 W/m² 8,2 °C 8,8 °C 12,9 km/h (3 Bft)
18.04.2025 11:27 21,7 °C 10,8 °C 55 % 84 % 1010,7 hPa 0,0 l/m² 14,6 km/h (3 Bft) W 266 ° 2 min 95 W/m² 8,2 °C 6,3 °C 20,9 km/h (4 Bft)
18.04.2025 11:28 21,7 °C 10,8 °C 55 % 83 % 1010,7 hPa 0,0 l/m² 14,6 km/h (3 Bft) W 267 ° 1 min 98 W/m² 8,0 °C 6,3 °C 20,9 km/h (4 Bft)
18.04.2025 11:29 21,7 °C 10,8 °C 55 % 83 % 1010,8 hPa 0,0 l/m² 13,7 km/h (3 Bft) W-NW 287 ° 1 min 98 W/m² 8,0 °C 6,7 °C 17,7 km/h (3 Bft)
18.04.2025 11:31 21,7 °C 10,8 °C 55 % 84 % 1010,8 hPa 0,0 l/m² 12,3 km/h (2 Bft) W 266 ° 2 min 90 W/m² 8,2 °C 7,3 °C 17,7 km/h (3 Bft)
18.04.2025 11:33 21,7 °C 10,8 °C 56 % 84 % 1010,9 hPa 0,0 l/m² 12,2 km/h (2 Bft) W 263 ° 2 min 84 W/m² 8,2 °C 7,3 °C 16,1 km/h (3 Bft)
18.04.2025 11:34 21,7 °C 10,7 °C 56 % 84 % 1010,9 hPa 0,0 l/m² 11,1 km/h (2 Bft) W 280 ° 1 min 84 W/m² 8,1 °C 7,8 °C 16,1 km/h (3 Bft)
18.04.2025 11:35 21,7 °C 10,8 °C 56 % 84 % 1010,9 hPa 0,0 l/m² 15,9 km/h (3 Bft) W 267 ° 1 min 83 W/m² 8,2 °C 5,7 °C 20,9 km/h (4 Bft)
18.04.2025 11:36 21,7 °C 10,8 °C 56 % 84 % 1010,9 hPa 0,0 l/m² 14,9 km/h (3 Bft) W-NW 288 ° 1 min 77 W/m² 8,2 °C 6,1 °C 19,3 km/h (3 Bft)
18.04.2025 11:37 21,7 °C 10,7 °C 56 % 83 % 1010,9 hPa 0,0 l/m² 12,3 km/h (2 Bft) W 269 ° 1 min 74 W/m² 7,9 °C 7,2 °C 17,7 km/h (3 Bft)
18.04.2025 11:38 21,7 °C 10,7 °C 56 % 83 % 1011,0 hPa 0,0 l/m² 11,8 km/h (2 Bft) W-NW 289 ° 1 min 74 W/m² 7,9 °C 7,4 °C 17,7 km/h (3 Bft)
18.04.2025 11:39 21,7 °C 10,7 °C 56 % 83 % 1010,9 hPa 0,0 l/m² 13,9 km/h (3 Bft) W 273 ° 1 min 70 W/m² 7,9 °C 6,4 °C 16,1 km/h (3 Bft)
18.04.2025 11:41 21,7 °C 10,7 °C 56 % 84 % 1011,0 hPa 0,0 l/m² 11,7 km/h (2 Bft) W 268 ° 2 min 67 W/m² 8,1 °C 7,5 °C 16,1 km/h (3 Bft)
18.04.2025 11:43 21,7 °C 10,7 °C 56 % 84 % 1011,0 hPa 0,0 l/m² 10,8 km/h (2 Bft) W 274 ° 2 min 53 W/m² 8,1 °C 7,9 °C 16,1 km/h (3 Bft)
18.04.2025 11:44 21,7 °C 10,8 °C 56 % 84 % 1010,7 hPa 0,0 l/m² 11,1 km/h (2 Bft) W 276 ° 0 min 51 W/m² 8,2 °C 7,9 °C 14,5 km/h (3 Bft)
18.04.2025 11:45 21,7 °C 10,8 °C 56 % 84 % 1010,7 hPa 0,0 l/m² 13,1 km/h (3 Bft) W 279 ° 1 min 53 W/m² 8,2 °C 6,9 °C 17,7 km/h (3 Bft)
18.04.2025 11:46 21,7 °C 10,7 °C 56 % 83 % 1010,7 hPa 0,0 l/m² 12,5 km/h (2 Bft) W 261 ° 1 min 56 W/m² 7,9 °C 7,1 °C 16,1 km/h (3 Bft)
18.04.2025 11:47 21,7 °C 10,7 °C 56 % 83 % 1010,7 hPa 0,0 l/m² 13,6 km/h (3 Bft) W-SW 257 ° 1 min 56 W/m² 7,9 °C 6,6 °C 16,1 km/h (3 Bft)
18.04.2025 11:48 21,7 °C 10,7 °C 56 % 83 % 1010,7 hPa 0,0 l/m² 11,3 km/h (2 Bft) W 261 ° 1 min 60 W/m² 7,9 °C 7,7 °C 14,5 km/h (3 Bft)
18.04.2025 11:49 21,7 °C 10,7 °C 56 % 84 % 1010,7 hPa 0,0 l/m² 11,9 km/h (2 Bft) W-SW 258 ° 1 min 63 W/m² 8,1 °C 7,4 °C 16,1 km/h (3 Bft)
18.04.2025 11:51 21,7 °C 10,7 °C 56 % 84 % 1010,6 hPa 0,0 l/m² 11,0 km/h (2 Bft) W-NW 284 ° 2 min 74 W/m² 8,1 °C 7,8 °C 16,1 km/h (3 Bft)
18.04.2025 11:53 21,7 °C 10,8 °C 56 % 84 % 1010,9 hPa 0,0 l/m² 11,3 km/h (2 Bft) NW 306 ° 2 min 86 W/m² 8,2 °C 7,8 °C 16,1 km/h (3 Bft)
18.04.2025 11:54 21,7 °C 10,8 °C 56 % 84 % 1010,9 hPa 0,0 l/m² 9,9 km/h (2 Bft) W 276 ° 1 min 100 W/m² 8,2 °C 8,5 °C 16,1 km/h (3 Bft)
18.04.2025 11:55 21,7 °C 10,8 °C 56 % 84 % 1010,6 hPa 0,0 l/m² 8,8 km/h (2 Bft) W 265 ° 1 min 105 W/m² 8,2 °C 9,2 °C 12,9 km/h (3 Bft)
18.04.2025 11:56 21,7 °C 10,8 °C 56 % 84 % 1010,5 hPa 0,0 l/m² 9,9 km/h (2 Bft) W 279 ° 1 min 102 W/m² 8,2 °C 8,5 °C 16,1 km/h (3 Bft)
18.04.2025 11:57 21,7 °C 10,8 °C 56 % 83 % 1010,5 hPa 0,0 l/m² 10,2 km/h (2 Bft) W-NW 296 ° 1 min 95 W/m² 8,0 °C 8,4 °C 14,5 km/h (3 Bft)
18.04.2025 11:58 21,7 °C 10,8 °C 56 % 84 % 1010,6 hPa 0,0 l/m² 10,9 km/h (2 Bft) W 274 ° 1 min 93 W/m² 8,2 °C 8,0 °C 14,5 km/h (3 Bft)
18.04.2025 11:59 21,7 °C 10,9 °C 56 % 84 % 1010,6 hPa 0,0 l/m² 9,7 km/h (2 Bft) W-NW 292 ° 1 min 104 W/m² 8,3 °C 8,8 °C 12,9 km/h (3 Bft)
18.04.2025 12:01 21,7 °C 10,9 °C 56 % 83 % 1010,6 hPa 0,0 l/m² 9,7 km/h (2 Bft) W 273 ° 2 min 109 W/m² 8,1 °C 8,8 °C 16,1 km/h (3 Bft)
18.04.2025 12:03 21,7 °C 11,0 °C 55 % 83 % 1010,7 hPa 0,0 l/m² 8,7 km/h (2 Bft) W 259 ° 2 min 111 W/m² 8,2 °C 9,5 °C 14,5 km/h (3 Bft)
18.04.2025 12:04 21,7 °C 11,1 °C 55 % 83 % 1010,7 hPa 0,0 l/m² 9,0 km/h (2 Bft) W 273 ° 1 min 113 W/m² 8,3 °C 9,4 °C 12,9 km/h (3 Bft)
18.04.2025 12:05 21,7 °C 11,1 °C 55 % 83 % 1010,6 hPa 0,0 l/m² 7,3 km/h (2 Bft) W-SW 254 ° 1 min 98 W/m² 8,3 °C 10,5 °C 12,9 km/h (3 Bft)
18.04.2025 12:06 21,7 °C 11,1 °C 55 % 83 % 1010,6 hPa 0,0 l/m² 5,1 km/h (1 Bft) W 277 ° 1 min 84 W/m² 8,3 °C 11,1 °C 8,0 km/h (2 Bft)
18.04.2025 12:07 21,7 °C 11,2 °C 55 % 83 % 1010,6 hPa 0,0 l/m² 4,3 km/h (1 Bft) W-NW 300 ° 1 min 74 W/m² 8,4 °C 11,2 °C 8,0 km/h (2 Bft)
18.04.2025 12:08 21,7 °C 11,2 °C 55 % 83 % 1010,7 hPa 0,0 l/m² 9,1 km/h (2 Bft) W-NW 286 ° 1 min 70 W/m² 8,4 °C 9,4 °C 11,3 km/h (2 Bft)
18.04.2025 12:09 21,7 °C 11,2 °C 55 % 83 % 1010,7 hPa 0,0 l/m² 3,8 km/h (1 Bft) W-NW 287 ° 1 min 72 W/m² 8,4 °C 11,2 °C 12,9 km/h (3 Bft)
18.04.2025 12:11 21,7 °C 11,2 °C 55 % 82 % 1010,8 hPa 0,0 l/m² 9,3 km/h (2 Bft) W-NW 294 ° 2 min 63 W/m² 8,2 °C 9,3 °C 14,5 km/h (3 Bft)
18.04.2025 12:13 21,7 °C 11,2 °C 55 % 82 % 1011,1 hPa 0,0 l/m² 6,8 km/h (2 Bft) W-NW 290 ° 2 min 67 W/m² 8,2 °C 10,9 °C 12,9 km/h (3 Bft)
18.04.2025 12:14 21,7 °C 11,2 °C 55 % 82 % 1011,1 hPa 0,0 l/m² 4,0 km/h (1 Bft) W 275 ° 1 min 72 W/m² 8,2 °C 11,2 °C 11,3 km/h (2 Bft)
18.04.2025 12:15 21,7 °C 11,2 °C 55 % 82 % 1011,1 hPa 0,0 l/m² 5,4 km/h (2 Bft) W 276 ° 1 min 72 W/m² 8,2 °C 11,2 °C 11,3 km/h (2 Bft)
18.04.2025 12:16 21,7 °C 11,2 °C 55 % 82 % 1011,1 hPa 0,0 l/m² 4,5 km/h (1 Bft) W 271 ° 1 min 72 W/m² 8,2 °C 11,2 °C 9,7 km/h (2 Bft)
18.04.2025 12:17 21,7 °C 11,2 °C 55 % 82 % 1011,1 hPa 0,0 l/m² 4,6 km/h (1 Bft) W 264 ° 1 min 74 W/m² 8,2 °C 11,2 °C 9,7 km/h (2 Bft)
18.04.2025 12:18 21,7 °C 11,2 °C 55 % 82 % 1011,1 hPa 0,0 l/m² 11,0 km/h (2 Bft) W 277 ° 1 min 76 W/m² 8,2 °C 8,4 °C 16,1 km/h (3 Bft)
18.04.2025 12:19 21,7 °C 11,2 °C 55 % 82 % 1010,9 hPa 0,0 l/m² 6,6 km/h (2 Bft) W-NW 284 ° 1 min 74 W/m² 8,2 °C 11,1 °C 11,3 km/h (2 Bft)
18.04.2025 12:21 21,7 °C 11,2 °C 56 % 82 % 1011,1 hPa 0,0 l/m² 2,5 km/h (1 Bft) W 277 ° 2 min 69 W/m² 8,2 °C 11,2 °C 6,4 km/h (2 Bft)
18.04.2025 12:23 21,7 °C 11,2 °C 56 % 82 % 1011,2 hPa 0,0 l/m² 3,4 km/h (1 Bft) W-NW 292 ° 2 min 56 W/m² 8,2 °C 11,2 °C 9,7 km/h (2 Bft)
18.04.2025 12:24 21,7 °C 11,2 °C 56 % 82 % 1011,0 hPa 0,0 l/m² 7,4 km/h (2 Bft) NW 309 ° 1 min 54 W/m² 8,2 °C 10,5 °C 12,9 km/h (3 Bft)
18.04.2025 12:25 21,7 °C 11,2 °C 56 % 81 % 1011,0 hPa 0,0 l/m² 5,9 km/h (2 Bft) W-NW 300 ° 1 min 54 W/m² 8,1 °C 11,2 °C 9,7 km/h (2 Bft)
18.04.2025 12:26 21,7 °C 11,2 °C 56 % 82 % 1010,9 hPa 0,0 l/m² 3,5 km/h (1 Bft) N-NW 348 ° 1 min 56 W/m² 8,2 °C 11,2 °C 6,4 km/h (2 Bft)
18.04.2025 12:27 21,7 °C 11,2 °C 56 % 81 % 1010,9 hPa 0,0 l/m² 4,3 km/h (1 Bft) W-NW 284 ° 1 min 58 W/m² 8,1 °C 11,2 °C 9,7 km/h (2 Bft)
18.04.2025 12:28 21,7 °C 11,2 °C 56 % 81 % 1010,9 hPa 0,0 l/m² 6,3 km/h (2 Bft) NW 304 ° 1 min 63 W/m² 8,1 °C 11,2 °C 14,5 km/h (3 Bft)
18.04.2025 12:29 21,7 °C 11,2 °C 56 % 81 % 1011,2 hPa 0,0 l/m² 6,8 km/h (2 Bft) NW 323 ° 1 min 72 W/m² 8,1 °C 10,9 °C 14,5 km/h (3 Bft)
18.04.2025 12:31 21,7 °C 11,2 °C 57 % 81 % 1011,2 hPa 0,0 l/m² 6,8 km/h (2 Bft) W 263 ° 2 min 76 W/m² 8,1 °C 10,9 °C 16,1 km/h (3 Bft)
18.04.2025 12:33 21,7 °C 11,2 °C 57 % 81 % 1011,3 hPa 0,0 l/m² 6,1 km/h (2 Bft) NW 319 ° 2 min 74 W/m² 8,1 °C 11,2 °C 12,9 km/h (3 Bft)
18.04.2025 12:34 21,7 °C 11,2 °C 57 % 81 % 1011,4 hPa 0,0 l/m² 2,4 km/h (1 Bft) W 280 ° 1 min 65 W/m² 8,1 °C 11,2 °C 9,7 km/h (2 Bft)
18.04.2025 12:35 21,7 °C 11,2 °C 57 % 82 % 1011,4 hPa 0,0 l/m² 1,5 km/h (1 Bft) W-SW 258 ° 1 min 62 W/m² 8,2 °C 11,2 °C 4,8 km/h (1 Bft)
18.04.2025 12:36 21,7 °C 11,2 °C 57 % 82 % 1011,3 hPa 0,0 l/m² 4,9 km/h (1 Bft) W 275 ° 1 min 60 W/m² 8,2 °C 11,2 °C 11,3 km/h (2 Bft)
18.04.2025 12:37 21,7 °C 11,2 °C 57 % 82 % 1011,3 hPa 0,0 l/m² 5,6 km/h (2 Bft) W-NW 288 ° 1 min 60 W/m² 8,2 °C 11,2 °C 11,3 km/h (2 Bft)
18.04.2025 12:38 21,7 °C 11,2 °C 57 % 81 % 1011,3 hPa 0,0 l/m² 8,4 km/h (2 Bft) W 277 ° 1 min 60 W/m² 8,1 °C 9,9 °C 12,9 km/h (3 Bft)
18.04.2025 12:39 21,7 °C 11,2 °C 57 % 81 % 1011,3 hPa 0,0 l/m² 8,4 km/h (2 Bft) W 275 ° 1 min 60 W/m² 8,1 °C 9,9 °C 14,5 km/h (3 Bft)
18.04.2025 12:41 21,7 °C 11,2 °C 58 % 81 % 1011,3 hPa 0,0 l/m² 5,9 km/h (2 Bft) NW 309 ° 2 min 60 W/m² 8,1 °C 11,2 °C 12,9 km/h (3 Bft)
18.04.2025 12:43 21,7 °C 11,2 °C 58 % 81 % 1011,2 hPa 0,0 l/m² 6,0 km/h (2 Bft) W-NW 289 ° 2 min 63 W/m² 8,1 °C 11,2 °C 14,5 km/h (3 Bft)
18.04.2025 12:44 21,7 °C 11,2 °C 59 % 81 % 1011,3 hPa 0,0 l/m² 7,8 km/h (2 Bft) NW 313 ° 1 min 67 W/m² 8,1 °C 10,2 °C 12,9 km/h (3 Bft)
18.04.2025 12:46 21,7 °C 11,2 °C 59 % 81 % 1011,1 hPa 0,0 l/m² 6,2 km/h (2 Bft) W 274 ° 2 min 74 W/m² 8,1 °C 11,2 °C 12,9 km/h (3 Bft)
18.04.2025 12:47 21,8 °C 11,2 °C 59 % 81 % 1011,1 hPa 0,0 l/m² 5,0 km/h (1 Bft) W 279 ° 1 min 74 W/m² 8,1 °C 11,2 °C 11,3 km/h (2 Bft)
18.04.2025 12:48 21,8 °C 11,2 °C 59 % 81 % 1011,1 hPa 0,0 l/m² 5,7 km/h (2 Bft) W 267 ° 1 min 72 W/m² 8,1 °C 11,2 °C 11,3 km/h (2 Bft)
18.04.2025 12:49 21,8 °C 11,2 °C 59 % 81 % 1011,1 hPa 0,0 l/m² 6,0 km/h (2 Bft) W 273 ° 1 min 70 W/m² 8,1 °C 11,2 °C 9,7 km/h (2 Bft)
18.04.2025 12:51 21,8 °C 11,2 °C 59 % 81 % 1011,2 hPa 0,0 l/m² 9,2 km/h (2 Bft) W 269 ° 2 min 67 W/m² 8,1 °C 9,4 °C 12,9 km/h (3 Bft)
18.04.2025 12:53 21,8 °C 11,2 °C 59 % 81 % 1011,2 hPa 0,0 l/m² 11,2 km/h (2 Bft) W 271 ° 2 min 67 W/m² 8,1 °C 8,3 °C 16,1 km/h (3 Bft)
18.04.2025 12:54 21,8 °C 11,2 °C 59 % 81 % 1011,2 hPa 0,0 l/m² 8,6 km/h (2 Bft) W 265 ° 1 min 69 W/m² 8,1 °C 9,7 °C 12,9 km/h (3 Bft)
18.04.2025 12:55 21,8 °C 11,2 °C 59 % 81 % 1011,2 hPa 0,0 l/m² 11,5 km/h (2 Bft) W 271 ° 1 min 72 W/m² 8,1 °C 8,1 °C 14,5 km/h (3 Bft)
18.04.2025 12:56 21,8 °C 11,2 °C 59 % 81 % 1011,2 hPa 0,0 l/m² 7,2 km/h (2 Bft) W 274 ° 1 min 77 W/m² 8,1 °C 10,6 °C 11,3 km/h (2 Bft)
18.04.2025 12:57 21,8 °C 11,2 °C 59 % 82 % 1011,1 hPa 0,0 l/m² 9,7 km/h (2 Bft) W 275 ° 1 min 79 W/m² 8,2 °C 9,1 °C 14,5 km/h (3 Bft)
18.04.2025 12:58 21,9 °C 11,2 °C 59 % 82 % 1011,1 hPa 0,0 l/m² 12,1 km/h (2 Bft) W 274 ° 1 min 81 W/m² 8,2 °C 7,8 °C 14,5 km/h (3 Bft)
18.04.2025 12:59 21,9 °C 11,1 °C 58 % 82 % 1011,1 hPa 0,0 l/m² 10,7 km/h (2 Bft) W 269 ° 1 min 79 W/m² 8,1 °C 8,4 °C 14,5 km/h (3 Bft)
18.04.2025 13:00 21,9 °C 11,2 °C 58 % 82 % 1011,1 hPa 0,0 l/m² 10,3 km/h (2 Bft) W 281 ° 1 min 77 W/m² 8,2 °C 8,8 °C 12,9 km/h (3 Bft)
18.04.2025 13:01 21,8 °C 11,2 °C 58 % 82 % 1011,1 hPa 0,0 l/m² 13,2 km/h (3 Bft) W 271 ° 1 min 76 W/m² 8,2 °C 7,3 °C 16,1 km/h (3 Bft)
18.04.2025 13:02 21,8 °C 11,2 °C 58 % 82 % 1011,1 hPa 0,0 l/m² 8,5 km/h (2 Bft) W 275 ° 1 min 74 W/m² 8,2 °C 9,8 °C 11,3 km/h (2 Bft)
18.04.2025 13:03 21,8 °C 11,1 °C 58 % 82 % 1011,1 hPa 0,0 l/m² 7,0 km/h (2 Bft) W-NW 289 ° 1 min 72 W/m² 8,1 °C 10,7 °C 11,3 km/h (2 Bft)
18.04.2025 13:04 21,9 °C 11,2 °C 58 % 82 % 1011,1 hPa 0,0 l/m² 9,2 km/h (2 Bft) W-NW 288 ° 1 min 72 W/m² 8,2 °C 9,4 °C 12,9 km/h (3 Bft)
18.04.2025 13:05 21,8 °C 11,2 °C 58 % 82 % 1011,1 hPa 0,0 l/m² 6,1 km/h (2 Bft) W 274 ° 1 min 72 W/m² 8,2 °C 11,2 °C 11,3 km/h (2 Bft)
18.04.2025 13:06 21,9 °C 11,2 °C 58 % 82 % 1011,1 hPa 0,0 l/m² 8,2 km/h (2 Bft) W 275 ° 1 min 74 W/m² 8,2 °C 10,0 °C 12,9 km/h (3 Bft)
18.04.2025 13:08 21,8 °C 11,2 °C 58 % 82 % 1011,1 hPa 0,0 l/m² 5,6 km/h (2 Bft) NW 318 ° 2 min 72 W/m² 8,2 °C 11,2 °C 12,9 km/h (3 Bft)
18.04.2025 13:09 21,8 °C 11,2 °C 58 % 82 % 1011,1 hPa 0,0 l/m² 4,1 km/h (1 Bft) W-NW 282 ° 1 min 69 W/m² 8,2 °C 11,2 °C 6,4 km/h (2 Bft)
18.04.2025 13:10 21,9 °C 11,2 °C 58 % 82 % 1011,1 hPa 0,0 l/m² 6,9 km/h (2 Bft) W 271 ° 1 min 63 W/m² 8,2 °C 10,9 °C 11,3 km/h (2 Bft)
18.04.2025 13:12 21,8 °C 11,2 °C 58 % 82 % 1011,2 hPa 0,0 l/m² 11,3 km/h (2 Bft) W-SW 256 ° 2 min 60 W/m² 8,2 °C 8,2 °C 14,5 km/h (3 Bft)
18.04.2025 13:13 21,8 °C 11,2 °C 58 % 82 % 1011,1 hPa 0,0 l/m² 5,0 km/h (1 Bft) W 271 ° 1 min 58 W/m² 8,2 °C 11,2 °C 12,9 km/h (3 Bft)
18.04.2025 13:14 21,9 °C 11,2 °C 58 % 82 % 1011,2 hPa 0,0 l/m² 3,4 km/h (1 Bft) W 273 ° 1 min 58 W/m² 8,2 °C 11,2 °C 6,4 km/h (2 Bft)
18.04.2025 13:15 21,8 °C 11,2 °C 58 % 82 % 1011,2 hPa 0,0 l/m² 5,8 km/h (2 Bft) W 273 ° 1 min 58 W/m² 8,2 °C 11,2 °C 11,3 km/h (2 Bft)
18.04.2025 13:16 21,8 °C 11,2 °C 58 % 82 % 1011,1 hPa 0,0 l/m² 10,0 km/h (2 Bft) W 277 ° 1 min 58 W/m² 8,2 °C 8,9 °C 12,9 km/h (3 Bft)
18.04.2025 13:17 21,8 °C 11,2 °C 58 % 82 % 1011,1 hPa 0,0 l/m² 11,3 km/h (2 Bft) W 260 ° 1 min 56 W/m² 8,2 °C 8,2 °C 12,9 km/h (3 Bft)
18.04.2025 13:18 21,8 °C 11,2 °C 58 % 82 % 1011,2 hPa 0,0 l/m² 9,6 km/h (2 Bft) W-NW 290 ° 1 min 54 W/m² 8,2 °C 9,1 °C 12,9 km/h (3 Bft)
18.04.2025 13:19 21,8 °C 11,2 °C 58 % 82 % 1011,1 hPa 0,0 l/m² 10,4 km/h (2 Bft) W 267 ° 1 min 54 W/m² 8,2 °C 8,7 °C 14,5 km/h (3 Bft)
18.04.2025 13:20 21,8 °C 11,2 °C 58 % 82 % 1011,1 hPa 0,0 l/m² 6,1 km/h (2 Bft) W 271 ° 1 min 54 W/m² 8,2 °C 11,2 °C 9,7 km/h (2 Bft)
18.04.2025 13:22 21,8 °C 11,2 °C 58 % 82 % 1011,1 hPa 0,0 l/m² 6,7 km/h (2 Bft) W 277 ° 2 min 54 W/m² 8,2 °C 11,0 °C 11,3 km/h (2 Bft)
18.04.2025 13:24 21,8 °C 11,2 °C 58 % 82 % 1011,1 hPa 0,0 l/m² 11,0 km/h (2 Bft) W-SW 250 ° 2 min 60 W/m² 8,2 °C 8,4 °C 14,5 km/h (3 Bft)
18.04.2025 13:25 21,8 °C 11,2 °C 58 % 82 % 1011,1 hPa 0,0 l/m² 6,9 km/h (2 Bft) W 260 ° 1 min 58 W/m² 8,2 °C 10,9 °C 12,9 km/h (3 Bft)
18.04.2025 13:26 21,8 °C 11,2 °C 58 % 82 % 1011,2 hPa 0,0 l/m² 8,4 km/h (2 Bft) W-SW 254 ° 1 min 54 W/m² 8,2 °C 9,9 °C 11,3 km/h (2 Bft)
18.04.2025 13:27 21,8 °C 11,2 °C 58 % 82 % 1011,2 hPa 0,0 l/m² 8,0 km/h (2 Bft) W-SW 245 ° 1 min 53 W/m² 8,2 °C 10,1 °C 12,9 km/h (3 Bft)
18.04.2025 13:28 21,8 °C 11,2 °C 57 % 82 % 1011,1 hPa 0,0 l/m² 7,2 km/h (2 Bft) W 276 ° 1 min 53 W/m² 8,2 °C 10,6 °C 9,7 km/h (2 Bft)
18.04.2025 13:29 21,8 °C 11,3 °C 57 % 82 % 1011,1 hPa 0,0 l/m² 6,6 km/h (2 Bft) W-SW 247 ° 1 min 54 W/m² 8,3 °C 11,2 °C 11,3 km/h (2 Bft)
18.04.2025 13:31 21,8 °C 11,3 °C 57 % 82 % 1011,0 hPa 0,0 l/m² 7,5 km/h (2 Bft) W-SW 257 ° 2 min 60 W/m² 8,3 °C 10,5 °C 11,3 km/h (2 Bft)
18.04.2025 13:33 21,8 °C 11,3 °C 57 % 82 % 1011,2 hPa 0,0 l/m² 5,8 km/h (2 Bft) W-SW 253 ° 2 min 65 W/m² 8,3 °C 11,3 °C 8,0 km/h (2 Bft)
18.04.2025 13:34 21,8 °C 11,3 °C 57 % 82 % 1011,1 hPa 0,0 l/m² 3,9 km/h (1 Bft) W-SW 240 ° 1 min 65 W/m² 8,3 °C 11,3 °C 6,4 km/h (2 Bft)
18.04.2025 13:35 21,8 °C 11,3 °C 57 % 83 % 1011,1 hPa 0,0 l/m² 3,7 km/h (1 Bft) W 269 ° 1 min 63 W/m² 8,5 °C 11,3 °C 4,8 km/h (1 Bft)
18.04.2025 13:36 21,8 °C 11,3 °C 57 % 83 % 1011,2 hPa 0,0 l/m² 7,6 km/h (2 Bft) W 271 ° 1 min 62 W/m² 8,5 °C 10,5 °C 11,3 km/h (2 Bft)
18.04.2025 13:37 21,8 °C 11,3 °C 57 % 83 % 1011,2 hPa 0,0 l/m² 5,5 km/h (2 Bft) SW 225 ° 1 min 58 W/m² 8,5 °C 11,3 °C 9,7 km/h (2 Bft)
18.04.2025 13:38 21,8 °C 11,3 °C 57 % 83 % 1011,2 hPa 0,0 l/m² 6,1 km/h (2 Bft) SW 220 ° 1 min 54 W/m² 8,5 °C 11,3 °C 8,0 km/h (2 Bft)
18.04.2025 13:39 21,8 °C 11,3 °C 57 % 84 % 1011,3 hPa 0,0 l/m² 5,3 km/h (1 Bft) SW 219 ° 0 min 49 W/m² 8,7 °C 11,3 °C 6,4 km/h (2 Bft)
18.04.2025 13:41 21,8 °C 11,2 °C 57 % 83 % 1011,3 hPa 0,0 l/m² 4,9 km/h (1 Bft) SW 222 ° 0 min 46 W/m² 8,4 °C 11,2 °C 9,7 km/h (2 Bft)
18.04.2025 13:43 21,8 °C 11,2 °C 57 % 84 % 1011,4 hPa 0,0 l/m² 6,8 km/h (2 Bft) W-SW 238 ° 0 min 39 W/m² 8,6 °C 10,9 °C 11,3 km/h (2 Bft)
18.04.2025 13:44 21,8 °C 11,1 °C 57 % 84 % 1011,4 hPa 0,0 l/m² 6,8 km/h (2 Bft) SW 236 ° 0 min 35 W/m² 8,5 °C 10,8 °C 11,3 km/h (2 Bft)
18.04.2025 13:45 21,8 °C 11,1 °C 57 % 84 % 1011,5 hPa 0,0 l/m² 7,3 km/h (2 Bft) W-SW 244 ° 0 min 30 W/m² 8,5 °C 10,5 °C 11,3 km/h (2 Bft)
18.04.2025 13:46 21,8 °C 10,9 °C 57 % 83 % 1011,6 hPa 0,0 l/m² 8,0 km/h (2 Bft) SW 235 ° 0 min 28 W/m² 8,1 °C 9,8 °C 11,3 km/h (2 Bft)
18.04.2025 13:47 21,8 °C 10,9 °C 57 % 83 % 1011,8 hPa 0,0 l/m² 11,4 km/h (2 Bft) SW 223 ° 0 min 26 W/m² 8,1 °C 7,8 °C 14,5 km/h (3 Bft)
18.04.2025 13:48 21,8 °C 10,8 °C 57 % 83 % 1011,8 hPa 0,0 l/m² 8,3 km/h (2 Bft) SW 223 ° 0 min 25 W/m² 8,0 °C 9,5 °C 11,3 km/h (2 Bft)
18.04.2025 13:49 21,8 °C 10,8 °C 57 % 83 % 1011,8 hPa 0,0 l/m² 8,2 km/h (2 Bft) SW 235 ° 0 min 23 W/m² 8,0 °C 9,6 °C 11,3 km/h (2 Bft)
18.04.2025 13:51 21,8 °C 10,7 °C 57 % 84 % 1011,9 hPa 0,0 l/m² 9,1 km/h (2 Bft) S-SW 205 ° 0 min 21 W/m² 8,1 °C 8,9 °C 14,5 km/h (3 Bft)
18.04.2025 13:52 21,8 °C 10,7 °C 57 % 84 % 1011,9 hPa 0,0 l/m² 11,6 km/h (2 Bft) S-SW 209 ° 0 min 21 W/m² 8,1 °C 7,5 °C 16,1 km/h (3 Bft)
18.04.2025 13:53 21,8 °C 10,7 °C 57 % 84 % 1011,9 hPa 0,0 l/m² 13,9 km/h (3 Bft) S-SW 208 ° 0 min 21 W/m² 8,1 °C 6,4 °C 17,7 km/h (3 Bft)
18.04.2025 13:54 21,8 °C 10,6 °C 57 % 83 % 1012,0 hPa 0,0 l/m² 13,0 km/h (3 Bft) S-SW 211 ° 0 min 21 W/m² 7,8 °C 6,7 °C 17,7 km/h (3 Bft)
18.04.2025 13:55 21,8 °C 10,6 °C 57 % 83 % 1011,9 hPa 0,0 l/m² 12,7 km/h (3 Bft) SW 217 ° 0 min 23 W/m² 7,8 °C 6,9 °C 17,7 km/h (3 Bft)
18.04.2025 13:56 21,8 °C 10,6 °C 57 % 84 % 1011,9 hPa 0,0 l/m² 11,3 km/h (2 Bft) SW 223 ° 0 min 23 W/m² 8,0 °C 7,6 °C 16,1 km/h (3 Bft)
18.04.2025 13:57 21,8 °C 10,5 °C 57 % 84 % 1012,0 hPa 0,0 l/m² 11,9 km/h (2 Bft) S-SW 211 ° 0 min 25 W/m² 7,9 °C 7,1 °C 14,5 km/h (3 Bft)
18.04.2025 13:58 21,7 °C 10,5 °C 57 % 84 % 1012,0 hPa 0,0 l/m² 8,3 km/h (2 Bft) S-SW 208 ° 0 min 26 W/m² 7,9 °C 9,2 °C 11,3 km/h (2 Bft)
18.04.2025 13:59 21,8 °C 10,5 °C 57 % 84 % 1011,9 hPa 0,0 l/m² 12,9 km/h (3 Bft) SW 230 ° 0 min 26 W/m² 7,9 °C 6,7 °C 16,1 km/h (3 Bft)
18.04.2025 14:00 21,8 °C 10,4 °C 57 % 84 % 1011,9 hPa 0,0 l/m² 11,9 km/h (2 Bft) S-SW 207 ° 0 min 28 W/m² 7,8 °C 7,0 °C 14,5 km/h (3 Bft)
18.04.2025 14:01 21,8 °C 10,4 °C 57 % 84 % 1011,8 hPa 0,0 l/m² 10,7 km/h (2 Bft) S-SW 211 ° 0 min 28 W/m² 7,8 °C 7,6 °C 12,9 km/h (3 Bft)
18.04.2025 14:02 21,8 °C 10,4 °C 57 % 84 % 1011,9 hPa 0,0 l/m² 9,6 km/h (2 Bft) SW 232 ° 0 min 28 W/m² 7,8 °C 8,3 °C 12,9 km/h (3 Bft)
18.04.2025 14:03 21,8 °C 10,4 °C 57 % 84 % 1011,9 hPa 0,0 l/m² 10,9 km/h (2 Bft) SW 229 ° 0 min 28 W/m² 7,8 °C 7,5 °C 16,1 km/h (3 Bft)
18.04.2025 14:04 21,8 °C 10,4 °C 57 % 84 % 1011,8 hPa 0,0 l/m² 11,2 km/h (2 Bft) W-SW 240 ° 0 min 30 W/m² 7,8 °C 7,4 °C 14,5 km/h (3 Bft)
18.04.2025 14:05 21,8 °C 10,4 °C 57 % 84 % 1011,8 hPa 0,0 l/m² 9,3 km/h (2 Bft) W-SW 246 ° 0 min 30 W/m² 7,8 °C 8,4 °C 11,3 km/h (2 Bft)
18.04.2025 14:06 21,8 °C 10,4 °C 57 % 84 % 1011,8 hPa 0,0 l/m² 9,9 km/h (2 Bft) SW 229 ° 0 min 30 W/m² 7,8 °C 8,1 °C 14,5 km/h (3 Bft)
18.04.2025 14:07 21,8 °C 10,4 °C 57 % 84 % 1011,8 hPa 0,0 l/m² 12,1 km/h (2 Bft) SW 228 ° 0 min 32 W/m² 7,8 °C 6,9 °C 16,1 km/h (3 Bft)
18.04.2025 14:08 21,8 °C 10,3 °C 57 % 84 % 1011,9 hPa 0,0 l/m² 12,1 km/h (2 Bft) SW 214 ° 0 min 33 W/m² 7,7 °C 6,8 °C 14,5 km/h (3 Bft)
18.04.2025 14:09 21,8 °C 10,3 °C 56 % 84 % 1011,8 hPa 0,0 l/m² 11,5 km/h (2 Bft) S-SW 211 ° 0 min 33 W/m² 7,7 °C 7,1 °C 16,1 km/h (3 Bft)
18.04.2025 14:10 21,8 °C 10,3 °C 56 % 85 % 1011,8 hPa 0,0 l/m² 15,0 km/h (3 Bft) S-SW 211 ° 0 min 33 W/m² 7,9 °C 5,5 °C 17,7 km/h (3 Bft)
18.04.2025 14:12 21,7 °C 10,3 °C 56 % 84 % 1011,9 hPa 0,0 l/m² 12,2 km/h (2 Bft) S-SW 204 ° 0 min 32 W/m² 7,7 °C 6,8 °C 16,1 km/h (3 Bft)
18.04.2025 14:13 21,7 °C 10,3 °C 56 % 85 % 1011,9 hPa 0,0 l/m² 11,4 km/h (2 Bft) S-SW 203 ° 0 min 30 W/m² 7,9 °C 7,2 °C 16,1 km/h (3 Bft)
18.04.2025 14:14 21,8 °C 10,3 °C 56 % 85 % 1011,9 hPa 0,0 l/m² 14,0 km/h (3 Bft) SW 222 ° 0 min 30 W/m² 7,9 °C 5,9 °C 17,7 km/h (3 Bft)
18.04.2025 14:15 21,8 °C 10,3 °C 56 % 85 % 1011,9 hPa 0,0 l/m² 14,3 km/h (3 Bft) SW 214 ° 0 min 30 W/m² 7,9 °C 5,8 °C 19,3 km/h (3 Bft)
18.04.2025 14:16 21,8 °C 10,2 °C 56 % 85 % 1012,0 hPa 0,0 l/m² 13,5 km/h (3 Bft) S-SW 201 ° 0 min 30 W/m² 7,8 °C 6,0 °C 17,7 km/h (3 Bft)
18.04.2025 14:17 21,8 °C 10,2 °C 56 % 85 % 1012,0 hPa 0,0 l/m² 12,5 km/h (2 Bft) S-SW 211 ° 0 min 30 W/m² 7,8 °C 6,5 °C 16,1 km/h (3 Bft)
18.04.2025 14:18 21,8 °C 10,2 °C 56 % 85 % 1011,9 hPa 0,0 l/m² 13,8 km/h (3 Bft) SW 222 ° 0 min 30 W/m² 7,8 °C 5,9 °C 16,1 km/h (3 Bft)
18.04.2025 14:19 21,8 °C 10,2 °C 56 % 85 % 1012,0 hPa 0,0 l/m² 12,1 km/h (2 Bft) SW 215 ° 0 min 32 W/m² 7,8 °C 6,7 °C 14,5 km/h (3 Bft)
18.04.2025 14:20 21,8 °C 10,2 °C 56 % 85 % 1012,0 hPa 0,0 l/m² 9,9 km/h (2 Bft) W-SW 242 ° 0 min 33 W/m² 7,8 °C 7,9 °C 12,9 km/h (3 Bft)
18.04.2025 14:21 21,7 °C 10,2 °C 56 % 86 % 1012,0 hPa 0,2 l/m² 12,1 km/h (2 Bft) SW 220 ° 0 min 33 W/m² 8,0 °C 6,7 °C 16,1 km/h (3 Bft)
18.04.2025 14:22 21,7 °C 10,1 °C 56 % 86 % 1012,0 hPa 0,0 l/m² 9,2 km/h (2 Bft) SW 219 ° 0 min 35 W/m² 7,9 °C 8,2 °C 12,9 km/h (3 Bft)
18.04.2025 14:23 21,8 °C 10,1 °C 56 % 86 % 1011,9 hPa 0,0 l/m² 9,5 km/h (2 Bft) SW 223 ° 0 min 37 W/m² 7,9 °C 8,0 °C 12,9 km/h (3 Bft)
18.04.2025 14:24 21,8 °C 10,1 °C 56 % 86 % 1011,9 hPa 0,0 l/m² 8,2 km/h (2 Bft) S-SW 213 ° 0 min 37 W/m² 7,9 °C 8,8 °C 11,3 km/h (2 Bft)
18.04.2025 14:25 21,8 °C 10,1 °C 56 % 87 % 1011,9 hPa 0,0 l/m² 10,4 km/h (2 Bft) SW 223 ° 0 min 37 W/m² 8,0 °C 7,5 °C 14,5 km/h (3 Bft)
18.04.2025 14:26 21,8 °C 10,1 °C 56 % 87 % 1011,9 hPa 0,0 l/m² 13,5 km/h (3 Bft) SW 220 ° 0 min 37 W/m² 8,0 °C 5,9 °C 16,1 km/h (3 Bft)
18.04.2025 14:27 21,8 °C 10,0 °C 56 % 87 % 1011,9 hPa 0,0 l/m² 8,0 km/h (2 Bft) SW 232 ° 0 min 35 W/m² 7,9 °C 8,9 °C 12,9 km/h (3 Bft)
18.04.2025 14:28 21,7 °C 10,0 °C 56 % 87 % 1011,9 hPa 0,2 l/m² 9,9 km/h (2 Bft) W-SW 237 ° 0 min 35 W/m² 7,9 °C 7,7 °C 16,1 km/h (3 Bft)
18.04.2025 14:29 21,7 °C 10,0 °C 56 % 87 % 1012,0 hPa 0,0 l/m² 8,5 km/h (2 Bft) SW 234 ° 0 min 33 W/m² 7,9 °C 8,5 °C 11,3 km/h (2 Bft)
18.04.2025 14:30 21,8 °C 10,0 °C 56 % 87 % 1012,0 hPa 0,0 l/m² 7,8 km/h (2 Bft) SW 231 ° 0 min 32 W/m² 7,9 °C 9,0 °C 11,3 km/h (2 Bft)
18.04.2025 14:31 21,8 °C 9,9 °C 56 % 88 % 1012,0 hPa 0,0 l/m² 7,6 km/h (2 Bft) SW 224 ° 0 min 30 W/m² 8,0 °C 9,0 °C 9,7 km/h (2 Bft)
18.04.2025 14:32 21,7 °C 9,9 °C 56 % 88 % 1012,0 hPa 0,0 l/m² 7,2 km/h (2 Bft) SW 225 ° 0 min 28 W/m² 8,0 °C 9,3 °C 11,3 km/h (2 Bft)
18.04.2025 14:33 21,8 °C 9,9 °C 56 % 88 % 1012,0 hPa 0,0 l/m² 12,7 km/h (3 Bft) SW 226 ° 0 min 28 W/m² 8,0 °C 6,1 °C 19,3 km/h (3 Bft)
18.04.2025 14:34 21,8 °C 9,9 °C 56 % 88 % 1012,1 hPa 0,0 l/m² 13,1 km/h (3 Bft) S-SW 211 ° 0 min 26 W/m² 8,0 °C 5,9 °C 16,1 km/h (3 Bft)
18.04.2025 14:35 21,8 °C 9,9 °C 56 % 88 % 1012,0 hPa 0,0 l/m² 9,1 km/h (2 Bft) SW 220 ° 0 min 25 W/m² 8,0 °C 8,0 °C 12,9 km/h (3 Bft)
18.04.2025 14:36 21,8 °C 9,8 °C 56 % 88 % 1012,1 hPa 0,0 l/m² 9,9 km/h (2 Bft) SW 215 ° 0 min 25 W/m² 7,9 °C 7,4 °C 12,9 km/h (3 Bft)
18.04.2025 14:37 21,8 °C 9,8 °C 56 % 88 % 1012,1 hPa 0,0 l/m² 8,9 km/h (2 Bft) SW 234 ° 0 min 23 W/m² 7,9 °C 8,0 °C 12,9 km/h (3 Bft)
18.04.2025 14:38 21,8 °C 9,8 °C 56 % 88 % 1012,1 hPa 0,0 l/m² 10,4 km/h (2 Bft) SW 221 ° 0 min 23 W/m² 7,9 °C 7,1 °C 12,9 km/h (3 Bft)
18.04.2025 14:39 21,7 °C 9,8 °C 56 % 88 % 1012,1 hPa 0,2 l/m² 10,1 km/h (2 Bft) SW 215 ° 0 min 23 W/m² 7,9 °C 7,3 °C 12,9 km/h (3 Bft)
18.04.2025 14:40 21,8 °C 9,8 °C 56 % 88 % 1012,0 hPa 0,0 l/m² 10,3 km/h (2 Bft) W-SW 253 ° 0 min 23 W/m² 7,9 °C 7,2 °C 16,1 km/h (3 Bft)
18.04.2025 14:41 21,8 °C 9,7 °C 56 % 88 % 1012,0 hPa 0,0 l/m² 8,7 km/h (2 Bft) W-SW 243 ° 0 min 25 W/m² 7,8 °C 8,1 °C 12,9 km/h (3 Bft)
18.04.2025 14:42 21,7 °C 9,7 °C 56 % 88 % 1012,0 hPa 0,0 l/m² 8,1 km/h (2 Bft) SW 236 ° 0 min 26 W/m² 7,8 °C 8,5 °C 11,3 km/h (2 Bft)
18.04.2025 14:43 21,8 °C 9,7 °C 56 % 88 % 1012,0 hPa 0,0 l/m² 8,0 km/h (2 Bft) W-SW 237 ° 0 min 32 W/m² 7,8 °C 8,5 °C 9,7 km/h (2 Bft)
18.04.2025 14:44 21,8 °C 9,7 °C 56 % 88 % 1011,9 hPa 0,0 l/m² 7,4 km/h (2 Bft) SW 234 ° 0 min 33 W/m² 7,8 °C 9,0 °C 11,3 km/h (2 Bft)
18.04.2025 14:45 21,8 °C 9,7 °C 56 % 89 % 1011,8 hPa 0,0 l/m² 10,7 km/h (2 Bft) W-SW 246 ° 0 min 35 W/m² 8,0 °C 6,9 °C 12,9 km/h (3 Bft)
18.04.2025 14:46 21,8 °C 9,7 °C 56 % 89 % 1011,8 hPa 0,0 l/m² 11,2 km/h (2 Bft) W-SW 256 ° 0 min 37 W/m² 8,0 °C 6,6 °C 14,5 km/h (3 Bft)
18.04.2025 14:47 21,8 °C 9,7 °C 56 % 89 % 1011,9 hPa 0,0 l/m² 9,4 km/h (2 Bft) W-SW 253 ° 0 min 39 W/m² 8,0 °C 7,6 °C 12,9 km/h (3 Bft)
18.04.2025 14:48 21,8 °C 9,7 °C 56 % 89 % 1011,8 hPa 0,0 l/m² 8,4 km/h (2 Bft) W-SW 245 ° 0 min 40 W/m² 8,0 °C 8,3 °C 12,9 km/h (3 Bft)
18.04.2025 14:49 21,8 °C 9,7 °C 56 % 89 % 1011,8 hPa 0,0 l/m² 10,2 km/h (2 Bft) W-SW 245 ° 0 min 47 W/m² 8,0 °C 7,1 °C 14,5 km/h (3 Bft)
18.04.2025 14:50 21,8 °C 9,7 °C 56 % 89 % 1011,9 hPa 0,0 l/m² 7,0 km/h (2 Bft) W-SW 239 ° 0 min 51 W/m² 8,0 °C 9,3 °C 11,3 km/h (2 Bft)
18.04.2025 14:51 21,8 °C 9,7 °C 56 % 89 % 1011,8 hPa 0,0 l/m² 8,7 km/h (2 Bft) W-SW 255 ° 1 min 58 W/m² 8,0 °C 8,1 °C 12,9 km/h (3 Bft)
18.04.2025 14:52 21,8 °C 9,8 °C 56 % 89 % 1011,8 hPa 0,2 l/m² 10,5 km/h (2 Bft) W-SW 238 ° 1 min 62 W/m² 8,1 °C 7,1 °C 16,1 km/h (3 Bft)
18.04.2025 14:53 21,8 °C 9,7 °C 56 % 89 % 1011,8 hPa 0,0 l/m² 12,4 km/h (2 Bft) W-SW 252 ° 1 min 63 W/m² 8,0 °C 6,0 °C 14,5 km/h (3 Bft)
18.04.2025 14:54 21,8 °C 9,8 °C 56 % 90 % 1011,7 hPa 0,0 l/m² 9,9 km/h (2 Bft) W-SW 248 ° 1 min 65 W/m² 8,2 °C 7,4 °C 12,9 km/h (3 Bft)
18.04.2025 14:55 21,8 °C 9,8 °C 56 % 90 % 1011,6 hPa 0,0 l/m² 8,8 km/h (2 Bft) W-SW 243 ° 1 min 69 W/m² 8,2 °C 8,1 °C 12,9 km/h (3 Bft)
18.04.2025 14:56 21,8 °C 9,8 °C 56 % 90 % 1011,6 hPa 0,2 l/m² 7,4 km/h (2 Bft) W-SW 256 ° 1 min 70 W/m² 8,2 °C 9,1 °C 9,7 km/h (2 Bft)
18.04.2025 14:57 21,8 °C 9,8 °C 56 % 90 % 1011,7 hPa 0,0 l/m² 10,2 km/h (2 Bft) W-SW 242 ° 1 min 72 W/m² 8,2 °C 7,3 °C 14,5 km/h (3 Bft)
18.04.2025 14:58 21,8 °C 9,8 °C 56 % 90 % 1011,6 hPa 0,0 l/m² 9,5 km/h (2 Bft) W-SW 243 ° 1 min 76 W/m² 8,2 °C 7,7 °C 14,5 km/h (3 Bft)
18.04.2025 14:59 21,8 °C 9,8 °C 56 % 90 % 1011,5 hPa 0,2 l/m² 12,1 km/h (2 Bft) W 264 ° 1 min 81 W/m² 8,2 °C 6,2 °C 16,1 km/h (3 Bft)
18.04.2025 15:00 21,8 °C 9,8 °C 56 % 90 % 1011,5 hPa 0,0 l/m² 11,7 km/h (2 Bft) W-SW 244 ° 1 min 84 W/m² 8,2 °C 6,4 °C 16,1 km/h (3 Bft)
18.04.2025 15:01 21,8 °C 9,8 °C 56 % 90 % 1011,5 hPa 0,0 l/m² 16,2 km/h (3 Bft) W-SW 246 ° 1 min 91 W/m² 8,2 °C 4,4 °C 19,3 km/h (3 Bft)
18.04.2025 15:03 21,8 °C 9,8 °C 56 % 90 % 1011,5 hPa 0,0 l/m² 14,2 km/h (3 Bft) SW 235 ° 2 min 100 W/m² 8,2 °C 5,2 °C 19,3 km/h (3 Bft)
18.04.2025 15:04 21,8 °C 9,7 °C 56 % 90 % 1011,5 hPa 0,2 l/m² 13,6 km/h (3 Bft) SW 232 ° 1 min 107 W/m² 8,1 °C 5,4 °C 17,7 km/h (3 Bft)
18.04.2025 15:05 21,9 °C 9,8 °C 56 % 90 % 1011,4 hPa 0,0 l/m² 13,3 km/h (3 Bft) W-SW 255 ° 1 min 113 W/m² 8,2 °C 5,6 °C 16,1 km/h (3 Bft)
18.04.2025 15:06 21,9 °C 9,8 °C 56 % 90 % 1011,5 hPa 0,0 l/m² 16,0 km/h (3 Bft) W-SW 237 ° 1 min 118 W/m² 8,2 °C 4,5 °C 17,7 km/h (3 Bft)
18.04.2025 15:08 21,9 °C 9,8 °C 56 % 90 % 1011,5 hPa 0,0 l/m² 14,9 km/h (3 Bft) W-SW 251 ° 2 min 118 W/m² 8,2 °C 4,9 °C 20,9 km/h (4 Bft)
18.04.2025 15:09 21,9 °C 9,8 °C 56 % 90 % 1011,5 hPa 0,0 l/m² 13,6 km/h (3 Bft) W-SW 251 ° 1 min 116 W/m² 8,2 °C 5,5 °C 16,1 km/h (3 Bft)
18.04.2025 15:10 21,9 °C 9,8 °C 56 % 90 % 1011,4 hPa 0,0 l/m² 12,3 km/h (2 Bft) W-SW 241 ° 1 min 114 W/m² 8,2 °C 6,1 °C 16,1 km/h (3 Bft)
18.04.2025 15:11 21,9 °C 9,8 °C 56 % 90 % 1011,4 hPa 0,2 l/m² 11,4 km/h (2 Bft) W-SW 244 ° 1 min 114 W/m² 8,2 °C 6,6 °C 16,1 km/h (3 Bft)
18.04.2025 15:13 21,9 °C 9,9 °C 56 % 91 % 1011,4 hPa 0,0 l/m² 11,6 km/h (2 Bft) SW 223 ° 2 min 127 W/m² 8,5 °C 6,6 °C 17,7 km/h (3 Bft)
18.04.2025 15:14 21,9 °C 9,9 °C 56 % 91 % 1011,4 hPa 0,0 l/m² 11,7 km/h (2 Bft) W-SW 240 ° 1 min 128 W/m² 8,5 °C 6,6 °C 16,1 km/h (3 Bft)
18.04.2025 15:15 21,9 °C 9,9 °C 56 % 91 % 1011,4 hPa 0,0 l/m² 11,3 km/h (2 Bft) SW 222 ° 1 min 125 W/m² 8,5 °C 6,8 °C 14,5 km/h (3 Bft)
18.04.2025 15:16 21,9 °C 9,9 °C 56 % 90 % 1011,4 hPa 0,0 l/m² 14,3 km/h (3 Bft) W-SW 249 ° 1 min 123 W/m² 8,3 °C 5,3 °C 20,9 km/h (4 Bft)
18.04.2025 15:17 21,9 °C 9,9 °C 56 % 90 % 1011,4 hPa 0,0 l/m² 18,2 km/h (3 Bft) SW 232 ° 1 min 121 W/m² 8,3 °C 3,8 °C 22,5 km/h (4 Bft)
18.04.2025 15:18 21,9 °C 9,8 °C 56 % 90 % 1011,4 hPa 0,0 l/m² 17,6 km/h (3 Bft) SW 224 ° 1 min 120 W/m² 8,2 °C 3,9 °C 19,3 km/h (3 Bft)
18.04.2025 15:19 21,9 °C 9,9 °C 56 % 90 % 1011,5 hPa 0,0 l/m² 15,1 km/h (3 Bft) W-SW 246 ° 1 min 105 W/m² 8,3 °C 5,0 °C 17,7 km/h (3 Bft)
18.04.2025 15:20 21,9 °C 9,9 °C 56 % 90 % 1011,5 hPa 0,0 l/m² 14,0 km/h (3 Bft) W-SW 254 ° 1 min 98 W/m² 8,3 °C 5,4 °C 17,7 km/h (3 Bft)
18.04.2025 15:21 21,9 °C 9,9 °C 56 % 90 % 1011,5 hPa 0,0 l/m² 12,1 km/h (2 Bft) SW 231 ° 1 min 95 W/m² 8,3 °C 6,3 °C 16,1 km/h (3 Bft)
18.04.2025 15:22 21,9 °C 9,9 °C 56 % 90 % 1011,5 hPa 0,0 l/m² 12,0 km/h (2 Bft) SW 229 ° 1 min 93 W/m² 8,3 °C 6,4 °C 16,1 km/h (3 Bft)
18.04.2025 15:23 21,9 °C 9,9 °C 56 % 90 % 1011,5 hPa 0,0 l/m² 12,9 km/h (3 Bft) SW 230 ° 1 min 90 W/m² 8,3 °C 6,0 °C 16,1 km/h (3 Bft)
18.04.2025 15:24 21,9 °C 9,9 °C 56 % 90 % 1011,6 hPa 0,0 l/m² 10,6 km/h (2 Bft) SW 223 ° 1 min 88 W/m² 8,3 °C 7,1 °C 14,5 km/h (3 Bft)
18.04.2025 15:25 21,9 °C 9,9 °C 56 % 90 % 1011,6 hPa 0,0 l/m² 13,9 km/h (3 Bft) W-SW 251 ° 1 min 84 W/m² 8,3 °C 5,5 °C 17,7 km/h (3 Bft)
18.04.2025 15:26 21,9 °C 9,9 °C 56 % 90 % 1011,6 hPa 0,0 l/m² 14,3 km/h (3 Bft) SW 217 ° 1 min 84 W/m² 8,3 °C 5,3 °C 19,3 km/h (3 Bft)
18.04.2025 15:27 21,9 °C 9,9 °C 56 % 90 % 1011,5 hPa 0,0 l/m² 12,7 km/h (3 Bft) SW 232 ° 1 min 88 W/m² 8,3 °C 6,1 °C 17,7 km/h (3 Bft)
18.04.2025 15:28 21,9 °C 9,9 °C 56 % 90 % 1011,5 hPa 0,0 l/m² 15,4 km/h (3 Bft) W-SW 244 ° 1 min 91 W/m² 8,3 °C 4,8 °C 19,3 km/h (3 Bft)
18.04.2025 15:29 22,0 °C 9,9 °C 56 % 90 % 1011,5 hPa 0,0 l/m² 16,2 km/h (3 Bft) SW 235 ° 1 min 95 W/m² 8,3 °C 4,5 °C 20,9 km/h (4 Bft)
18.04.2025 15:30 21,9 °C 9,9 °C 56 % 90 % 1011,5 hPa 0,0 l/m² 13,7 km/h (3 Bft) W-SW 251 ° 1 min 91 W/m² 8,3 °C 5,6 °C 19,3 km/h (3 Bft)
18.04.2025 15:31 22,0 °C 9,9 °C 56 % 90 % 1011,6 hPa 0,0 l/m² 15,0 km/h (3 Bft) W-SW 240 ° 1 min 86 W/m² 8,3 °C 5,0 °C 19,3 km/h (3 Bft)
18.04.2025 15:32 21,9 °C 9,9 °C 56 % 90 % 1011,6 hPa 0,0 l/m² 14,6 km/h (3 Bft) SW 232 ° 1 min 81 W/m² 8,3 °C 5,2 °C 20,9 km/h (4 Bft)
18.04.2025 15:33 22,0 °C 9,9 °C 56 % 90 % 1011,6 hPa 0,0 l/m² 10,8 km/h (2 Bft) W-SW 246 ° 1 min 77 W/m² 8,3 °C 7,0 °C 17,7 km/h (3 Bft)
18.04.2025 15:34 22,0 °C 9,9 °C 56 % 90 % 1011,6 hPa 0,0 l/m² 11,9 km/h (2 Bft) W-SW 243 ° 1 min 76 W/m² 8,3 °C 6,4 °C 17,7 km/h (3 Bft)
18.04.2025 15:35 22,0 °C 9,9 °C 56 % 90 % 1011,6 hPa 0,0 l/m² 12,9 km/h (3 Bft) SW 221 ° 1 min 74 W/m² 8,3 °C 6,0 °C 17,7 km/h (3 Bft)
18.04.2025 15:36 22,0 °C 9,9 °C 56 % 90 % 1011,6 hPa 0,0 l/m² 15,0 km/h (3 Bft) SW 229 ° 1 min 76 W/m² 8,3 °C 5,0 °C 19,3 km/h (3 Bft)
18.04.2025 15:37 22,0 °C 9,9 °C 56 % 90 % 1011,5 hPa 0,0 l/m² 13,3 km/h (3 Bft) W-SW 250 ° 1 min 79 W/m² 8,3 °C 5,8 °C 17,7 km/h (3 Bft)
18.04.2025 15:38 22,0 °C 9,9 °C 56 % 90 % 1011,6 hPa 0,0 l/m² 11,6 km/h (2 Bft) SW 229 ° 1 min 81 W/m² 8,3 °C 6,6 °C 16,1 km/h (3 Bft)
18.04.2025 15:39 22,0 °C 9,9 °C 56 % 90 % 1011,5 hPa 0,0 l/m² 13,7 km/h (3 Bft) W-SW 255 ° 1 min 84 W/m² 8,3 °C 5,6 °C 17,7 km/h (3 Bft)
18.04.2025 15:40 22,0 °C 9,9 °C 56 % 90 % 1011,5 hPa 0,0 l/m² 13,5 km/h (3 Bft) W-SW 249 ° 1 min 84 W/m² 8,3 °C 5,7 °C 17,7 km/h (3 Bft)
18.04.2025 15:41 22,0 °C 9,9 °C 56 % 90 % 1011,5 hPa 0,0 l/m² 11,9 km/h (2 Bft) SW 222 ° 1 min 84 W/m² 8,3 °C 6,4 °C 16,1 km/h (3 Bft)
18.04.2025 15:42 22,0 °C 9,9 °C 56 % 90 % 1011,5 hPa 0,0 l/m² 12,6 km/h (3 Bft) W 272 ° 1 min 77 W/m² 8,3 °C 6,1 °C 16,1 km/h (3 Bft)
18.04.2025 15:43 22,1 °C 9,9 °C 56 % 90 % 1011,5 hPa 0,0 l/m² 15,4 km/h (3 Bft) W-SW 248 ° 1 min 74 W/m² 8,3 °C 4,8 °C 20,9 km/h (4 Bft)
18.04.2025 15:44 22,0 °C 9,9 °C 56 % 90 % 1011,5 hPa 0,0 l/m² 14,2 km/h (3 Bft) SW 229 ° 1 min 72 W/m² 8,3 °C 5,4 °C 19,3 km/h (3 Bft)
18.04.2025 15:46 22,0 °C 9,8 °C 56 % 90 % 1011,5 hPa 0,0 l/m² 12,9 km/h (3 Bft) SW 233 ° 2 min 74 W/m² 8,2 °C 5,8 °C 16,1 km/h (3 Bft)
18.04.2025 15:47 22,0 °C 9,8 °C 56 % 90 % 1011,5 hPa 0,0 l/m² 11,7 km/h (2 Bft) W-SW 254 ° 1 min 77 W/m² 8,2 °C 6,4 °C 16,1 km/h (3 Bft)
18.04.2025 15:48 22,0 °C 9,9 °C 56 % 90 % 1011,4 hPa 0,0 l/m² 12,9 km/h (3 Bft) W-SW 238 ° 1 min 84 W/m² 8,3 °C 6,0 °C 19,3 km/h (3 Bft)
18.04.2025 15:49 22,0 °C 9,8 °C 56 % 90 % 1011,4 hPa 0,0 l/m² 14,2 km/h (3 Bft) W-SW 246 ° 1 min 86 W/m² 8,2 °C 5,2 °C 19,3 km/h (3 Bft)
18.04.2025 15:50 22,1 °C 9,9 °C 56 % 90 % 1011,4 hPa 0,0 l/m² 11,5 km/h (2 Bft) W-SW 244 ° 1 min 86 W/m² 8,3 °C 6,7 °C 17,7 km/h (3 Bft)
18.04.2025 15:51 22,1 °C 9,9 °C 55 % 90 % 1011,3 hPa 0,0 l/m² 13,1 km/h (3 Bft) SW 236 ° 1 min 86 W/m² 8,3 °C 5,9 °C 17,7 km/h (3 Bft)
18.04.2025 15:52 22,0 °C 9,9 °C 56 % 90 % 1011,3 hPa 0,0 l/m² 10,9 km/h (2 Bft) W-SW 249 ° 1 min 86 W/m² 8,3 °C 7,0 °C 16,1 km/h (3 Bft)
18.04.2025 15:53 22,0 °C 9,9 °C 56 % 90 % 1011,3 hPa 0,0 l/m² 12,6 km/h (3 Bft) W-SW 240 ° 1 min 86 W/m² 8,3 °C 6,1 °C 17,7 km/h (3 Bft)
18.04.2025 15:54 22,0 °C 9,9 °C 55 % 90 % 1011,4 hPa 0,0 l/m² 14,8 km/h (3 Bft) W-SW 237 ° 1 min 86 W/m² 8,3 °C 5,1 °C 19,3 km/h (3 Bft)
18.04.2025 15:55 22,1 °C 9,9 °C 56 % 90 % 1011,3 hPa 0,0 l/m² 12,7 km/h (3 Bft) W 269 ° 1 min 88 W/m² 8,3 °C 6,1 °C 16,1 km/h (3 Bft)
18.04.2025 15:56 22,1 °C 9,9 °C 56 % 90 % 1011,4 hPa 0,0 l/m² 12,5 km/h (2 Bft) SW 230 ° 1 min 90 W/m² 8,3 °C 6,1 °C 17,7 km/h (3 Bft)
18.04.2025 15:57 22,1 °C 9,9 °C 55 % 90 % 1011,4 hPa 0,0 l/m² 11,0 km/h (2 Bft) W-SW 240 ° 1 min 91 W/m² 8,3 °C 6,9 °C 17,7 km/h (3 Bft)
18.04.2025 15:58 22,1 °C 9,9 °C 55 % 90 % 1011,4 hPa 0,0 l/m² 12,0 km/h (2 Bft) W-SW 257 ° 1 min 93 W/m² 8,3 °C 6,4 °C 17,7 km/h (3 Bft)
18.04.2025 15:59 22,1 °C 10,0 °C 55 % 90 % 1011,4 hPa 0,0 l/m² 12,4 km/h (2 Bft) SW 234 ° 1 min 93 W/m² 8,4 °C 6,3 °C 14,5 km/h (3 Bft)
18.04.2025 16:00 22,1 °C 10,0 °C 56 % 90 % 1011,4 hPa 0,0 l/m² 9,5 km/h (2 Bft) SW 236 ° 1 min 93 W/m² 8,4 °C 7,9 °C 14,5 km/h (3 Bft)
18.04.2025 16:01 22,1 °C 10,0 °C 56 % 90 % 1011,5 hPa 0,0 l/m² 8,8 km/h (2 Bft) W-SW 254 ° 1 min 88 W/m² 8,4 °C 8,3 °C 11,3 km/h (2 Bft)
18.04.2025 16:02 22,1 °C 10,0 °C 56 % 90 % 1011,4 hPa 0,0 l/m² 9,1 km/h (2 Bft) W-SW 238 ° 1 min 86 W/m² 8,4 °C 8,1 °C 14,5 km/h (3 Bft)
18.04.2025 16:03 22,1 °C 10,1 °C 56 % 90 % 1011,5 hPa 0,0 l/m² 8,9 km/h (2 Bft) W-SW 244 ° 1 min 88 W/m² 8,5 °C 8,4 °C 12,9 km/h (3 Bft)
18.04.2025 16:04 22,1 °C 10,1 °C 56 % 90 % 1011,5 hPa 0,0 l/m² 9,7 km/h (2 Bft) W-SW 252 ° 1 min 84 W/m² 8,5 °C 7,9 °C 14,5 km/h (3 Bft)
18.04.2025 16:05 22,1 °C 10,1 °C 56 % 90 % 1011,4 hPa 0,0 l/m² 12,5 km/h (2 Bft) W-SW 250 ° 1 min 84 W/m² 8,5 °C 6,4 °C 16,1 km/h (3 Bft)
18.04.2025 16:06 22,1 °C 10,1 °C 56 % 90 % 1011,5 hPa 0,0 l/m² 12,6 km/h (3 Bft) W-SW 255 ° 1 min 86 W/m² 8,5 °C 6,3 °C 16,1 km/h (3 Bft)
18.04.2025 16:07 22,1 °C 10,1 °C 55 % 90 % 1011,4 hPa 0,0 l/m² 9,5 km/h (2 Bft) W 276 ° 1 min 84 W/m² 8,5 °C 8,0 °C 14,5 km/h (3 Bft)
18.04.2025 16:08 22,1 °C 10,0 °C 55 % 90 % 1011,5 hPa 0,0 l/m² 8,9 km/h (2 Bft) W-SW 253 ° 1 min 83 W/m² 8,4 °C 8,3 °C 12,9 km/h (3 Bft)
18.04.2025 16:09 22,1 °C 10,1 °C 56 % 90 % 1011,5 hPa 0,0 l/m² 10,5 km/h (2 Bft) W-SW 249 ° 1 min 81 W/m² 8,5 °C 7,4 °C 14,5 km/h (3 Bft)
18.04.2025 16:10 22,1 °C 10,1 °C 55 % 90 % 1011,4 hPa 0,0 l/m² 12,1 km/h (2 Bft) W-SW 254 ° 1 min 79 W/m² 8,5 °C 6,6 °C 16,1 km/h (3 Bft)
18.04.2025 16:11 22,1 °C 10,1 °C 56 % 90 % 1011,5 hPa 0,0 l/m² 11,8 km/h (2 Bft) W-SW 247 ° 1 min 77 W/m² 8,5 °C 6,7 °C 14,5 km/h (3 Bft)
18.04.2025 16:12 22,1 °C 10,1 °C 56 % 90 % 1011,4 hPa 0,0 l/m² 9,5 km/h (2 Bft) W-SW 257 ° 1 min 76 W/m² 8,5 °C 8,0 °C 12,9 km/h (3 Bft)
18.04.2025 16:13 22,1 °C 10,1 °C 55 % 90 % 1011,4 hPa 0,0 l/m² 7,5 km/h (2 Bft) W-SW 250 ° 1 min 76 W/m² 8,5 °C 9,3 °C 9,7 km/h (2 Bft)
18.04.2025 16:14 22,1 °C 10,1 °C 55 % 90 % 1011,4 hPa 0,0 l/m² 10,9 km/h (2 Bft) W-SW 248 ° 1 min 74 W/m² 8,5 °C 7,2 °C 14,5 km/h (3 Bft)
18.04.2025 16:15 22,1 °C 10,1 °C 55 % 90 % 1011,3 hPa 0,0 l/m² 9,3 km/h (2 Bft) W 266 ° 1 min 74 W/m² 8,5 °C 8,1 °C 14,5 km/h (3 Bft)
18.04.2025 16:16 22,1 °C 10,1 °C 55 % 90 % 1011,3 hPa 0,0 l/m² 10,6 km/h (2 Bft) W-SW 248 ° 1 min 72 W/m² 8,5 °C 7,4 °C 12,9 km/h (3 Bft)
18.04.2025 16:17 22,1 °C 10,1 °C 55 % 90 % 1011,4 hPa 0,0 l/m² 12,1 km/h (2 Bft) W 261 ° 1 min 65 W/m² 8,5 °C 6,6 °C 14,5 km/h (3 Bft)
18.04.2025 16:18 22,1 °C 10,1 °C 55 % 90 % 1011,3 hPa 0,0 l/m² 11,3 km/h (2 Bft) W-SW 257 ° 1 min 63 W/m² 8,5 °C 7,0 °C 14,5 km/h (3 Bft)
18.04.2025 16:19 22,1 °C 10,1 °C 55 % 90 % 1011,3 hPa 0,0 l/m² 10,0 km/h (2 Bft) W-SW 249 ° 1 min 65 W/m² 8,5 °C 7,7 °C 12,9 km/h (3 Bft)
18.04.2025 16:20 22,1 °C 10,1 °C 55 % 90 % 1011,2 hPa 0,0 l/m² 10,2 km/h (2 Bft) W-SW 258 ° 1 min 65 W/m² 8,5 °C 7,6 °C 12,9 km/h (3 Bft)
18.04.2025 16:21 22,1 °C 10,1 °C 55 % 89 % 1011,2 hPa 0,0 l/m² 9,7 km/h (2 Bft) W 259 ° 1 min 65 W/m² 8,4 °C 7,9 °C 12,9 km/h (3 Bft)
18.04.2025 16:22 22,1 °C 10,1 °C 55 % 90 % 1011,2 hPa 0,0 l/m² 8,9 km/h (2 Bft) W-SW 256 ° 1 min 67 W/m² 8,5 °C 8,4 °C 12,9 km/h (3 Bft)
18.04.2025 16:24 22,1 °C 10,1 °C 55 % 90 % 1011,1 hPa 0,0 l/m² 6,5 km/h (2 Bft) W-SW 254 ° 2 min 74 W/m² 8,5 °C 10,1 °C 12,9 km/h (3 Bft)
18.04.2025 16:25 22,1 °C 10,1 °C 55 % 90 % 1011,1 hPa 0,0 l/m² 9,7 km/h (2 Bft) W-SW 254 ° 1 min 76 W/m² 8,5 °C 7,9 °C 12,9 km/h (3 Bft)
18.04.2025 16:26 22,0 °C 10,2 °C 55 % 90 % 1011,1 hPa 0,0 l/m² 9,6 km/h (2 Bft) W 265 ° 1 min 77 W/m² 8,6 °C 8,0 °C 14,5 km/h (3 Bft)
18.04.2025 16:27 22,1 °C 10,2 °C 55 % 90 % 1011,1 hPa 0,0 l/m² 8,3 km/h (2 Bft) W 267 ° 1 min 76 W/m² 8,6 °C 8,9 °C 12,9 km/h (3 Bft)
18.04.2025 16:28 22,0 °C 10,2 °C 55 % 90 % 1011,0 hPa 0,0 l/m² 7,6 km/h (2 Bft) W 259 ° 1 min 70 W/m² 8,6 °C 9,3 °C 12,9 km/h (3 Bft)
18.04.2025 16:29 22,0 °C 10,2 °C 55 % 90 % 1011,0 hPa 0,0 l/m² 6,6 km/h (2 Bft) W 273 ° 1 min 65 W/m² 8,6 °C 10,1 °C 9,7 km/h (2 Bft)
18.04.2025 16:30 22,0 °C 10,2 °C 55 % 90 % 1011,0 hPa 0,0 l/m² 6,1 km/h (2 Bft) W 259 ° 1 min 62 W/m² 8,6 °C 10,2 °C 11,3 km/h (2 Bft)
18.04.2025 16:31 22,1 °C 10,2 °C 55 % 90 % 1011,0 hPa 0,0 l/m² 9,9 km/h (2 Bft) W 259 ° 1 min 62 W/m² 8,6 °C 7,9 °C 14,5 km/h (3 Bft)
18.04.2025 16:32 22,1 °C 10,2 °C 55 % 90 % 1011,0 hPa 0,0 l/m² 8,0 km/h (2 Bft) W-SW 246 ° 1 min 65 W/m² 8,6 °C 9,1 °C 12,9 km/h (3 Bft)
18.04.2025 16:33 22,1 °C 10,2 °C 55 % 90 % 1011,0 hPa 0,0 l/m² 9,3 km/h (2 Bft) W 263 ° 1 min 69 W/m² 8,6 °C 8,2 °C 14,5 km/h (3 Bft)
18.04.2025 16:34 22,2 °C 10,2 °C 55 % 90 % 1011,0 hPa 0,0 l/m² 9,9 km/h (2 Bft) W-NW 290 ° 1 min 69 W/m² 8,6 °C 7,9 °C 14,5 km/h (3 Bft)
18.04.2025 16:35 22,3 °C 10,3 °C 55 % 90 % 1011,0 hPa 0,0 l/m² 10,3 km/h (2 Bft) W 259 ° 1 min 58 W/m² 8,7 °C 7,8 °C 12,9 km/h (3 Bft)
18.04.2025 16:36 22,3 °C 10,2 °C 54 % 90 % 1011,0 hPa 0,0 l/m² 9,2 km/h (2 Bft) W-SW 239 ° 1 min 53 W/m² 8,6 °C 8,3 °C 12,9 km/h (3 Bft)
18.04.2025 16:37 22,4 °C 10,2 °C 54 % 90 % 1011,0 hPa 0,0 l/m² 8,8 km/h (2 Bft) W 271 ° 0 min 51 W/m² 8,6 °C 8,5 °C 12,9 km/h (3 Bft)
18.04.2025 16:38 22,6 °C 10,2 °C 54 % 90 % 1011,1 hPa 0,0 l/m² 8,3 km/h (2 Bft) W 265 ° 0 min 49 W/m² 8,6 °C 8,9 °C 11,3 km/h (2 Bft)
18.04.2025 16:39 22,7 °C 10,2 °C 54 % 89 % 1011,0 hPa 0,0 l/m² 6,2 km/h (2 Bft) W 259 ° 0 min 47 W/m² 8,5 °C 10,2 °C 9,7 km/h (2 Bft)
18.04.2025 16:40 22,9 °C 10,2 °C 54 % 89 % 1011,1 hPa 0,0 l/m² 4,5 km/h (1 Bft) W 276 ° 0 min 49 W/m² 8,5 °C 10,2 °C 6,4 km/h (2 Bft)
18.04.2025 16:41 23,1 °C 10,2 °C 54 % 89 % 1011,0 hPa 0,0 l/m² 4,0 km/h (1 Bft) W 264 ° 1 min 53 W/m² 8,5 °C 10,2 °C 9,7 km/h (2 Bft)
18.04.2025 16:42 23,3 °C 10,3 °C 53 % 90 % 1011,0 hPa 0,0 l/m² 10,1 km/h (2 Bft) W 274 ° 1 min 54 W/m² 8,7 °C 7,9 °C 12,9 km/h (3 Bft)
18.04.2025 16:43 23,5 °C 10,3 °C 53 % 89 % 1011,0 hPa 0,0 l/m² 6,6 km/h (2 Bft) W 271 ° 1 min 56 W/m² 8,6 °C 10,2 °C 11,3 km/h (2 Bft)
18.04.2025 16:44 23,7 °C 10,3 °C 53 % 89 % 1010,9 hPa 0,0 l/m² 5,8 km/h (2 Bft) W 279 ° 1 min 58 W/m² 8,6 °C 10,3 °C 11,3 km/h (2 Bft)
18.04.2025 16:45 23,9 °C 10,3 °C 52 % 89 % 1011,0 hPa 0,0 l/m² 10,1 km/h (2 Bft) W 271 ° 1 min 62 W/m² 8,6 °C 7,9 °C 12,9 km/h (3 Bft)
18.04.2025 16:46 24,2 °C 10,3 °C 52 % 89 % 1011,0 hPa 0,0 l/m² 10,5 km/h (2 Bft) W 268 ° 1 min 67 W/m² 8,6 °C 7,6 °C 12,9 km/h (3 Bft)
18.04.2025 16:47 24,4 °C 10,3 °C 52 % 89 % 1011,1 hPa 0,0 l/m² 10,1 km/h (2 Bft) W-NW 283 ° 1 min 74 W/m² 8,6 °C 7,9 °C 12,9 km/h (3 Bft)
18.04.2025 16:48 24,6 °C 10,3 °C 51 % 89 % 1011,1 hPa 0,0 l/m² 7,1 km/h (2 Bft) NW 320 ° 1 min 79 W/m² 8,6 °C 9,8 °C 9,7 km/h (2 Bft)
18.04.2025 16:49 24,7 °C 10,3 °C 50 % 89 % 1011,1 hPa 0,0 l/m² 4,6 km/h (1 Bft) W-NW 292 ° 1 min 81 W/m² 8,6 °C 10,3 °C 8,0 km/h (2 Bft)
18.04.2025 16:50 24,8 °C 10,3 °C 49 % 89 % 1011,1 hPa 0,0 l/m² 4,9 km/h (1 Bft) W-NW 285 ° 1 min 77 W/m² 8,6 °C 10,3 °C 6,4 km/h (2 Bft)
18.04.2025 16:51 24,9 °C 10,3 °C 48 % 89 % 1011,1 hPa 0,0 l/m² 2,9 km/h (1 Bft) NW 317 ° 1 min 76 W/m² 8,6 °C 10,3 °C 4,8 km/h (1 Bft)
18.04.2025 16:52 24,9 °C 10,3 °C 47 % 89 % 1011,2 hPa 0,0 l/m² 1,9 km/h (1 Bft) W 279 ° 1 min 79 W/m² 8,6 °C 10,3 °C 4,8 km/h (1 Bft)
18.04.2025 16:53 25,1 °C 10,3 °C 47 % 90 % 1011,2 hPa 0,0 l/m² 4,9 km/h (1 Bft) W 263 ° 1 min 79 W/m² 8,7 °C 10,3 °C 9,7 km/h (2 Bft)
18.04.2025 16:54 25,1 °C 10,4 °C 46 % 89 % 1011,1 hPa 0,0 l/m² 3,2 km/h (1 Bft) W-NW 285 ° 1 min 76 W/m² 8,7 °C 10,4 °C 6,4 km/h (2 Bft)
18.04.2025 16:55 25,2 °C 10,4 °C 46 % 89 % 1011,1 hPa 0,0 l/m² 1,0 km/h (0 Bft) W-NW 285 ° 1 min 70 W/m² 8,7 °C 10,4 °C 1,6 km/h (1 Bft)
18.04.2025 16:56 25,2 °C 10,4 °C 46 % 90 % 1011,1 hPa 0,0 l/m² 3,2 km/h (1 Bft) NW 318 ° 1 min 67 W/m² 8,8 °C 10,4 °C 4,8 km/h (1 Bft)
18.04.2025 16:57 25,3 °C 10,5 °C 45 % 90 % 1011,1 hPa 0,0 l/m² 2,7 km/h (1 Bft) W-NW 284 ° 1 min 63 W/m² 8,9 °C 10,5 °C 4,8 km/h (1 Bft)
18.04.2025 16:58 25,3 °C 10,5 °C 45 % 89 % 1011,1 hPa 0,0 l/m² 4,0 km/h (1 Bft) W-NW 290 ° 1 min 60 W/m² 8,8 °C 10,5 °C 8,0 km/h (2 Bft)
18.04.2025 16:59 25,4 °C 10,5 °C 45 % 89 % 1011,1 hPa 0,0 l/m² 4,7 km/h (1 Bft) NW 316 ° 1 min 60 W/m² 8,8 °C 10,5 °C 6,4 km/h (2 Bft)
18.04.2025 17:00 25,4 °C 10,5 °C 45 % 89 % 1011,2 hPa 0,0 l/m² 4,1 km/h (1 Bft) W-NW 294 ° 1 min 60 W/m² 8,8 °C 10,5 °C 6,4 km/h (2 Bft)
18.04.2025 17:01 25,6 °C 10,5 °C 45 % 89 % 1011,1 hPa 0,0 l/m² 3,8 km/h (1 Bft) W 264 ° 1 min 58 W/m² 8,8 °C 10,5 °C 8,0 km/h (2 Bft)
18.04.2025 17:03 25,8 °C 10,4 °C 44 % 89 % 1011,2 hPa 0,0 l/m² 7,8 km/h (2 Bft) W-NW 293 ° 2 min 74 W/m² 8,7 °C 9,4 °C 16,1 km/h (3 Bft)
18.04.2025 17:04 25,8 °C 10,5 °C 44 % 89 % 1011,2 hPa 0,0 l/m² 2,0 km/h (1 Bft) W-NW 299 ° 1 min 76 W/m² 8,8 °C 10,5 °C 3,2 km/h (1 Bft)
18.04.2025 17:05 25,9 °C 10,5 °C 43 % 89 % 1011,3 hPa 0,0 l/m² 4,2 km/h (1 Bft) NW 311 ° 1 min 76 W/m² 8,8 °C 10,5 °C 6,4 km/h (2 Bft)
18.04.2025 17:06 25,9 °C 10,6 °C 43 % 89 % 1011,3 hPa 0,0 l/m² 5,0 km/h (1 Bft) W 279 ° 1 min 72 W/m² 8,9 °C 10,6 °C 8,0 km/h (2 Bft)
18.04.2025 17:07 25,9 °C 10,5 °C 43 % 89 % 1011,3 hPa 0,0 l/m² 9,1 km/h (2 Bft) W 280 ° 1 min 70 W/m² 8,8 °C 8,7 °C 12,9 km/h (3 Bft)
18.04.2025 17:08 26,0 °C 10,5 °C 43 % 89 % 1011,4 hPa 0,0 l/m² 9,4 km/h (2 Bft) W 271 ° 1 min 70 W/m² 8,8 °C 8,5 °C 12,9 km/h (3 Bft)
18.04.2025 17:09 26,1 °C 10,4 °C 42 % 89 % 1011,3 hPa 0,0 l/m² 8,7 km/h (2 Bft) W-SW 257 ° 1 min 69 W/m² 8,7 °C 8,8 °C 12,9 km/h (3 Bft)
18.04.2025 17:10 26,1 °C 10,4 °C 42 % 88 % 1011,4 hPa 0,0 l/m² 10,6 km/h (2 Bft) W-NW 302 ° 1 min 63 W/m² 8,5 °C 7,7 °C 14,5 km/h (3 Bft)
18.04.2025 17:11 26,2 °C 10,4 °C 42 % 88 % 1011,4 hPa 0,0 l/m² 5,5 km/h (2 Bft) W 267 ° 1 min 62 W/m² 8,5 °C 10,4 °C 9,7 km/h (2 Bft)
18.04.2025 17:12 26,2 °C 10,4 °C 42 % 88 % 1011,3 hPa 0,0 l/m² 5,5 km/h (2 Bft) W-NW 284 ° 1 min 62 W/m² 8,5 °C 10,4 °C 8,0 km/h (2 Bft)
18.04.2025 17:13 26,3 °C 10,4 °C 42 % 88 % 1011,2 hPa 0,0 l/m² 5,8 km/h (2 Bft) W 275 ° 1 min 63 W/m² 8,5 °C 10,4 °C 11,3 km/h (2 Bft)
18.04.2025 17:14 26,3 °C 10,4 °C 41 % 88 % 1011,2 hPa 0,0 l/m² 3,2 km/h (1 Bft) W-NW 287 ° 1 min 63 W/m² 8,5 °C 10,4 °C 6,4 km/h (2 Bft)
18.04.2025 17:15 26,4 °C 10,4 °C 41 % 88 % 1011,3 hPa 0,0 l/m² 2,9 km/h (1 Bft) W 267 ° 1 min 69 W/m² 8,5 °C 10,4 °C 4,8 km/h (1 Bft)
18.04.2025 17:16 26,5 °C 10,4 °C 41 % 88 % 1011,3 hPa 0,0 l/m² 6,7 km/h (2 Bft) W 268 ° 1 min 65 W/m² 8,5 °C 10,2 °C 11,3 km/h (2 Bft)
18.04.2025 17:17 26,6 °C 10,4 °C 41 % 88 % 1011,4 hPa 0,0 l/m² 8,2 km/h (2 Bft) W-NW 286 ° 1 min 63 W/m² 8,5 °C 9,1 °C 14,5 km/h (3 Bft)
18.04.2025 17:18 26,6 °C 10,4 °C 41 % 88 % 1011,4 hPa 0,0 l/m² 8,4 km/h (2 Bft) W-NW 284 ° 1 min 63 W/m² 8,5 °C 9,0 °C 12,9 km/h (3 Bft)
18.04.2025 17:19 26,7 °C 10,4 °C 40 % 88 % 1011,4 hPa 0,0 l/m² 5,0 km/h (1 Bft) W 279 ° 1 min 65 W/m² 8,5 °C 10,4 °C 9,7 km/h (2 Bft)
18.04.2025 17:20 26,7 °C 10,4 °C 40 % 88 % 1011,4 hPa 0,0 l/m² 6,3 km/h (2 Bft) W-NW 289 ° 1 min 67 W/m² 8,5 °C 10,4 °C 9,7 km/h (2 Bft)
18.04.2025 17:21 26,8 °C 10,4 °C 40 % 88 % 1011,4 hPa 0,0 l/m² 3,8 km/h (1 Bft) W 275 ° 1 min 74 W/m² 8,5 °C 10,4 °C 6,4 km/h (2 Bft)
18.04.2025 17:22 26,8 °C 10,4 °C 40 % 88 % 1011,4 hPa 0,0 l/m² 3,8 km/h (1 Bft) W 279 ° 1 min 77 W/m² 8,5 °C 10,4 °C 6,4 km/h (2 Bft)
18.04.2025 17:23 26,9 °C 10,5 °C 40 % 88 % 1011,4 hPa 0,0 l/m² 4,1 km/h (1 Bft) W 277 ° 1 min 79 W/m² 8,6 °C 10,5 °C 6,4 km/h (2 Bft)
18.04.2025 17:24 26,9 °C 10,5 °C 40 % 88 % 1011,4 hPa 0,0 l/m² 5,2 km/h (1 Bft) W-NW 302 ° 1 min 77 W/m² 8,6 °C 10,5 °C 6,4 km/h (2 Bft)
18.04.2025 17:25 27,0 °C 10,6 °C 39 % 88 % 1011,5 hPa 0,0 l/m² 4,8 km/h (1 Bft) W 278 ° 1 min 76 W/m² 8,7 °C 10,6 °C 9,7 km/h (2 Bft)
18.04.2025 17:26 27,1 °C 10,6 °C 39 % 88 % 1011,4 hPa 0,0 l/m² 5,3 km/h (1 Bft) W-NW 301 ° 1 min 70 W/m² 8,7 °C 10,6 °C 9,7 km/h (2 Bft)
18.04.2025 17:27 27,1 °C 10,6 °C 39 % 88 % 1011,4 hPa 0,0 l/m² 3,4 km/h (1 Bft) W 279 ° 1 min 60 W/m² 8,7 °C 10,6 °C 4,8 km/h (1 Bft)
18.04.2025 17:28 27,2 °C 10,6 °C 39 % 88 % 1011,4 hPa 0,0 l/m² 3,7 km/h (1 Bft) W 273 ° 1 min 56 W/m² 8,7 °C 10,6 °C 4,8 km/h (1 Bft)
18.04.2025 17:29 27,2 °C 10,6 °C 39 % 88 % 1011,3 hPa 0,0 l/m² 1,9 km/h (1 Bft) W 280 ° 1 min 56 W/m² 8,7 °C 10,6 °C 4,8 km/h (1 Bft)
18.04.2025 17:30 27,3 °C 10,6 °C 39 % 88 % 1011,4 hPa 0,0 l/m² 3,9 km/h (1 Bft) W 270 ° 1 min 58 W/m² 8,7 °C 10,6 °C 6,4 km/h (2 Bft)
18.04.2025 17:31 27,3 °C 10,7 °C 39 % 88 % 1011,3 hPa 0,0 l/m² 5,3 km/h (1 Bft) W 263 ° 1 min 65 W/m² 8,8 °C 10,7 °C 9,7 km/h (2 Bft)
18.04.2025 17:32 27,3 °C 10,6 °C 39 % 88 % 1011,2 hPa 0,0 l/m² 3,6 km/h (1 Bft) W-NW 297 ° 1 min 72 W/m² 8,7 °C 10,6 °C 6,4 km/h (2 Bft)
18.04.2025 17:33 27,4 °C 10,6 °C 39 % 88 % 1011,2 hPa 0,0 l/m² 5,6 km/h (2 Bft) W 275 ° 1 min 91 W/m² 8,7 °C 10,6 °C 9,7 km/h (2 Bft)
18.04.2025 17:34 27,4 °C 10,6 °C 39 % 88 % 1011,3 hPa 0,0 l/m² 3,6 km/h (1 Bft) W 267 ° 1 min 98 W/m² 8,7 °C 10,6 °C 4,8 km/h (1 Bft)
18.04.2025 17:35 27,4 °C 10,7 °C 39 % 88 % 1011,2 hPa 0,0 l/m² 3,8 km/h (1 Bft) W 266 ° 1 min 104 W/m² 8,8 °C 10,7 °C 4,8 km/h (1 Bft)
18.04.2025 17:36 27,6 °C 10,7 °C 39 % 88 % 1011,2 hPa 0,0 l/m² 3,7 km/h (1 Bft) W 275 ° 1 min 111 W/m² 8,8 °C 10,7 °C 6,4 km/h (2 Bft)
18.04.2025 17:37 27,5 °C 10,7 °C 39 % 88 % 1011,2 hPa 0,0 l/m² 4,5 km/h (1 Bft) W-NW 287 ° 1 min 123 W/m² 8,8 °C 10,7 °C 6,4 km/h (2 Bft)
18.04.2025 17:38 27,6 °C 10,8 °C 38 % 88 % 1011,3 hPa 0,0 l/m² 2,7 km/h (1 Bft) W-NW 283 ° 1 min 135 W/m² 8,9 °C 10,8 °C 4,8 km/h (1 Bft)
18.04.2025 17:39 27,6 °C 10,8 °C 38 % 88 % 1011,3 hPa 0,0 l/m² 3,0 km/h (1 Bft) W 272 ° 1 min 146 W/m² 8,9 °C 10,8 °C 4,8 km/h (1 Bft)
18.04.2025 17:40 27,6 °C 10,8 °C 38 % 88 % 1011,2 hPa 0,0 l/m² 7,1 km/h (2 Bft) W 267 ° 1 min 148 W/m² 8,9 °C 10,3 °C 9,7 km/h (2 Bft)
18.04.2025 17:41 27,6 °C 10,8 °C 38 % 88 % 1011,4 hPa 0,0 l/m² 8,2 km/h (2 Bft) W-NW 299 ° 1 min 142 W/m² 8,9 °C 9,6 °C 11,3 km/h (2 Bft)
18.04.2025 17:42 27,7 °C 10,8 °C 38 % 88 % 1011,4 hPa 0,0 l/m² 4,5 km/h (1 Bft) W 259 ° 1 min 134 W/m² 8,9 °C 10,8 °C 6,4 km/h (2 Bft)
18.04.2025 17:43 27,7 °C 10,8 °C 38 % 88 % 1011,3 hPa 0,0 l/m² 5,5 km/h (2 Bft) W 277 ° 1 min 123 W/m² 8,9 °C 10,8 °C 9,7 km/h (2 Bft)
18.04.2025 17:44 27,8 °C 10,9 °C 38 % 87 % 1011,4 hPa 0,0 l/m² 2,6 km/h (1 Bft) W 271 ° 1 min 113 W/m² 8,8 °C 10,9 °C 3,2 km/h (1 Bft)
18.04.2025 17:45 27,8 °C 10,9 °C 38 % 87 % 1011,4 hPa 0,0 l/m² 6,6 km/h (2 Bft) W 273 ° 1 min 91 W/m² 8,8 °C 10,8 °C 11,3 km/h (2 Bft)
18.04.2025 17:46 27,8 °C 10,9 °C 38 % 87 % 1011,4 hPa 0,0 l/m² 5,0 km/h (1 Bft) W 277 ° 1 min 81 W/m² 8,8 °C 10,9 °C 11,3 km/h (2 Bft)
18.04.2025 17:47 27,9 °C 10,9 °C 38 % 87 % 1011,4 hPa 0,0 l/m² 4,8 km/h (1 Bft) W 271 ° 1 min 72 W/m² 8,8 °C 10,9 °C 9,7 km/h (2 Bft)
18.04.2025 17:48 28,0 °C 10,9 °C 38 % 87 % 1011,3 hPa 0,0 l/m² 6,0 km/h (2 Bft) W 264 ° 1 min 69 W/m² 8,8 °C 10,9 °C 9,7 km/h (2 Bft)
18.04.2025 17:49 28,1 °C 10,9 °C 38 % 87 % 1011,3 hPa 0,0 l/m² 7,6 km/h (2 Bft) NW 311 ° 1 min 67 W/m² 8,8 °C 10,1 °C 12,9 km/h (3 Bft)
18.04.2025 17:50 28,1 °C 10,9 °C 37 % 87 % 1011,4 hPa 0,0 l/m² 2,9 km/h (1 Bft) W-NW 302 ° 1 min 65 W/m² 8,8 °C 10,9 °C 4,8 km/h (1 Bft)
18.04.2025 17:51 28,2 °C 10,9 °C 37 % 87 % 1011,4 hPa 0,0 l/m² 2,8 km/h (1 Bft) W 262 ° 1 min 58 W/m² 8,8 °C 10,9 °C 6,4 km/h (2 Bft)
18.04.2025 17:52 28,2 °C 10,9 °C 37 % 87 % 1011,4 hPa 0,0 l/m² 7,2 km/h (2 Bft) W 269 ° 1 min 53 W/m² 8,8 °C 10,3 °C 9,7 km/h (2 Bft)
18.04.2025 17:53 28,2 °C 10,8 °C 37 % 86 % 1011,4 hPa 0,0 l/m² 7,7 km/h (2 Bft) W 268 ° 0 min 49 W/m² 8,6 °C 9,9 °C 11,3 km/h (2 Bft)
18.04.2025 17:54 28,3 °C 10,8 °C 37 % 86 % 1011,4 hPa 0,0 l/m² 4,7 km/h (1 Bft) W-NW 284 ° 0 min 47 W/m² 8,6 °C 10,8 °C 8,0 km/h (2 Bft)
18.04.2025 17:55 28,4 °C 10,8 °C 37 % 86 % 1011,4 hPa 0,0 l/m² 6,3 km/h (2 Bft) W-NW 288 ° 0 min 47 W/m² 8,6 °C 10,8 °C 9,7 km/h (2 Bft)
18.04.2025 17:56 28,4 °C 10,8 °C 37 % 86 % 1011,3 hPa 0,0 l/m² 9,6 km/h (2 Bft) W 275 ° 0 min 49 W/m² 8,6 °C 8,7 °C 12,9 km/h (3 Bft)
18.04.2025 17:57 28,5 °C 10,8 °C 37 % 86 % 1011,4 hPa 0,0 l/m² 10,4 km/h (2 Bft) W 276 ° 0 min 46 W/m² 8,6 °C 8,3 °C 14,5 km/h (3 Bft)
18.04.2025 17:58 28,6 °C 10,8 °C 37 % 86 % 1011,3 hPa 0,0 l/m² 12,0 km/h (2 Bft) W 271 ° 0 min 44 W/m² 8,6 °C 7,4 °C 14,5 km/h (3 Bft)
18.04.2025 17:59 28,6 °C 10,8 °C 36 % 86 % 1011,3 hPa 0,0 l/m² 6,3 km/h (2 Bft) W-SW 246 ° 0 min 40 W/m² 8,6 °C 10,8 °C 11,3 km/h (2 Bft)
18.04.2025 18:00 28,6 °C 10,8 °C 36 % 87 % 1011,4 hPa 0,0 l/m² 5,5 km/h (2 Bft) W 277 ° 0 min 35 W/m² 8,7 °C 10,8 °C 6,4 km/h (2 Bft)
18.04.2025 18:01 28,7 °C 10,8 °C 36 % 87 % 1011,2 hPa 0,0 l/m² 12,3 km/h (2 Bft) W 265 ° 0 min 33 W/m² 8,7 °C 7,3 °C 16,1 km/h (3 Bft)
18.04.2025 18:02 28,7 °C 10,8 °C 36 % 87 % 1011,2 hPa 0,0 l/m² 11,7 km/h (2 Bft) W 278 ° 0 min 33 W/m² 8,7 °C 7,6 °C 16,1 km/h (3 Bft)
18.04.2025 18:03 28,8 °C 10,8 °C 36 % 87 % 1011,2 hPa 0,0 l/m² 9,4 km/h (2 Bft) W-NW 286 ° 0 min 33 W/m² 8,7 °C 8,8 °C 16,1 km/h (3 Bft)
18.04.2025 18:04 28,8 °C 10,7 °C 36 % 87 % 1011,1 hPa 0,0 l/m² 11,4 km/h (2 Bft) W 267 ° 0 min 33 W/m² 8,6 °C 7,6 °C 14,5 km/h (3 Bft)
18.04.2025 18:05 28,8 °C 10,7 °C 36 % 87 % 1011,1 hPa 0,0 l/m² 12,4 km/h (2 Bft) W 268 ° 0 min 33 W/m² 8,6 °C 7,1 °C 17,7 km/h (3 Bft)
18.04.2025 18:06 28,9 °C 10,7 °C 36 % 87 % 1011,1 hPa 0,0 l/m² 12,2 km/h (2 Bft) W-NW 290 ° 0 min 33 W/m² 8,6 °C 7,2 °C 17,7 km/h (3 Bft)
18.04.2025 18:07 28,9 °C 10,7 °C 36 % 87 % 1011,1 hPa 0,0 l/m² 9,5 km/h (2 Bft) W 261 ° 0 min 32 W/m² 8,6 °C 8,7 °C 14,5 km/h (3 Bft)
18.04.2025 18:08 28,9 °C 10,7 °C 36 % 87 % 1011,1 hPa 0,0 l/m² 10,4 km/h (2 Bft) W-NW 290 ° 0 min 30 W/m² 8,6 °C 8,1 °C 14,5 km/h (3 Bft)
18.04.2025 18:09 28,9 °C 10,6 °C 36 % 87 % 1011,1 hPa 0,0 l/m² 10,1 km/h (2 Bft) W 261 ° 0 min 28 W/m² 8,5 °C 8,2 °C 14,5 km/h (3 Bft)
18.04.2025 18:10 29,0 °C 10,6 °C 36 % 87 % 1011,0 hPa 0,0 l/m² 10,8 km/h (2 Bft) W-SW 254 ° 0 min 28 W/m² 8,5 °C 7,8 °C 19,3 km/h (3 Bft)
18.04.2025 18:11 29,1 °C 10,6 °C 36 % 87 % 1011,1 hPa 0,0 l/m² 15,0 km/h (3 Bft) W-NW 302 ° 0 min 28 W/m² 8,5 °C 5,9 °C 17,7 km/h (3 Bft)
18.04.2025 18:12 29,2 °C 10,6 °C 36 % 87 % 1011,0 hPa 0,0 l/m² 12,7 km/h (3 Bft) W 262 ° 0 min 28 W/m² 8,5 °C 6,9 °C 17,7 km/h (3 Bft)
18.04.2025 18:13 29,3 °C 10,5 °C 36 % 86 % 1011,0 hPa 0,0 l/m² 13,3 km/h (3 Bft) W-SW 238 ° 0 min 28 W/m² 8,3 °C 6,5 °C 17,7 km/h (3 Bft)
18.04.2025 18:14 29,3 °C 10,5 °C 36 % 86 % 1011,0 hPa 0,0 l/m² 9,9 km/h (2 Bft) W-SW 257 ° 0 min 28 W/m² 8,3 °C 8,2 °C 16,1 km/h (3 Bft)
18.04.2025 18:15 29,4 °C 10,5 °C 37 % 86 % 1010,9 hPa 0,0 l/m² 12,5 km/h (2 Bft) W-NW 300 ° 0 min 28 W/m² 8,3 °C 6,8 °C 19,3 km/h (3 Bft)
18.04.2025 18:16 29,6 °C 10,4 °C 37 % 86 % 1011,0 hPa 0,0 l/m² 15,4 km/h (3 Bft) W 281 ° 0 min 30 W/m² 8,2 °C 5,5 °C 20,9 km/h (4 Bft)
18.04.2025 18:17 29,7 °C 10,4 °C 37 % 86 % 1011,0 hPa 0,0 l/m² 15,9 km/h (3 Bft) W-NW 286 ° 0 min 30 W/m² 8,2 °C 5,3 °C 20,9 km/h (4 Bft)
18.04.2025 18:18 29,7 °C 10,4 °C 37 % 86 % 1011,1 hPa 0,0 l/m² 12,7 km/h (3 Bft) W 266 ° 0 min 32 W/m² 8,2 °C 6,6 °C 16,1 km/h (3 Bft)
18.04.2025 18:19 29,8 °C 10,4 °C 37 % 86 % 1011,0 hPa 0,0 l/m² 15,4 km/h (3 Bft) W-NW 282 ° 0 min 33 W/m² 8,2 °C 5,5 °C 19,3 km/h (3 Bft)
18.04.2025 18:20 29,9 °C 10,4 °C 37 % 86 % 1011,1 hPa 0,0 l/m² 12,9 km/h (3 Bft) W-SW 251 ° 0 min 39 W/m² 8,2 °C 6,5 °C 19,3 km/h (3 Bft)
18.04.2025 18:21 30,0 °C 10,4 °C 37 % 86 % 1011,1 hPa 0,0 l/m² 13,7 km/h (3 Bft) W 280 ° 0 min 40 W/m² 8,2 °C 6,2 °C 16,1 km/h (3 Bft)
18.04.2025 18:22 30,1 °C 10,3 °C 36 % 87 % 1011,1 hPa 0,0 l/m² 12,9 km/h (3 Bft) W-NW 290 ° 0 min 40 W/m² 8,2 °C 6,4 °C 17,7 km/h (3 Bft)
18.04.2025 18:23 30,1 °C 10,3 °C 36 % 87 % 1011,2 hPa 0,0 l/m² 9,9 km/h (2 Bft) W-NW 285 ° 0 min 40 W/m² 8,2 °C 8,0 °C 14,5 km/h (3 Bft)
18.04.2025 18:24 30,1 °C 10,3 °C 35 % 87 % 1011,1 hPa 0,0 l/m² 11,0 km/h (2 Bft) W 268 ° 0 min 42 W/m² 8,2 °C 7,4 °C 17,7 km/h (3 Bft)
18.04.2025 18:25 30,1 °C 10,3 °C 34 % 87 % 1011,1 hPa 0,0 l/m² 10,9 km/h (2 Bft) W 268 ° 0 min 44 W/m² 8,2 °C 7,4 °C 17,7 km/h (3 Bft)
18.04.2025 18:26 30,0 °C 10,3 °C 34 % 87 % 1011,1 hPa 0,0 l/m² 11,4 km/h (2 Bft) W 269 ° 1 min 54 W/m² 8,2 °C 7,2 °C 16,1 km/h (3 Bft)
18.04.2025 18:27 29,9 °C 10,3 °C 34 % 87 % 1011,1 hPa 0,0 l/m² 8,6 km/h (2 Bft) W 277 ° 1 min 58 W/m² 8,2 °C 8,8 °C 14,5 km/h (3 Bft)
18.04.2025 18:28 29,9 °C 10,3 °C 34 % 87 % 1011,0 hPa 0,0 l/m² 9,9 km/h (2 Bft) W-NW 284 ° 1 min 60 W/m² 8,2 °C 8,0 °C 12,9 km/h (3 Bft)
18.04.2025 18:29 29,9 °C 10,3 °C 34 % 87 % 1011,1 hPa 0,0 l/m² 7,2 km/h (2 Bft) W 279 ° 1 min 60 W/m² 8,2 °C 9,7 °C 11,3 km/h (2 Bft)
18.04.2025 18:30 29,8 °C 10,3 °C 33 % 87 % 1011,1 hPa 0,0 l/m² 10,5 km/h (2 Bft) W-NW 286 ° 1 min 56 W/m² 8,2 °C 7,6 °C 17,7 km/h (3 Bft)
18.04.2025 18:31 29,8 °C 10,2 °C 33 % 87 % 1011,1 hPa 0,0 l/m² 10,1 km/h (2 Bft) W 275 ° 1 min 53 W/m² 8,1 °C 7,8 °C 16,1 km/h (3 Bft)
18.04.2025 18:32 29,7 °C 10,2 °C 33 % 87 % 1011,0 hPa 0,0 l/m² 10,9 km/h (2 Bft) W-NW 293 ° 0 min 44 W/m² 8,1 °C 7,3 °C 12,9 km/h (3 Bft)
18.04.2025 18:33 29,7 °C 10,2 °C 33 % 87 % 1011,1 hPa 0,0 l/m² 13,0 km/h (3 Bft) W 270 ° 0 min 40 W/m² 8,1 °C 6,3 °C 16,1 km/h (3 Bft)
18.04.2025 18:34 29,6 °C 10,2 °C 33 % 88 % 1011,1 hPa 0,0 l/m² 13,9 km/h (3 Bft) W 274 ° 0 min 39 W/m² 8,3 °C 5,8 °C 17,7 km/h (3 Bft)
18.04.2025 18:35 29,6 °C 10,2 °C 34 % 88 % 1011,1 hPa 0,0 l/m² 10,5 km/h (2 Bft) W-NW 290 ° 0 min 37 W/m² 8,3 °C 7,5 °C 16,1 km/h (3 Bft)
18.04.2025 18:36 29,6 °C 10,2 °C 34 % 88 % 1011,1 hPa 0,0 l/m² 4,9 km/h (1 Bft) W 266 ° 0 min 37 W/m² 8,3 °C 10,2 °C 11,3 km/h (2 Bft)
18.04.2025 18:37 29,5 °C 10,2 °C 34 % 88 % 1011,1 hPa 0,0 l/m² 5,3 km/h (1 Bft) W-NW 284 ° 0 min 37 W/m² 8,3 °C 10,2 °C 8,0 km/h (2 Bft)
18.04.2025 18:38 29,6 °C 10,2 °C 34 % 88 % 1011,0 hPa 0,0 l/m² 5,2 km/h (1 Bft) W-NW 286 ° 0 min 39 W/m² 8,3 °C 10,2 °C 9,7 km/h (2 Bft)
18.04.2025 18:39 29,6 °C 10,2 °C 35 % 88 % 1011,0 hPa 0,0 l/m² 5,0 km/h (1 Bft) N-NW 329 ° 0 min 40 W/m² 8,3 °C 10,2 °C 9,7 km/h (2 Bft)
18.04.2025 18:40 29,6 °C 10,2 °C 35 % 88 % 1011,1 hPa 0,0 l/m² 9,1 km/h (2 Bft) W-NW 292 ° 0 min 44 W/m² 8,3 °C 8,4 °C 20,9 km/h (4 Bft)
18.04.2025 18:41 29,7 °C 10,2 °C 35 % 88 % 1011,2 hPa 0,0 l/m² 6,6 km/h (2 Bft) W-NW 288 ° 0 min 47 W/m² 8,3 °C 10,1 °C 14,5 km/h (3 Bft)
18.04.2025 18:42 29,7 °C 10,2 °C 35 % 88 % 1011,1 hPa 0,0 l/m² 6,0 km/h (2 Bft) N-NW 348 ° 0 min 47 W/m² 8,3 °C 10,2 °C 12,9 km/h (3 Bft)
18.04.2025 18:43 29,8 °C 10,2 °C 35 % 88 % 1011,1 hPa 0,0 l/m² 5,9 km/h (2 Bft) W 267 ° 0 min 47 W/m² 8,3 °C 10,2 °C 14,5 km/h (3 Bft)
18.04.2025 18:44 29,8 °C 10,2 °C 35 % 88 % 1011,1 hPa 0,0 l/m² 10,6 km/h (2 Bft) W 281 ° 0 min 44 W/m² 8,3 °C 7,5 °C 14,5 km/h (3 Bft)
18.04.2025 18:46 29,9 °C 10,2 °C 35 % 88 % 1011,1 hPa 0,0 l/m² 7,1 km/h (2 Bft) W 271 ° 0 min 42 W/m² 8,3 °C 9,7 °C 12,9 km/h (3 Bft)
18.04.2025 18:47 30,0 °C 10,2 °C 35 % 88 % 1011,1 hPa 0,0 l/m² 7,8 km/h (2 Bft) NW 319 ° 0 min 40 W/m² 8,3 °C 9,2 °C 14,5 km/h (3 Bft)
18.04.2025 18:48 30,1 °C 10,2 °C 35 % 88 % 1011,1 hPa 0,0 l/m² 7,0 km/h (2 Bft) NW 317 ° 0 min 39 W/m² 8,3 °C 9,8 °C 12,9 km/h (3 Bft)
18.04.2025 18:49 30,2 °C 10,2 °C 35 % 88 % 1011,2 hPa 0,0 l/m² 7,8 km/h (2 Bft) W 275 ° 0 min 37 W/m² 8,3 °C 9,2 °C 14,5 km/h (3 Bft)
18.04.2025 18:50 30,2 °C 10,2 °C 35 % 88 % 1011,1 hPa 0,0 l/m² 6,7 km/h (2 Bft) W-SW 254 ° 0 min 37 W/m² 8,3 °C 10,0 °C 12,9 km/h (3 Bft)
18.04.2025 18:51 30,2 °C 10,2 °C 35 % 88 % 1011,1 hPa 0,0 l/m² 10,1 km/h (2 Bft) W 281 ° 0 min 37 W/m² 8,3 °C 7,8 °C 16,1 km/h (3 Bft)
18.04.2025 18:52 30,2 °C 10,2 °C 35 % 88 % 1011,0 hPa 0,0 l/m² 8,7 km/h (2 Bft) W 279 ° 0 min 39 W/m² 8,3 °C 8,6 °C 12,9 km/h (3 Bft)
18.04.2025 18:53 30,3 °C 10,1 °C 35 % 88 % 1011,0 hPa 0,0 l/m² 12,1 km/h (2 Bft) W-NW 285 ° 0 min 39 W/m² 8,2 °C 6,6 °C 17,7 km/h (3 Bft)
18.04.2025 18:54 30,3 °C 10,1 °C 36 % 88 % 1011,0 hPa 0,0 l/m² 10,7 km/h (2 Bft) NW 310 ° 0 min 39 W/m² 8,2 °C 7,3 °C 16,1 km/h (3 Bft)
18.04.2025 18:55 30,4 °C 10,1 °C 36 % 88 % 1011,1 hPa 0,0 l/m² 5,9 km/h (2 Bft) W-SW 252 ° 0 min 33 W/m² 8,2 °C 10,1 °C 12,9 km/h (3 Bft)
18.04.2025 18:56 30,4 °C 10,1 °C 36 % 88 % 1011,2 hPa 0,0 l/m² 9,6 km/h (2 Bft) NW 311 ° 0 min 30 W/m² 8,2 °C 7,9 °C 16,1 km/h (3 Bft)
18.04.2025 18:57 30,4 °C 10,1 °C 36 % 88 % 1011,2 hPa 0,0 l/m² 6,9 km/h (2 Bft) W-NW 285 ° 0 min 26 W/m² 8,2 °C 9,7 °C 12,9 km/h (3 Bft)
18.04.2025 18:58 30,4 °C 10,0 °C 36 % 88 % 1011,2 hPa 0,0 l/m² 7,7 km/h (2 Bft) W 270 ° 0 min 25 W/m² 8,1 °C 9,1 °C 14,5 km/h (3 Bft)
18.04.2025 18:59 30,5 °C 10,1 °C 36 % 88 % 1011,2 hPa 0,0 l/m² 8,1 km/h (2 Bft) W-NW 289 ° 0 min 23 W/m² 8,2 °C 8,9 °C 14,5 km/h (3 Bft)
18.04.2025 19:00 30,6 °C 10,0 °C 36 % 87 % 1011,1 hPa 0,0 l/m² 5,4 km/h (2 Bft) W 277 ° 0 min 21 W/m² 7,9 °C 10,0 °C 12,9 km/h (3 Bft)
18.04.2025 19:01 30,6 °C 10,0 °C 36 % 87 % 1011,2 hPa 0,0 l/m² 6,4 km/h (2 Bft) NW 310 ° 0 min 21 W/m² 7,9 °C 10,0 °C 12,9 km/h (3 Bft)
18.04.2025 19:03 30,6 °C 10,0 °C 36 % 87 % 1011,2 hPa 0,0 l/m² 4,6 km/h (1 Bft) W-NW 302 ° 0 min 21 W/m² 7,9 °C 10,0 °C 11,3 km/h (2 Bft)
18.04.2025 19:04 30,6 °C 10,0 °C 36 % 87 % 1011,2 hPa 0,0 l/m² 5,7 km/h (2 Bft) W 277 ° 0 min 21 W/m² 7,9 °C 10,0 °C 11,3 km/h (2 Bft)
18.04.2025 19:05 30,6 °C 10,0 °C 36 % 87 % 1011,2 hPa 0,0 l/m² 6,4 km/h (2 Bft) W 280 ° 0 min 21 W/m² 7,9 °C 10,0 °C 11,3 km/h (2 Bft)
18.04.2025 19:06 30,6 °C 9,9 °C 36 % 88 % 1011,2 hPa 0,0 l/m² 8,2 km/h (2 Bft) N-NW 333 ° 0 min 21 W/m² 8,0 °C 8,6 °C 14,5 km/h (3 Bft)
18.04.2025 19:07 30,6 °C 9,9 °C 36 % 87 % 1011,1 hPa 0,0 l/m² 10,7 km/h (2 Bft) NW 320 ° 0 min 21 W/m² 7,8 °C 7,1 °C 16,1 km/h (3 Bft)
18.04.2025 19:08 30,6 °C 9,9 °C 36 % 87 % 1011,1 hPa 0,0 l/m² 10,8 km/h (2 Bft) W 270 ° 0 min 23 W/m² 7,8 °C 7,0 °C 19,3 km/h (3 Bft)
18.04.2025 19:09 30,7 °C 9,9 °C 36 % 87 % 1011,2 hPa 0,0 l/m² 8,4 km/h (2 Bft) W-NW 296 ° 0 min 26 W/m² 7,8 °C 8,5 °C 14,5 km/h (3 Bft)
18.04.2025 19:10 30,6 °C 9,9 °C 36 % 87 % 1011,1 hPa 0,0 l/m² 7,3 km/h (2 Bft) W-NW 299 ° 0 min 28 W/m² 7,8 °C 9,2 °C 16,1 km/h (3 Bft)
18.04.2025 19:11 30,6 °C 9,9 °C 36 % 87 % 1011,2 hPa 0,0 l/m² 6,2 km/h (2 Bft) W-SW 258 ° 0 min 32 W/m² 7,8 °C 9,9 °C 11,3 km/h (2 Bft)
18.04.2025 19:12 30,6 °C 9,9 °C 36 % 87 % 1011,1 hPa 0,0 l/m² 4,8 km/h (1 Bft) W 277 ° 0 min 35 W/m² 7,8 °C 9,9 °C 6,4 km/h (2 Bft)
18.04.2025 19:13 30,7 °C 9,9 °C 36 % 87 % 1011,1 hPa 0,0 l/m² 6,3 km/h (2 Bft) NW 318 ° 0 min 37 W/m² 7,8 °C 9,9 °C 12,9 km/h (3 Bft)
18.04.2025 19:14 30,6 °C 9,9 °C 37 % 87 % 1011,1 hPa 0,0 l/m² 8,8 km/h (2 Bft) W 270 ° 0 min 37 W/m² 7,8 °C 8,2 °C 14,5 km/h (3 Bft)
18.04.2025 19:15 30,6 °C 9,9 °C 37 % 87 % 1011,1 hPa 0,0 l/m² 8,2 km/h (2 Bft) W 279 ° 0 min 37 W/m² 7,8 °C 8,6 °C 12,9 km/h (3 Bft)
18.04.2025 19:16 30,6 °C 9,9 °C 36 % 87 % 1011,0 hPa 0,0 l/m² 5,4 km/h (2 Bft) W-NW 286 ° 0 min 37 W/m² 7,8 °C 9,9 °C 8,0 km/h (2 Bft)
18.04.2025 19:17 30,6 °C 9,9 °C 36 % 87 % 1011,0 hPa 0,0 l/m² 12,9 km/h (3 Bft) W 277 ° 0 min 35 W/m² 7,8 °C 6,0 °C 17,7 km/h (3 Bft)
18.04.2025 19:18 30,6 °C 9,8 °C 36 % 87 % 1011,1 hPa 0,0 l/m² 6,6 km/h (2 Bft) W 269 ° 0 min 35 W/m² 7,7 °C 9,7 °C 9,7 km/h (2 Bft)
18.04.2025 19:19 30,6 °C 9,9 °C 36 % 87 % 1011,1 hPa 0,0 l/m² 11,7 km/h (2 Bft) W 275 ° 0 min 30 W/m² 7,8 °C 6,6 °C 17,7 km/h (3 Bft)
18.04.2025 19:20 30,5 °C 9,8 °C 36 % 87 % 1011,1 hPa 0,0 l/m² 8,3 km/h (2 Bft) NW 311 ° 0 min 28 W/m² 7,7 °C 8,4 °C 12,9 km/h (3 Bft)
18.04.2025 19:22 30,4 °C 9,8 °C 36 % 87 % 1011,2 hPa 0,0 l/m² 6,5 km/h (2 Bft) N-NW 340 ° 0 min 21 W/m² 7,7 °C 9,8 °C 14,5 km/h (3 Bft)
18.04.2025 19:23 30,4 °C 9,8 °C 36 % 87 % 1011,2 hPa 0,0 l/m² 9,8 km/h (2 Bft) W-NW 288 ° 0 min 19 W/m² 7,7 °C 7,5 °C 12,9 km/h (3 Bft)
18.04.2025 19:24 30,4 °C 9,8 °C 36 % 87 % 1011,1 hPa 0,0 l/m² 10,4 km/h (2 Bft) W-NW 288 ° 0 min 18 W/m² 7,7 °C 7,1 °C 12,9 km/h (3 Bft)
18.04.2025 19:25 30,4 °C 9,8 °C 36 % 87 % 1011,2 hPa 0,0 l/m² 11,7 km/h (2 Bft) W 260 ° 0 min 16 W/m² 7,7 °C 6,4 °C 19,3 km/h (3 Bft)
18.04.2025 19:26 30,3 °C 9,8 °C 36 % 87 % 1011,2 hPa 0,0 l/m² 9,3 km/h (2 Bft) N-NW 347 ° 0 min 16 W/m² 7,7 °C 7,8 °C 16,1 km/h (3 Bft)
18.04.2025 19:27 30,3 °C 9,8 °C 36 % 87 % 1011,1 hPa 0,0 l/m² 10,9 km/h (2 Bft) W-NW 284 ° 0 min 14 W/m² 7,7 °C 6,9 °C 20,9 km/h (4 Bft)
18.04.2025 19:28 30,3 °C 9,8 °C 37 % 87 % 1011,2 hPa 0,0 l/m² 11,0 km/h (2 Bft) W 269 ° 0 min 14 W/m² 7,7 °C 6,8 °C 16,1 km/h (3 Bft)
18.04.2025 19:29 30,2 °C 9,8 °C 37 % 87 % 1011,2 hPa 0,0 l/m² 9,1 km/h (2 Bft) W-NW 294 ° 0 min 12 W/m² 7,7 °C 7,9 °C 16,1 km/h (3 Bft)
18.04.2025 19:30 30,2 °C 9,8 °C 37 % 87 % 1011,1 hPa 0,0 l/m² 6,1 km/h (2 Bft) NW 317 ° 0 min 12 W/m² 7,7 °C 9,8 °C 9,7 km/h (2 Bft)
18.04.2025 19:31 30,2 °C 9,8 °C 37 % 87 % 1011,2 hPa 0,0 l/m² 8,2 km/h (2 Bft) NW 319 ° 0 min 11 W/m² 7,7 °C 8,5 °C 16,1 km/h (3 Bft)
18.04.2025 19:32 30,2 °C 9,8 °C 37 % 87 % 1011,2 hPa 0,0 l/m² 4,7 km/h (1 Bft) W 267 ° 0 min 9 W/m² 7,7 °C 9,8 °C 9,7 km/h (2 Bft)
18.04.2025 19:33 30,2 °C 9,8 °C 37 % 87 % 1011,2 hPa 0,0 l/m² 7,2 km/h (2 Bft) W 259 ° 0 min 9 W/m² 7,7 °C 9,2 °C 12,9 km/h (3 Bft)
18.04.2025 19:34 30,1 °C 9,7 °C 37 % 87 % 1011,2 hPa 0,0 l/m² 7,4 km/h (2 Bft) W-NW 292 ° 0 min 7 W/m² 7,6 °C 9,0 °C 16,1 km/h (3 Bft)
18.04.2025 19:35 30,1 °C 9,8 °C 37 % 87 % 1011,2 hPa 0,0 l/m² 7,6 km/h (2 Bft) W-SW 248 ° 0 min 7 W/m² 7,7 °C 8,9 °C 14,5 km/h (3 Bft)
18.04.2025 19:36 30,1 °C 9,7 °C 37 % 87 % 1011,1 hPa 0,0 l/m² 8,0 km/h (2 Bft) NW 311 ° 0 min 5 W/m² 7,6 °C 8,5 °C 16,1 km/h (3 Bft)
18.04.2025 19:37 30,1 °C 9,7 °C 37 % 87 % 1011,2 hPa 0,0 l/m² 11,1 km/h (2 Bft) W-NW 294 ° 0 min 5 W/m² 7,6 °C 6,6 °C 17,7 km/h (3 Bft)
18.04.2025 19:38 30,0 °C 9,7 °C 37 % 87 % 1011,3 hPa 0,0 l/m² 9,7 km/h (2 Bft) W-NW 288 ° 0 min 5 W/m² 7,6 °C 7,4 °C 19,3 km/h (3 Bft)
18.04.2025 19:39 29,9 °C 9,7 °C 37 % 87 % 1011,2 hPa 0,0 l/m² 9,3 km/h (2 Bft) W 265 ° 0 min 5 W/m² 7,6 °C 7,7 °C 14,5 km/h (3 Bft)
18.04.2025 19:40 29,9 °C 9,7 °C 37 % 87 % 1011,2 hPa 0,0 l/m² 11,5 km/h (2 Bft) W 270 ° 0 min 5 W/m² 7,6 °C 6,4 °C 16,1 km/h (3 Bft)
18.04.2025 19:41 29,9 °C 9,7 °C 37 % 87 % 1011,3 hPa 0,0 l/m² 14,3 km/h (3 Bft) W-NW 300 ° 0 min 0 W/m² 7,6 °C 5,1 °C 25,7 km/h (4 Bft)
18.04.2025 19:42 29,8 °C 9,7 °C 37 % 87 % 1011,2 hPa 0,0 l/m² 15,5 km/h (3 Bft) W-NW 296 ° 0 min 0 W/m² 7,6 °C 4,6 °C 20,9 km/h (4 Bft)
18.04.2025 19:43 29,8 °C 9,7 °C 37 % 87 % 1011,2 hPa 0,0 l/m² 11,8 km/h (2 Bft) W 270 ° 0 min 0 W/m² 7,6 °C 6,3 °C 17,7 km/h (3 Bft)
18.04.2025 19:44 29,8 °C 9,6 °C 37 % 87 % 1011,4 hPa 0,0 l/m² 10,5 km/h (2 Bft) W 277 ° 0 min 0 W/m² 7,5 °C 6,9 °C 16,1 km/h (3 Bft)
18.04.2025 19:45 29,7 °C 9,7 °C 37 % 87 % 1011,2 hPa 0,0 l/m² 12,7 km/h (3 Bft) W 277 ° 0 min 0 W/m² 7,6 °C 5,8 °C 16,1 km/h (3 Bft)
18.04.2025 19:46 29,7 °C 9,6 °C 37 % 87 % 1011,3 hPa 0,0 l/m² 11,6 km/h (2 Bft) W 279 ° 0 min 0 W/m² 7,5 °C 6,3 °C 16,1 km/h (3 Bft)
18.04.2025 19:47 29,7 °C 9,6 °C 37 % 87 % 1011,2 hPa 0,0 l/m² 14,6 km/h (3 Bft) W 272 ° 0 min 0 W/m² 7,5 °C 4,8 °C 19,3 km/h (3 Bft)
18.04.2025 19:48 29,7 °C 9,6 °C 37 % 87 % 1011,2 hPa 0,0 l/m² 10,3 km/h (2 Bft) W-NW 290 ° 0 min 0 W/m² 7,5 °C 7,0 °C 16,1 km/h (3 Bft)
18.04.2025 19:49 29,6 °C 9,6 °C 37 % 87 % 1011,2 hPa 0,0 l/m² 9,4 km/h (2 Bft) W 272 ° 0 min 0 W/m² 7,5 °C 7,5 °C 14,5 km/h (3 Bft)
18.04.2025 19:50 29,6 °C 9,6 °C 37 % 87 % 1011,3 hPa 0,0 l/m² 8,2 km/h (2 Bft) W-NW 296 ° 0 min 0 W/m² 7,5 °C 8,3 °C 12,9 km/h (3 Bft)
18.04.2025 19:51 29,6 °C 9,6 °C 37 % 87 % 1011,2 hPa 0,0 l/m² 8,6 km/h (2 Bft) NW 325 ° 0 min 0 W/m² 7,5 °C 8,0 °C 14,5 km/h (3 Bft)
18.04.2025 19:52 29,5 °C 9,6 °C 37 % 88 % 1011,2 hPa 0,0 l/m² 6,2 km/h (2 Bft) W 278 ° 0 min 0 W/m² 7,7 °C 9,6 °C 12,9 km/h (3 Bft)
18.04.2025 19:53 29,5 °C 9,6 °C 37 % 87 % 1011,2 hPa 0,0 l/m² 7,5 km/h (2 Bft) W-NW 284 ° 0 min 0 W/m² 7,5 °C 8,8 °C 14,5 km/h (3 Bft)
18.04.2025 19:54 29,4 °C 9,6 °C 37 % 87 % 1011,2 hPa 0,0 l/m² 9,9 km/h (2 Bft) W-NW 282 ° 0 min 0 W/m² 7,5 °C 7,2 °C 16,1 km/h (3 Bft)
18.04.2025 19:55 29,4 °C 9,6 °C 37 % 88 % 1011,2 hPa 0,0 l/m² 8,6 km/h (2 Bft) W-NW 293 ° 0 min 0 W/m² 7,7 °C 8,0 °C 12,9 km/h (3 Bft)
18.04.2025 19:56 29,3 °C 9,5 °C 37 % 88 % 1011,3 hPa 0,0 l/m² 8,5 km/h (2 Bft) W 273 ° 0 min 0 W/m² 7,6 °C 8,0 °C 14,5 km/h (3 Bft)
18.04.2025 19:57 29,3 °C 9,5 °C 37 % 88 % 1011,3 hPa 0,0 l/m² 10,3 km/h (2 Bft) W-NW 284 ° 0 min 0 W/m² 7,6 °C 6,9 °C 16,1 km/h (3 Bft)
18.04.2025 19:58 29,3 °C 9,5 °C 37 % 88 % 1011,2 hPa 0,0 l/m² 11,3 km/h (2 Bft) W 268 ° 0 min 0 W/m² 7,6 °C 6,3 °C 16,1 km/h (3 Bft)
18.04.2025 19:59 29,3 °C 9,5 °C 37 % 88 % 1011,3 hPa 0,0 l/m² 9,9 km/h (2 Bft) W 274 ° 0 min 0 W/m² 7,6 °C 7,1 °C 16,1 km/h (3 Bft)
18.04.2025 20:00 29,2 °C 9,5 °C 38 % 88 % 1011,3 hPa 0,0 l/m² 6,0 km/h (2 Bft) W 267 ° 0 min 0 W/m² 7,6 °C 9,5 °C 12,9 km/h (3 Bft)
18.04.2025 20:01 29,2 °C 9,4 °C 38 % 88 % 1011,3 hPa 0,0 l/m² 8,4 km/h (2 Bft) W 277 ° 0 min 0 W/m² 7,5 °C 7,9 °C 12,9 km/h (3 Bft)
18.04.2025 20:02 29,1 °C 9,4 °C 38 % 88 % 1011,4 hPa 0,0 l/m² 7,8 km/h (2 Bft) W 275 ° 0 min 0 W/m² 7,5 °C 8,4 °C 12,9 km/h (3 Bft)
18.04.2025 20:03 29,1 °C 9,4 °C 38 % 88 % 1011,3 hPa 0,0 l/m² 6,6 km/h (2 Bft) W-NW 296 ° 0 min 0 W/m² 7,5 °C 9,3 °C 12,9 km/h (3 Bft)
18.04.2025 20:04 29,1 °C 9,4 °C 38 % 88 % 1011,3 hPa 0,0 l/m² 11,3 km/h (2 Bft) W 263 ° 0 min 0 W/m² 7,5 °C 6,2 °C 19,3 km/h (3 Bft)
18.04.2025 20:05 29,1 °C 9,4 °C 38 % 88 % 1011,3 hPa 0,0 l/m² 9,2 km/h (2 Bft) W-NW 300 ° 0 min 0 W/m² 7,5 °C 7,4 °C 16,1 km/h (3 Bft)
18.04.2025 20:06 29,0 °C 9,4 °C 38 % 88 % 1011,3 hPa 0,0 l/m² 7,2 km/h (2 Bft) NW 326 ° 0 min 0 W/m² 7,5 °C 8,8 °C 11,3 km/h (2 Bft)
18.04.2025 20:07 29,0 °C 9,4 °C 38 % 88 % 1011,2 hPa 0,0 l/m² 7,5 km/h (2 Bft) W-NW 296 ° 0 min 0 W/m² 7,5 °C 8,6 °C 14,5 km/h (3 Bft)
18.04.2025 20:08 28,9 °C 9,4 °C 38 % 88 % 1011,2 hPa 0,0 l/m² 10,5 km/h (2 Bft) W-NW 290 ° 0 min 0 W/m² 7,5 °C 6,6 °C 19,3 km/h (3 Bft)
18.04.2025 20:09 28,9 °C 9,4 °C 38 % 88 % 1011,3 hPa 0,0 l/m² 9,9 km/h (2 Bft) W-SW 250 ° 0 min 0 W/m² 7,5 °C 7,0 °C 16,1 km/h (3 Bft)
18.04.2025 20:10 28,9 °C 9,3 °C 38 % 88 % 1011,2 hPa 0,0 l/m² 6,6 km/h (2 Bft) NW 317 ° 0 min 0 W/m² 7,4 °C 9,2 °C 12,9 km/h (3 Bft)
18.04.2025 20:11 28,9 °C 9,3 °C 38 % 88 % 1011,3 hPa 0,2 l/m² 8,9 km/h (2 Bft) W-NW 291 ° 0 min 0 W/m² 7,4 °C 7,5 °C 14,5 km/h (3 Bft)
18.04.2025 20:12 28,9 °C 9,3 °C 38 % 88 % 1011,3 hPa 0,0 l/m² 7,8 km/h (2 Bft) W-SW 250 ° 0 min 0 W/m² 7,4 °C 8,3 °C 14,5 km/h (3 Bft)
18.04.2025 20:13 28,8 °C 9,3 °C 38 % 88 % 1011,3 hPa 0,0 l/m² 9,2 km/h (2 Bft) NW 304 ° 0 min 0 W/m² 7,4 °C 7,3 °C 17,7 km/h (3 Bft)
18.04.2025 20:14 28,8 °C 9,3 °C 39 % 88 % 1011,3 hPa 0,0 l/m² 6,7 km/h (2 Bft) W-SW 250 ° 0 min 0 W/m² 7,4 °C 9,1 °C 16,1 km/h (3 Bft)
18.04.2025 20:15 28,7 °C 9,3 °C 39 % 88 % 1011,4 hPa 0,0 l/m² 7,0 km/h (2 Bft) W-NW 300 ° 0 min 0 W/m² 7,4 °C 8,9 °C 14,5 km/h (3 Bft)
18.04.2025 20:16 28,7 °C 9,3 °C 39 % 88 % 1011,3 hPa 0,0 l/m² 7,2 km/h (2 Bft) W 269 ° 0 min 0 W/m² 7,4 °C 8,7 °C 14,5 km/h (3 Bft)
18.04.2025 20:17 28,7 °C 9,3 °C 39 % 88 % 1011,4 hPa 0,0 l/m² 7,8 km/h (2 Bft) W 275 ° 0 min 0 W/m² 7,4 °C 8,3 °C 12,9 km/h (3 Bft)
18.04.2025 20:18 28,6 °C 9,2 °C 39 % 89 % 1011,5 hPa 0,0 l/m² 5,0 km/h (1 Bft) W-NW 285 ° 0 min 0 W/m² 7,5 °C 9,2 °C 9,7 km/h (2 Bft)
18.04.2025 20:19 28,6 °C 9,2 °C 39 % 89 % 1011,7 hPa 0,0 l/m² 8,4 km/h (2 Bft) W-NW 286 ° 0 min 0 W/m² 7,5 °C 7,7 °C 14,5 km/h (3 Bft)
18.04.2025 20:20 28,6 °C 9,2 °C 39 % 89 % 1011,6 hPa 0,0 l/m² 5,4 km/h (2 Bft) W-NW 291 ° 0 min 0 W/m² 7,5 °C 9,2 °C 8,0 km/h (2 Bft)
18.04.2025 20:21 28,6 °C 9,2 °C 39 % 89 % 1011,7 hPa 0,0 l/m² 7,6 km/h (2 Bft) NW 314 ° 0 min 0 W/m² 7,5 °C 8,3 °C 12,9 km/h (3 Bft)
18.04.2025 20:22 28,6 °C 9,2 °C 39 % 89 % 1011,7 hPa 0,2 l/m² 6,4 km/h (2 Bft) W-NW 300 ° 0 min 0 W/m² 7,5 °C 9,2 °C 11,3 km/h (2 Bft)
18.04.2025 20:23 28,4 °C 9,2 °C 39 % 89 % 1011,8 hPa 0,0 l/m² 11,5 km/h (2 Bft) W-NW 292 ° 0 min 0 W/m² 7,5 °C 5,9 °C 16,1 km/h (3 Bft)
18.04.2025 20:24 28,4 °C 9,2 °C 39 % 89 % 1011,8 hPa 0,0 l/m² 8,6 km/h (2 Bft) W-NW 289 ° 0 min 0 W/m² 7,5 °C 7,6 °C 12,9 km/h (3 Bft)
18.04.2025 20:25 28,4 °C 9,1 °C 39 % 89 % 1011,9 hPa 0,0 l/m² 9,7 km/h (2 Bft) W 266 ° 0 min 0 W/m² 7,4 °C 6,8 °C 12,9 km/h (3 Bft)
18.04.2025 20:26 28,4 °C 9,1 °C 40 % 89 % 1011,9 hPa 0,0 l/m² 9,5 km/h (2 Bft) W 277 ° 0 min 0 W/m² 7,4 °C 6,9 °C 12,9 km/h (3 Bft)
18.04.2025 20:27 28,3 °C 9,1 °C 40 % 89 % 1011,9 hPa 0,0 l/m² 9,4 km/h (2 Bft) W-NW 283 ° 0 min 0 W/m² 7,4 °C 7,0 °C 14,5 km/h (3 Bft)
18.04.2025 20:28 28,3 °C 9,1 °C 40 % 89 % 1011,9 hPa 0,0 l/m² 7,6 km/h (2 Bft) W 277 ° 0 min 0 W/m² 7,4 °C 8,2 °C 12,9 km/h (3 Bft)
18.04.2025 20:29 28,3 °C 9,1 °C 40 % 89 % 1011,9 hPa 0,0 l/m² 11,8 km/h (2 Bft) W-NW 284 ° 0 min 0 W/m² 7,4 °C 5,6 °C 16,1 km/h (3 Bft)
18.04.2025 20:30 28,3 °C 9,1 °C 40 % 89 % 1011,9 hPa 0,0 l/m² 9,8 km/h (2 Bft) W 281 ° 0 min 0 W/m² 7,4 °C 6,7 °C 12,9 km/h (3 Bft)
18.04.2025 20:31 28,2 °C 9,1 °C 40 % 89 % 1011,9 hPa 0,0 l/m² 6,6 km/h (2 Bft) W-NW 288 ° 0 min 0 W/m² 7,4 °C 9,0 °C 12,9 km/h (3 Bft)
18.04.2025 20:32 28,2 °C 9,1 °C 40 % 89 % 1011,9 hPa 0,0 l/m² 7,0 km/h (2 Bft) W-NW 287 ° 0 min 0 W/m² 7,4 °C 8,7 °C 11,3 km/h (2 Bft)
18.04.2025 20:33 28,2 °C 9,0 °C 40 % 89 % 1011,9 hPa 0,0 l/m² 3,4 km/h (1 Bft) W-NW 294 ° 0 min 0 W/m² 7,3 °C 9,0 °C 6,4 km/h (2 Bft)
18.04.2025 20:34 28,1 °C 9,0 °C 40 % 89 % 1011,8 hPa 0,0 l/m² 8,2 km/h (2 Bft) W 269 ° 0 min 0 W/m² 7,3 °C 7,7 °C 12,9 km/h (3 Bft)
18.04.2025 20:35 28,1 °C 9,0 °C 40 % 89 % 1011,7 hPa 0,0 l/m² 10,1 km/h (2 Bft) W-NW 284 ° 0 min 0 W/m² 7,3 °C 6,4 °C 12,9 km/h (3 Bft)
18.04.2025 20:36 28,1 °C 9,0 °C 40 % 90 % 1011,8 hPa 0,0 l/m² 11,7 km/h (2 Bft) W 263 ° 0 min 0 W/m² 7,4 °C 5,5 °C 14,5 km/h (3 Bft)
18.04.2025 20:37 28,1 °C 8,9 °C 40 % 90 % 1011,7 hPa 0,2 l/m² 12,5 km/h (2 Bft) W 272 ° 0 min 0 W/m² 7,4 °C 5,0 °C 16,1 km/h (3 Bft)
18.04.2025 20:38 28,1 °C 8,9 °C 40 % 90 % 1011,6 hPa 0,0 l/m² 6,8 km/h (2 Bft) W 265 ° 0 min 0 W/m² 7,4 °C 8,6 °C 11,3 km/h (2 Bft)
18.04.2025 20:39 28,0 °C 8,9 °C 40 % 90 % 1011,5 hPa 0,0 l/m² 9,1 km/h (2 Bft) W-NW 285 ° 0 min 0 W/m² 7,4 °C 6,9 °C 12,9 km/h (3 Bft)
18.04.2025 20:40 28,0 °C 8,9 °C 40 % 90 % 1011,5 hPa 0,0 l/m² 10,7 km/h (2 Bft) W 281 ° 0 min 0 W/m² 7,4 °C 6,0 °C 14,5 km/h (3 Bft)
18.04.2025 20:41 27,9 °C 8,9 °C 41 % 90 % 1011,5 hPa 0,0 l/m² 9,7 km/h (2 Bft) W-NW 286 ° 0 min 0 W/m² 7,4 °C 6,6 °C 16,1 km/h (3 Bft)
18.04.2025 20:42 27,9 °C 8,9 °C 41 % 90 % 1011,5 hPa 0,0 l/m² 15,2 km/h (3 Bft) W-SW 252 ° 0 min 0 W/m² 7,4 °C 3,7 °C 19,3 km/h (3 Bft)
18.04.2025 20:43 27,9 °C 8,9 °C 41 % 90 % 1011,4 hPa 0,0 l/m² 10,1 km/h (2 Bft) W 281 ° 0 min 0 W/m² 7,4 °C 6,3 °C 14,5 km/h (3 Bft)
18.04.2025 20:44 27,8 °C 8,9 °C 41 % 90 % 1011,4 hPa 0,0 l/m² 12,0 km/h (2 Bft) W-NW 284 ° 0 min 0 W/m² 7,4 °C 5,2 °C 16,1 km/h (3 Bft)
18.04.2025 20:45 27,8 °C 8,9 °C 41 % 90 % 1011,4 hPa 0,0 l/m² 10,9 km/h (2 Bft) W 273 ° 0 min 0 W/m² 7,4 °C 5,9 °C 17,7 km/h (3 Bft)
18.04.2025 20:46 27,8 °C 8,9 °C 41 % 90 % 1011,4 hPa 0,0 l/m² 12,7 km/h (3 Bft) W 281 ° 0 min 0 W/m² 7,4 °C 4,9 °C 16,1 km/h (3 Bft)
18.04.2025 20:47 27,8 °C 8,9 °C 41 % 90 % 1011,4 hPa 0,0 l/m² 12,7 km/h (3 Bft) W 265 ° 0 min 0 W/m² 7,4 °C 4,9 °C 19,3 km/h (3 Bft)
18.04.2025 20:48 27,7 °C 8,9 °C 41 % 90 % 1011,4 hPa 0,0 l/m² 12,5 km/h (2 Bft) W 274 ° 0 min 0 W/m² 7,4 °C 5,0 °C 14,5 km/h (3 Bft)
18.04.2025 20:49 27,7 °C 8,9 °C 41 % 90 % 1011,4 hPa 0,0 l/m² 7,3 km/h (2 Bft) W-NW 286 ° 0 min 0 W/m² 7,4 °C 8,2 °C 14,5 km/h (3 Bft)
18.04.2025 20:50 27,7 °C 8,9 °C 41 % 90 % 1011,5 hPa 0,0 l/m² 10,5 km/h (2 Bft) W 270 ° 0 min 0 W/m² 7,4 °C 6,1 °C 16,1 km/h (3 Bft)
18.04.2025 20:51 27,7 °C 8,8 °C 41 % 90 % 1011,5 hPa 0,0 l/m² 10,7 km/h (2 Bft) W-SW 255 ° 0 min 0 W/m² 7,3 °C 5,9 °C 17,7 km/h (3 Bft)
18.04.2025 20:52 27,7 °C 8,8 °C 41 % 90 % 1011,5 hPa 0,0 l/m² 7,6 km/h (2 Bft) W-NW 289 ° 0 min 0 W/m² 7,3 °C 7,9 °C 12,9 km/h (3 Bft)
18.04.2025 20:53 27,6 °C 8,8 °C 41 % 90 % 1011,5 hPa 0,0 l/m² 14,6 km/h (3 Bft) W-NW 289 ° 0 min 0 W/m² 7,3 °C 3,9 °C 19,3 km/h (3 Bft)
18.04.2025 20:54 27,6 °C 8,8 °C 41 % 90 % 1011,4 hPa 0,0 l/m² 10,9 km/h (2 Bft) W 275 ° 0 min 0 W/m² 7,3 °C 5,7 °C 19,3 km/h (3 Bft)
18.04.2025 20:55 27,6 °C 8,8 °C 41 % 90 % 1011,4 hPa 0,0 l/m² 13,3 km/h (3 Bft) W-NW 287 ° 0 min 0 W/m² 7,3 °C 4,5 °C 20,9 km/h (4 Bft)
18.04.2025 20:56 27,6 °C 8,8 °C 42 % 90 % 1011,4 hPa 0,0 l/m² 9,8 km/h (2 Bft) W-NW 282 ° 0 min 0 W/m² 7,3 °C 6,4 °C 16,1 km/h (3 Bft)
18.04.2025 20:57 27,5 °C 8,8 °C 42 % 90 % 1011,5 hPa 0,0 l/m² 13,0 km/h (3 Bft) W 266 ° 0 min 0 W/m² 7,3 °C 4,6 °C 19,3 km/h (3 Bft)
18.04.2025 20:58 27,5 °C 8,8 °C 42 % 90 % 1011,5 hPa 0,0 l/m² 8,6 km/h (2 Bft) W 264 ° 0 min 0 W/m² 7,3 °C 7,2 °C 12,9 km/h (3 Bft)
18.04.2025 20:59 27,4 °C 8,8 °C 42 % 90 % 1011,5 hPa 0,0 l/m² 13,8 km/h (3 Bft) W-NW 292 ° 0 min 0 W/m² 7,3 °C 4,2 °C 17,7 km/h (3 Bft)
18.04.2025 21:00 27,4 °C 8,8 °C 42 % 90 % 1011,6 hPa 0,0 l/m² 10,7 km/h (2 Bft) W-NW 298 ° 0 min 0 W/m² 7,3 °C 5,9 °C 16,1 km/h (3 Bft)
18.04.2025 21:01 27,4 °C 8,8 °C 42 % 90 % 1011,5 hPa 0,0 l/m² 11,5 km/h (2 Bft) W-NW 292 ° 0 min 0 W/m² 7,3 °C 5,4 °C 14,5 km/h (3 Bft)
18.04.2025 21:02 27,3 °C 8,8 °C 42 % 90 % 1011,5 hPa 0,0 l/m² 13,5 km/h (3 Bft) W 261 ° 0 min 0 W/m² 7,3 °C 4,4 °C 17,7 km/h (3 Bft)
18.04.2025 21:03 27,3 °C 8,8 °C 42 % 90 % 1011,6 hPa 0,0 l/m² 11,7 km/h (2 Bft) W 263 ° 0 min 0 W/m² 7,3 °C 5,3 °C 16,1 km/h (3 Bft)
18.04.2025 21:04 27,3 °C 8,8 °C 42 % 90 % 1011,7 hPa 0,0 l/m² 8,6 km/h (2 Bft) W 281 ° 0 min 0 W/m² 7,3 °C 7,2 °C 16,1 km/h (3 Bft)
18.04.2025 21:05 27,3 °C 8,8 °C 42 % 90 % 1011,6 hPa 0,0 l/m² 8,0 km/h (2 Bft) W 265 ° 0 min 0 W/m² 7,3 °C 7,6 °C 12,9 km/h (3 Bft)
18.04.2025 21:06 27,3 °C 8,8 °C 42 % 90 % 1011,7 hPa 0,0 l/m² 7,1 km/h (2 Bft) W 271 ° 0 min 0 W/m² 7,3 °C 8,3 °C 11,3 km/h (2 Bft)
18.04.2025 21:07 27,2 °C 8,8 °C 42 % 90 % 1011,6 hPa 0,0 l/m² 11,3 km/h (2 Bft) W-NW 285 ° 0 min 0 W/m² 7,3 °C 5,5 °C 16,1 km/h (3 Bft)
18.04.2025 21:08 27,2 °C 8,8 °C 42 % 90 % 1011,7 hPa 0,0 l/m² 13,1 km/h (3 Bft) W 273 ° 0 min 0 W/m² 7,3 °C 4,6 °C 16,1 km/h (3 Bft)
18.04.2025 21:09 27,2 °C 8,8 °C 42 % 90 % 1011,6 hPa 0,0 l/m² 9,7 km/h (2 Bft) W-NW 302 ° 0 min 0 W/m² 7,3 °C 6,5 °C 12,9 km/h (3 Bft)
18.04.2025 21:10 27,2 °C 8,8 °C 42 % 90 % 1011,6 hPa 0,0 l/m² 11,7 km/h (2 Bft) W-SW 257 ° 0 min 0 W/m² 7,3 °C 5,3 °C 17,7 km/h (3 Bft)
18.04.2025 21:11 27,1 °C 8,8 °C 42 % 91 % 1011,6 hPa 0,0 l/m² 11,3 km/h (2 Bft) W 265 ° 0 min 0 W/m² 7,4 °C 5,5 °C 14,5 km/h (3 Bft)
18.04.2025 21:12 27,1 °C 8,8 °C 42 % 90 % 1011,6 hPa 0,0 l/m² 14,6 km/h (3 Bft) W-NW 290 ° 0 min 0 W/m² 7,3 °C 3,9 °C 22,5 km/h (4 Bft)
18.04.2025 21:13 27,1 °C 8,8 °C 43 % 90 % 1011,6 hPa 0,0 l/m² 10,2 km/h (2 Bft) W-NW 296 ° 0 min 0 W/m² 7,3 °C 6,1 °C 17,7 km/h (3 Bft)
18.04.2025 21:14 27,1 °C 8,7 °C 43 % 91 % 1011,7 hPa 0,0 l/m² 9,8 km/h (2 Bft) W 265 ° 0 min 0 W/m² 7,3 °C 6,3 °C 17,7 km/h (3 Bft)
18.04.2025 21:15 27,1 °C 8,7 °C 43 % 91 % 1011,6 hPa 0,0 l/m² 14,9 km/h (3 Bft) W-NW 299 ° 0 min 0 W/m² 7,3 °C 3,6 °C 17,7 km/h (3 Bft)
18.04.2025 21:16 27,0 °C 8,7 °C 43 % 91 % 1011,5 hPa 0,0 l/m² 11,0 km/h (2 Bft) W 276 ° 0 min 0 W/m² 7,3 °C 5,6 °C 14,5 km/h (3 Bft)
18.04.2025 21:17 27,0 °C 8,7 °C 43 % 91 % 1011,6 hPa 0,0 l/m² 13,8 km/h (3 Bft) W 267 ° 0 min 0 W/m² 7,3 °C 4,1 °C 17,7 km/h (3 Bft)
18.04.2025 21:18 26,9 °C 8,7 °C 43 % 91 % 1011,6 hPa 0,0 l/m² 12,5 km/h (2 Bft) W-NW 284 ° 0 min 0 W/m² 7,3 °C 4,8 °C 16,1 km/h (3 Bft)
18.04.2025 21:19 26,9 °C 8,7 °C 43 % 91 % 1011,6 hPa 0,0 l/m² 10,3 km/h (2 Bft) W 265 ° 0 min 0 W/m² 7,3 °C 6,0 °C 16,1 km/h (3 Bft)
18.04.2025 21:20 26,9 °C 8,7 °C 43 % 90 % 1011,6 hPa 0,0 l/m² 14,3 km/h (3 Bft) W 265 ° 0 min 0 W/m² 7,2 °C 3,9 °C 19,3 km/h (3 Bft)
18.04.2025 21:21 26,9 °C 8,7 °C 43 % 90 % 1011,6 hPa 0,0 l/m² 15,9 km/h (3 Bft) W 276 ° 0 min 0 W/m² 7,2 °C 3,2 °C 22,5 km/h (4 Bft)
18.04.2025 21:22 26,8 °C 8,7 °C 43 % 90 % 1011,6 hPa 0,0 l/m² 13,6 km/h (3 Bft) W 265 ° 0 min 0 W/m² 7,2 °C 4,2 °C 17,7 km/h (3 Bft)
18.04.2025 21:23 26,9 °C 8,7 °C 43 % 90 % 1011,6 hPa 0,0 l/m² 11,3 km/h (2 Bft) W-NW 282 ° 0 min 0 W/m² 7,2 °C 5,4 °C 16,1 km/h (3 Bft)
18.04.2025 21:24 26,8 °C 8,7 °C 43 % 90 % 1011,5 hPa 0,0 l/m² 10,4 km/h (2 Bft) W-NW 296 ° 0 min 0 W/m² 7,2 °C 5,9 °C 14,5 km/h (3 Bft)
18.04.2025 21:25 26,8 °C 8,7 °C 43 % 90 % 1011,6 hPa 0,0 l/m² 12,7 km/h (3 Bft) W 271 ° 0 min 0 W/m² 7,2 °C 4,7 °C 17,7 km/h (3 Bft)
18.04.2025 21:26 26,8 °C 8,7 °C 43 % 90 % 1011,5 hPa 0,0 l/m² 12,8 km/h (3 Bft) W 279 ° 0 min 0 W/m² 7,2 °C 4,6 °C 17,7 km/h (3 Bft)
18.04.2025 21:27 26,8 °C 8,6 °C 43 % 90 % 1011,5 hPa 0,0 l/m² 11,3 km/h (2 Bft) W 267 ° 0 min 0 W/m² 7,1 °C 5,3 °C 14,5 km/h (3 Bft)
18.04.2025 21:28 26,7 °C 8,7 °C 44 % 91 % 1011,5 hPa 0,0 l/m² 12,7 km/h (3 Bft) W-NW 289 ° 0 min 0 W/m² 7,3 °C 4,7 °C 16,1 km/h (3 Bft)
18.04.2025 21:29 26,7 °C 8,7 °C 44 % 91 % 1011,6 hPa 0,0 l/m² 8,2 km/h (2 Bft) W 269 ° 0 min 0 W/m² 7,3 °C 7,3 °C 11,3 km/h (2 Bft)
18.04.2025 21:30 26,7 °C 8,6 °C 44 % 91 % 1011,5 hPa 0,0 l/m² 9,3 km/h (2 Bft) W 270 ° 0 min 0 W/m² 7,2 °C 6,5 °C 17,7 km/h (3 Bft)
18.04.2025 21:31 26,7 °C 8,6 °C 44 % 91 % 1011,6 hPa 0,0 l/m² 13,7 km/h (3 Bft) W 273 ° 0 min 0 W/m² 7,2 °C 4,0 °C 19,3 km/h (3 Bft)
18.04.2025 21:32 26,6 °C 8,6 °C 44 % 91 % 1011,6 hPa 0,0 l/m² 11,6 km/h (2 Bft) W 268 ° 0 min 0 W/m² 7,2 °C 5,1 °C 16,1 km/h (3 Bft)
18.04.2025 21:33 26,6 °C 8,6 °C 44 % 91 % 1011,6 hPa 0,0 l/m² 10,3 km/h (2 Bft) W-SW 257 ° 0 min 0 W/m² 7,2 °C 5,9 °C 14,5 km/h (3 Bft)
18.04.2025 21:34 26,6 °C 8,6 °C 44 % 91 % 1011,5 hPa 0,0 l/m² 12,0 km/h (2 Bft) W 273 ° 0 min 0 W/m² 7,2 °C 4,9 °C 16,1 km/h (3 Bft)
18.04.2025 21:35 26,6 °C 8,6 °C 44 % 91 % 1011,5 hPa 0,0 l/m² 11,1 km/h (2 Bft) W 278 ° 0 min 0 W/m² 7,2 °C 5,4 °C 14,5 km/h (3 Bft)
18.04.2025 21:36 26,6 °C 8,6 °C 44 % 91 % 1011,5 hPa 0,0 l/m² 11,6 km/h (2 Bft) W 277 ° 0 min 0 W/m² 7,2 °C 5,1 °C 16,1 km/h (3 Bft)
18.04.2025 21:37 26,5 °C 8,6 °C 44 % 91 % 1011,5 hPa 0,0 l/m² 11,3 km/h (2 Bft) W-NW 284 ° 0 min 0 W/m² 7,2 °C 5,3 °C 14,5 km/h (3 Bft)
18.04.2025 21:38 26,5 °C 8,6 °C 44 % 91 % 1011,5 hPa 0,0 l/m² 10,8 km/h (2 Bft) W-NW 291 ° 0 min 0 W/m² 7,2 °C 5,6 °C 17,7 km/h (3 Bft)
18.04.2025 21:39 26,5 °C 8,6 °C 44 % 91 % 1011,4 hPa 0,0 l/m² 13,8 km/h (3 Bft) W-NW 286 ° 0 min 0 W/m² 7,2 °C 4,0 °C 17,7 km/h (3 Bft)
18.04.2025 21:40 26,4 °C 8,6 °C 44 % 91 % 1011,5 hPa 0,0 l/m² 10,1 km/h (2 Bft) W 277 ° 0 min 0 W/m² 7,2 °C 6,0 °C 16,1 km/h (3 Bft)
18.04.2025 21:41 26,4 °C 8,6 °C 44 % 91 % 1011,5 hPa 0,0 l/m² 13,4 km/h (3 Bft) W 277 ° 0 min 0 W/m² 7,2 °C 4,2 °C 17,7 km/h (3 Bft)
18.04.2025 21:42 26,4 °C 8,6 °C 44 % 91 % 1011,5 hPa 0,0 l/m² 9,7 km/h (2 Bft) W 277 ° 0 min 0 W/m² 7,2 °C 6,2 °C 14,5 km/h (3 Bft)
18.04.2025 21:43 26,4 °C 8,5 °C 44 % 91 % 1011,4 hPa 0,0 l/m² 10,7 km/h (2 Bft) W 278 ° 0 min 0 W/m² 7,1 °C 5,5 °C 14,5 km/h (3 Bft)
18.04.2025 21:44 26,4 °C 8,5 °C 44 % 91 % 1011,4 hPa 0,0 l/m² 7,5 km/h (2 Bft) W 273 ° 0 min 0 W/m² 7,1 °C 7,6 °C 16,1 km/h (3 Bft)
18.04.2025 21:46 26,3 °C 8,5 °C 44 % 91 % 1011,5 hPa 0,0 l/m² 6,4 km/h (2 Bft) NW 315 ° 0 min 0 W/m² 7,1 °C 8,5 °C 12,9 km/h (3 Bft)
18.04.2025 21:47 26,3 °C 8,5 °C 44 % 91 % 1011,5 hPa 0,0 l/m² 8,5 km/h (2 Bft) W 267 ° 0 min 0 W/m² 7,1 °C 6,9 °C 14,5 km/h (3 Bft)
18.04.2025 21:48 26,3 °C 8,5 °C 44 % 91 % 1011,5 hPa 0,0 l/m² 11,4 km/h (2 Bft) W 276 ° 0 min 0 W/m² 7,1 °C 5,1 °C 17,7 km/h (3 Bft)
18.04.2025 21:49 26,3 °C 8,5 °C 44 % 91 % 1011,4 hPa 0,0 l/m² 8,4 km/h (2 Bft) W 280 ° 0 min 0 W/m² 7,1 °C 7,0 °C 12,9 km/h (3 Bft)
18.04.2025 21:50 26,3 °C 8,5 °C 44 % 91 % 1011,5 hPa 0,0 l/m² 7,2 km/h (2 Bft) NW 306 ° 0 min 0 W/m² 7,1 °C 7,9 °C 12,9 km/h (3 Bft)
18.04.2025 21:51 26,3 °C 8,5 °C 45 % 91 % 1011,5 hPa 0,0 l/m² 8,2 km/h (2 Bft) W 275 ° 0 min 0 W/m² 7,1 °C 7,1 °C 12,9 km/h (3 Bft)
18.04.2025 21:52 26,3 °C 8,4 °C 45 % 91 % 1011,5 hPa 0,0 l/m² 11,6 km/h (2 Bft) W-NW 284 ° 0 min 0 W/m² 7,0 °C 4,9 °C 17,7 km/h (3 Bft)
18.04.2025 21:53 26,3 °C 8,4 °C 45 % 91 % 1011,5 hPa 0,0 l/m² 11,3 km/h (2 Bft) W 278 ° 0 min 0 W/m² 7,0 °C 5,1 °C 17,7 km/h (3 Bft)
18.04.2025 21:54 26,2 °C 8,4 °C 45 % 91 % 1011,5 hPa 0,0 l/m² 11,8 km/h (2 Bft) W-NW 283 ° 0 min 0 W/m² 7,0 °C 4,8 °C 16,1 km/h (3 Bft)
18.04.2025 21:55 26,2 °C 8,4 °C 45 % 91 % 1011,5 hPa 0,0 l/m² 14,9 km/h (3 Bft) W-NW 301 ° 0 min 0 W/m² 7,0 °C 3,2 °C 20,9 km/h (4 Bft)
18.04.2025 21:56 26,2 °C 8,4 °C 45 % 91 % 1011,5 hPa 0,0 l/m² 13,8 km/h (3 Bft) W-NW 293 ° 0 min 0 W/m² 7,0 °C 3,8 °C 17,7 km/h (3 Bft)
18.04.2025 21:57 26,2 °C 8,4 °C 45 % 91 % 1011,5 hPa 0,0 l/m² 12,7 km/h (3 Bft) W-NW 293 ° 0 min 0 W/m² 7,0 °C 4,3 °C 16,1 km/h (3 Bft)
18.04.2025 21:58 26,2 °C 8,4 °C 45 % 91 % 1011,4 hPa 0,0 l/m² 12,5 km/h (2 Bft) W-NW 288 ° 0 min 0 W/m² 7,0 °C 4,4 °C 20,9 km/h (4 Bft)
18.04.2025 21:59 26,2 °C 8,3 °C 45 % 91 % 1011,5 hPa 0,0 l/m² 10,7 km/h (2 Bft) W 273 ° 0 min 0 W/m² 6,9 °C 5,3 °C 17,7 km/h (3 Bft)
18.04.2025 22:00 26,2 °C 8,4 °C 45 % 91 % 1011,5 hPa 0,0 l/m² 13,9 km/h (3 Bft) W-NW 291 ° 0 min 0 W/m² 7,0 °C 3,7 °C 20,9 km/h (4 Bft)
18.04.2025 22:01 26,2 °C 8,3 °C 45 % 91 % 1011,5 hPa 0,0 l/m² 12,2 km/h (2 Bft) W-NW 298 ° 0 min 0 W/m² 6,9 °C 4,4 °C 17,7 km/h (3 Bft)
18.04.2025 22:02 26,1 °C 8,3 °C 45 % 91 % 1011,4 hPa 0,0 l/m² 10,3 km/h (2 Bft) W-NW 284 ° 0 min 0 W/m² 6,9 °C 5,5 °C 14,5 km/h (3 Bft)
18.04.2025 22:03 26,1 °C 8,3 °C 45 % 91 % 1011,6 hPa 0,0 l/m² 10,2 km/h (2 Bft) W 281 ° 0 min 0 W/m² 6,9 °C 5,6 °C 17,7 km/h (3 Bft)
18.04.2025 22:04 26,1 °C 8,3 °C 45 % 91 % 1011,5 hPa 0,0 l/m² 15,2 km/h (3 Bft) W 278 ° 0 min 0 W/m² 6,9 °C 3,0 °C 17,7 km/h (3 Bft)
18.04.2025 22:05 26,1 °C 8,3 °C 45 % 91 % 1011,5 hPa 0,0 l/m² 13,6 km/h (3 Bft) W 272 ° 0 min 0 W/m² 6,9 °C 3,7 °C 16,1 km/h (3 Bft)
18.04.2025 22:06 26,0 °C 8,3 °C 45 % 91 % 1011,5 hPa 0,0 l/m² 11,7 km/h (2 Bft) W-NW 286 ° 0 min 0 W/m² 6,9 °C 4,7 °C 17,7 km/h (3 Bft)
18.04.2025 22:07 26,0 °C 8,3 °C 45 % 91 % 1011,5 hPa 0,0 l/m² 14,1 km/h (3 Bft) W-NW 302 ° 0 min 0 W/m² 6,9 °C 3,5 °C 17,7 km/h (3 Bft)
18.04.2025 22:08 26,0 °C 8,3 °C 45 % 91 % 1011,6 hPa 0,0 l/m² 10,7 km/h (2 Bft) W 273 ° 0 min 0 W/m² 6,9 °C 5,3 °C 14,5 km/h (3 Bft)
18.04.2025 22:09 26,0 °C 8,3 °C 45 % 91 % 1011,5 hPa 0,0 l/m² 9,4 km/h (2 Bft) W 267 ° 0 min 0 W/m² 6,9 °C 6,1 °C 14,5 km/h (3 Bft)
18.04.2025 22:10 25,9 °C 8,3 °C 45 % 91 % 1011,5 hPa 0,0 l/m² 13,4 km/h (3 Bft) W-SW 251 ° 0 min 0 W/m² 6,9 °C 3,8 °C 17,7 km/h (3 Bft)
18.04.2025 22:11 26,0 °C 8,3 °C 45 % 91 % 1011,5 hPa 0,0 l/m² 12,7 km/h (3 Bft) W-NW 286 ° 0 min 0 W/m² 6,9 °C 4,2 °C 16,1 km/h (3 Bft)
18.04.2025 22:12 25,9 °C 8,3 °C 45 % 91 % 1011,6 hPa 0,0 l/m² 7,7 km/h (2 Bft) W 274 ° 0 min 0 W/m² 6,9 °C 7,3 °C 12,9 km/h (3 Bft)
18.04.2025 22:13 25,9 °C 8,3 °C 45 % 91 % 1011,6 hPa 0,0 l/m² 8,1 km/h (2 Bft) W 263 ° 0 min 0 W/m² 6,9 °C 7,0 °C 12,9 km/h (3 Bft)
18.04.2025 22:14 25,9 °C 8,3 °C 45 % 91 % 1011,6 hPa 0,0 l/m² 6,5 km/h (2 Bft) W 275 ° 0 min 0 W/m² 6,9 °C 8,2 °C 9,7 km/h (2 Bft)
18.04.2025 22:15 25,9 °C 8,3 °C 45 % 91 % 1011,7 hPa 0,0 l/m² 5,5 km/h (2 Bft) W 259 ° 0 min 0 W/m² 6,9 °C 8,3 °C 9,7 km/h (2 Bft)
18.04.2025 22:16 25,9 °C 8,3 °C 45 % 91 % 1011,7 hPa 0,0 l/m² 6,6 km/h (2 Bft) W 281 ° 0 min 0 W/m² 6,9 °C 8,2 °C 11,3 km/h (2 Bft)
18.04.2025 22:17 25,8 °C 8,3 °C 45 % 91 % 1011,8 hPa 0,0 l/m² 4,8 km/h (1 Bft) W 271 ° 0 min 0 W/m² 6,9 °C 8,3 °C 9,7 km/h (2 Bft)
18.04.2025 22:18 25,8 °C 8,3 °C 45 % 91 % 1011,7 hPa 0,0 l/m² 4,2 km/h (1 Bft) W 264 ° 0 min 0 W/m² 6,9 °C 8,3 °C 9,7 km/h (2 Bft)
18.04.2025 22:19 25,8 °C 8,3 °C 45 % 91 % 1011,6 hPa 0,0 l/m² 4,2 km/h (1 Bft) W-NW 301 ° 0 min 0 W/m² 6,9 °C 8,3 °C 6,4 km/h (2 Bft)
18.04.2025 22:20 25,8 °C 8,3 °C 45 % 91 % 1011,7 hPa 0,0 l/m² 5,5 km/h (2 Bft) W 269 ° 0 min 0 W/m² 6,9 °C 8,3 °C 11,3 km/h (2 Bft)
18.04.2025 22:21 25,8 °C 8,3 °C 45 % 91 % 1011,7 hPa 0,2 l/m² 4,6 km/h (1 Bft) W 271 ° 0 min 0 W/m² 6,9 °C 8,3 °C 11,3 km/h (2 Bft)
18.04.2025 22:22 25,7 °C 8,3 °C 45 % 91 % 1011,6 hPa 0,0 l/m² 8,8 km/h (2 Bft) NW 306 ° 0 min 0 W/m² 6,9 °C 6,5 °C 12,9 km/h (3 Bft)
18.04.2025 22:23 25,7 °C 8,3 °C 45 % 91 % 1011,7 hPa 0,0 l/m² 4,8 km/h (1 Bft) W 271 ° 0 min 0 W/m² 6,9 °C 8,3 °C 6,4 km/h (2 Bft)
18.04.2025 22:24 25,7 °C 8,3 °C 45 % 91 % 1011,7 hPa 0,0 l/m² 4,3 km/h (1 Bft) W 271 ° 0 min 0 W/m² 6,9 °C 8,3 °C 6,4 km/h (2 Bft)
18.04.2025 22:25 25,7 °C 8,3 °C 45 % 91 % 1011,7 hPa 0,0 l/m² 6,2 km/h (2 Bft) W-NW 288 ° 0 min 0 W/m² 6,9 °C 8,3 °C 11,3 km/h (2 Bft)
18.04.2025 22:26 25,7 °C 8,3 °C 45 % 91 % 1011,7 hPa 0,0 l/m² 7,5 km/h (2 Bft) W 279 ° 0 min 0 W/m² 6,9 °C 7,4 °C 11,3 km/h (2 Bft)
18.04.2025 22:27 25,7 °C 8,3 °C 45 % 91 % 1011,6 hPa 0,0 l/m² 6,5 km/h (2 Bft) W-NW 300 ° 0 min 0 W/m² 6,9 °C 8,2 °C 11,3 km/h (2 Bft)
18.04.2025 22:28 25,7 °C 8,3 °C 45 % 91 % 1011,6 hPa 0,0 l/m² 5,5 km/h (2 Bft) W 276 ° 0 min 0 W/m² 6,9 °C 8,3 °C 9,7 km/h (2 Bft)
18.04.2025 22:29 25,7 °C 8,3 °C 45 % 91 % 1011,7 hPa 0,0 l/m² 6,6 km/h (2 Bft) W 267 ° 0 min 0 W/m² 6,9 °C 8,2 °C 11,3 km/h (2 Bft)
18.04.2025 22:30 25,6 °C 8,2 °C 45 % 91 % 1011,7 hPa 0,0 l/m² 9,2 km/h (2 Bft) W 281 ° 0 min 0 W/m² 6,8 °C 6,1 °C 12,9 km/h (3 Bft)
18.04.2025 22:31 25,6 °C 8,2 °C 45 % 91 % 1011,6 hPa 0,0 l/m² 7,3 km/h (2 Bft) W 272 ° 0 min 0 W/m² 6,8 °C 7,5 °C 12,9 km/h (3 Bft)
18.04.2025 22:32 25,6 °C 8,2 °C 46 % 91 % 1011,6 hPa 0,0 l/m² 9,5 km/h (2 Bft) W-NW 283 ° 0 min 0 W/m² 6,8 °C 5,9 °C 11,3 km/h (2 Bft)
18.04.2025 22:33 25,6 °C 8,2 °C 46 % 91 % 1011,6 hPa 0,0 l/m² 6,2 km/h (2 Bft) W-NW 295 ° 0 min 0 W/m² 6,8 °C 8,2 °C 9,7 km/h (2 Bft)
18.04.2025 22:34 25,6 °C 8,2 °C 46 % 91 % 1011,5 hPa 0,2 l/m² 9,7 km/h (2 Bft) W-NW 282 ° 0 min 0 W/m² 6,8 °C 5,8 °C 12,9 km/h (3 Bft)
18.04.2025 22:35 25,6 °C 8,3 °C 46 % 91 % 1011,6 hPa 0,0 l/m² 11,8 km/h (2 Bft) W 277 ° 0 min 0 W/m² 6,9 °C 4,7 °C 14,5 km/h (3 Bft)
18.04.2025 22:36 25,6 °C 8,2 °C 46 % 91 % 1011,5 hPa 0,0 l/m² 10,7 km/h (2 Bft) W 281 ° 0 min 0 W/m² 6,8 °C 5,2 °C 14,5 km/h (3 Bft)
18.04.2025 22:37 25,6 °C 8,2 °C 46 % 91 % 1011,5 hPa 0,0 l/m² 10,0 km/h (2 Bft) W 263 ° 0 min 0 W/m² 6,8 °C 5,6 °C 12,9 km/h (3 Bft)
18.04.2025 22:38 25,5 °C 8,2 °C 46 % 91 % 1011,5 hPa 0,0 l/m² 9,5 km/h (2 Bft) W 273 ° 0 min 0 W/m² 6,8 °C 5,9 °C 12,9 km/h (3 Bft)
18.04.2025 22:39 25,5 °C 8,2 °C 46 % 91 % 1011,4 hPa 0,0 l/m² 6,4 km/h (2 Bft) W-NW 292 ° 0 min 0 W/m² 6,8 °C 8,2 °C 9,7 km/h (2 Bft)
18.04.2025 22:40 25,4 °C 8,2 °C 46 % 91 % 1011,5 hPa 0,0 l/m² 7,4 km/h (2 Bft) W 269 ° 0 min 0 W/m² 6,8 °C 7,4 °C 11,3 km/h (2 Bft)
18.04.2025 22:41 25,4 °C 8,2 °C 46 % 91 % 1011,5 hPa 0,0 l/m² 7,8 km/h (2 Bft) W-NW 294 ° 0 min 0 W/m² 6,8 °C 7,1 °C 9,7 km/h (2 Bft)
18.04.2025 22:42 25,4 °C 8,2 °C 46 % 91 % 1011,5 hPa 0,0 l/m² 10,7 km/h (2 Bft) W-NW 283 ° 0 min 0 W/m² 6,8 °C 5,2 °C 16,1 km/h (3 Bft)
18.04.2025 22:43 25,4 °C 8,2 °C 46 % 91 % 1011,5 hPa 0,0 l/m² 6,7 km/h (2 Bft) W 278 ° 0 min 0 W/m² 6,8 °C 8,0 °C 11,3 km/h (2 Bft)
18.04.2025 22:44 25,4 °C 8,2 °C 46 % 91 % 1011,5 hPa 0,0 l/m² 4,9 km/h (1 Bft) W-SW 257 ° 0 min 0 W/m² 6,8 °C 8,2 °C 9,7 km/h (2 Bft)
18.04.2025 22:45 25,4 °C 8,2 °C 46 % 91 % 1011,4 hPa 0,2 l/m² 8,4 km/h (2 Bft) W-SW 256 ° 0 min 0 W/m² 6,8 °C 6,7 °C 11,3 km/h (2 Bft)
18.04.2025 22:46 25,3 °C 8,2 °C 46 % 91 % 1011,5 hPa 0,0 l/m² 9,9 km/h (2 Bft) W 273 ° 0 min 0 W/m² 6,8 °C 5,7 °C 14,5 km/h (3 Bft)
18.04.2025 22:47 25,3 °C 8,1 °C 46 % 91 % 1011,5 hPa 0,0 l/m² 6,4 km/h (2 Bft) W-SW 254 ° 0 min 0 W/m² 6,7 °C 8,1 °C 11,3 km/h (2 Bft)
18.04.2025 22:48 25,3 °C 8,1 °C 46 % 91 % 1011,5 hPa 0,0 l/m² 3,7 km/h (1 Bft) W 267 ° 0 min 0 W/m² 6,7 °C 8,1 °C 4,8 km/h (1 Bft)
18.04.2025 22:49 25,3 °C 8,1 °C 46 % 92 % 1011,5 hPa 0,0 l/m² 4,4 km/h (1 Bft) W 261 ° 0 min 0 W/m² 6,9 °C 8,1 °C 9,7 km/h (2 Bft)
18.04.2025 22:50 25,3 °C 8,1 °C 46 % 92 % 1011,4 hPa 0,0 l/m² 9,7 km/h (2 Bft) W-SW 258 ° 0 min 0 W/m² 6,9 °C 5,7 °C 12,9 km/h (3 Bft)
18.04.2025 22:51 25,3 °C 8,2 °C 46 % 92 % 1011,4 hPa 0,2 l/m² 6,5 km/h (2 Bft) W 269 ° 0 min 0 W/m² 7,0 °C 8,1 °C 11,3 km/h (2 Bft)
18.04.2025 22:52 25,3 °C 8,1 °C 46 % 92 % 1011,4 hPa 0,0 l/m² 5,3 km/h (1 Bft) W 271 ° 0 min 0 W/m² 6,9 °C 8,1 °C 9,7 km/h (2 Bft)
18.04.2025 22:53 25,2 °C 8,1 °C 46 % 92 % 1011,4 hPa 0,0 l/m² 6,7 km/h (2 Bft) W 265 ° 0 min 0 W/m² 6,9 °C 7,9 °C 11,3 km/h (2 Bft)
18.04.2025 22:54 25,2 °C 8,1 °C 46 % 92 % 1011,4 hPa 0,0 l/m² 6,2 km/h (2 Bft) W 259 ° 0 min 0 W/m² 6,9 °C 8,1 °C 9,7 km/h (2 Bft)
18.04.2025 22:55 25,2 °C 8,1 °C 46 % 92 % 1011,4 hPa 0,0 l/m² 5,1 km/h (1 Bft) W 266 ° 0 min 0 W/m² 6,9 °C 8,1 °C 9,7 km/h (2 Bft)
18.04.2025 22:56 25,2 °C 8,1 °C 46 % 92 % 1011,4 hPa 0,0 l/m² 5,9 km/h (2 Bft) W-SW 254 ° 0 min 0 W/m² 6,9 °C 8,1 °C 11,3 km/h (2 Bft)
18.04.2025 22:57 25,2 °C 8,1 °C 46 % 92 % 1011,4 hPa 0,0 l/m² 7,9 km/h (2 Bft) W 264 ° 0 min 0 W/m² 6,9 °C 6,9 °C 12,9 km/h (3 Bft)
18.04.2025 22:58 25,2 °C 8,1 °C 46 % 92 % 1011,4 hPa 0,0 l/m² 9,3 km/h (2 Bft) W 259 ° 0 min 0 W/m² 6,9 °C 5,9 °C 12,9 km/h (3 Bft)
18.04.2025 22:59 25,2 °C 8,0 °C 46 % 92 % 1011,4 hPa 0,0 l/m² 6,2 km/h (2 Bft) W 265 ° 0 min 0 W/m² 6,8 °C 8,0 °C 11,3 km/h (2 Bft)
18.04.2025 23:00 25,1 °C 8,1 °C 46 % 92 % 1011,4 hPa 0,2 l/m² 5,0 km/h (1 Bft) W 269 ° 0 min 0 W/m² 6,9 °C 8,1 °C 11,3 km/h (2 Bft)
18.04.2025 23:01 25,1 °C 8,0 °C 46 % 92 % 1011,4 hPa 0,0 l/m² 5,6 km/h (2 Bft) W-SW 252 ° 0 min 0 W/m² 6,8 °C 8,0 °C 9,7 km/h (2 Bft)
18.04.2025 23:02 25,1 °C 8,0 °C 46 % 92 % 1011,4 hPa 0,0 l/m² 4,5 km/h (1 Bft) W 271 ° 0 min 0 W/m² 6,8 °C 8,0 °C 6,4 km/h (2 Bft)
18.04.2025 23:03 25,1 °C 8,0 °C 46 % 92 % 1011,4 hPa 0,0 l/m² 5,4 km/h (2 Bft) W-SW 250 ° 0 min 0 W/m² 6,8 °C 8,0 °C 8,0 km/h (2 Bft)
18.04.2025 23:04 25,1 °C 8,0 °C 46 % 92 % 1011,4 hPa 0,0 l/m² 5,5 km/h (2 Bft) W 261 ° 0 min 0 W/m² 6,8 °C 8,0 °C 6,4 km/h (2 Bft)
18.04.2025 23:05 25,1 °C 8,0 °C 46 % 92 % 1011,4 hPa 0,0 l/m² 5,0 km/h (1 Bft) W-SW 245 ° 0 min 0 W/m² 6,8 °C 8,0 °C 6,4 km/h (2 Bft)
18.04.2025 23:06 25,0 °C 8,0 °C 46 % 92 % 1011,4 hPa 0,0 l/m² 5,0 km/h (1 Bft) W 260 ° 0 min 0 W/m² 6,8 °C 8,0 °C 6,4 km/h (2 Bft)
18.04.2025 23:07 25,0 °C 8,0 °C 46 % 92 % 1011,4 hPa 0,2 l/m² 4,8 km/h (1 Bft) W 260 ° 0 min 0 W/m² 6,8 °C 8,0 °C 9,7 km/h (2 Bft)
18.04.2025 23:08 25,0 °C 7,9 °C 46 % 92 % 1011,4 hPa 0,0 l/m² 5,1 km/h (1 Bft) W-SW 257 ° 0 min 0 W/m² 6,7 °C 7,9 °C 6,4 km/h (2 Bft)
18.04.2025 23:09 25,0 °C 7,9 °C 46 % 92 % 1011,4 hPa 0,0 l/m² 4,8 km/h (1 Bft) W-SW 254 ° 0 min 0 W/m² 6,7 °C 7,9 °C 6,4 km/h (2 Bft)
18.04.2025 23:10 25,0 °C 7,9 °C 46 % 92 % 1011,5 hPa 0,0 l/m² 4,2 km/h (1 Bft) W-SW 257 ° 0 min 0 W/m² 6,7 °C 7,9 °C 6,4 km/h (2 Bft)
18.04.2025 23:11 24,9 °C 7,9 °C 46 % 92 % 1011,4 hPa 0,0 l/m² 3,4 km/h (1 Bft) W-SW 258 ° 0 min 0 W/m² 6,7 °C 7,9 °C 4,8 km/h (1 Bft)
18.04.2025 23:12 24,9 °C 7,9 °C 46 % 92 % 1011,4 hPa 0,2 l/m² 3,5 km/h (1 Bft) W 259 ° 0 min 0 W/m² 6,7 °C 7,9 °C 4,8 km/h (1 Bft)
18.04.2025 23:13 24,9 °C 7,9 °C 46 % 92 % 1011,5 hPa 0,0 l/m² 4,1 km/h (1 Bft) W-SW 255 ° 0 min 0 W/m² 6,7 °C 7,9 °C 6,4 km/h (2 Bft)
18.04.2025 23:14 24,9 °C 7,9 °C 46 % 92 % 1011,4 hPa 0,0 l/m² 1,9 km/h (1 Bft) W-SW 255 ° 0 min 0 W/m² 6,7 °C 7,9 °C 3,2 km/h (1 Bft)
18.04.2025 23:15 24,9 °C 7,9 °C 46 % 92 % 1011,5 hPa 0,0 l/m² 4,1 km/h (1 Bft) W-SW 257 ° 0 min 0 W/m² 6,7 °C 7,9 °C 6,4 km/h (2 Bft)
18.04.2025 23:16 24,9 °C 7,9 °C 46 % 92 % 1011,5 hPa 0,0 l/m² 1,6 km/h (1 Bft) W-SW 247 ° 0 min 0 W/m² 6,7 °C 7,9 °C 4,8 km/h (1 Bft)
18.04.2025 23:17 24,8 °C 7,9 °C 46 % 92 % 1011,4 hPa 0,0 l/m² 4,8 km/h (1 Bft) W 270 ° 0 min 0 W/m² 6,7 °C 7,9 °C 9,7 km/h (2 Bft)
18.04.2025 23:18 24,8 °C 7,9 °C 46 % 92 % 1011,5 hPa 0,0 l/m² 1,6 km/h (1 Bft) W-SW 247 ° 0 min 0 W/m² 6,7 °C 7,9 °C 4,8 km/h (1 Bft)
18.04.2025 23:19 24,8 °C 7,9 °C 46 % 92 % 1011,6 hPa 0,2 l/m² 1,6 km/h (1 Bft) W-SW 247 ° 0 min 0 W/m² 6,7 °C 7,9 °C 3,2 km/h (1 Bft)
18.04.2025 23:20 24,8 °C 7,9 °C 46 % 92 % 1011,6 hPa 0,0 l/m² 1,6 km/h (1 Bft) W 270 ° 0 min 0 W/m² 6,7 °C 7,9 °C 4,8 km/h (1 Bft)
18.04.2025 23:26 24,7 °C 7,9 °C 46 % 92 % 1011,7 hPa 0,2 l/m² 3,3 km/h (1 Bft) W-SW 257 ° 0 min 0 W/m² 6,7 °C 7,9 °C 4,8 km/h (1 Bft)
18.04.2025 23:28 24,7 °C 7,9 °C 47 % 92 % 1011,6 hPa 0,0 l/m² 2,7 km/h (1 Bft) W-SW 256 ° 0 min 0 W/m² 6,7 °C 7,9 °C 3,2 km/h (1 Bft)
18.04.2025 23:30 24,7 °C 7,9 °C 47 % 92 % 1011,7 hPa 0,0 l/m² 2,5 km/h (1 Bft) W-SW 256 ° 0 min 0 W/m² 6,7 °C 7,9 °C 3,2 km/h (1 Bft)
18.04.2025 23:31 24,7 °C 7,9 °C 47 % 92 % 1011,7 hPa 0,0 l/m² 2,6 km/h (1 Bft) W-SW 255 ° 0 min 0 W/m² 6,7 °C 7,9 °C 3,2 km/h (1 Bft)
18.04.2025 23:32 24,7 °C 7,9 °C 47 % 92 % 1011,7 hPa 0,0 l/m² 2,0 km/h (1 Bft) W-SW 239 ° 0 min 0 W/m² 6,7 °C 7,9 °C 3,2 km/h (1 Bft)
18.04.2025 23:35 24,7 °C 7,8 °C 47 % 93 % 1011,8 hPa 0,2 l/m² 1,1 km/h (1 Bft) W-SW 239 ° 0 min 0 W/m² 6,7 °C 7,8 °C 3,2 km/h (1 Bft)
18.04.2025 23:37 24,7 °C 7,8 °C 47 % 93 % 1011,8 hPa 0,0 l/m² 1,7 km/h (1 Bft) W-SW 238 ° 0 min 0 W/m² 6,7 °C 7,8 °C 3,2 km/h (1 Bft)
18.04.2025 23:39 24,6 °C 7,8 °C 47 % 93 % 1011,9 hPa 0,0 l/m² 1,7 km/h (1 Bft) W-SW 239 ° 0 min 0 W/m² 6,7 °C 7,8 °C 3,2 km/h (1 Bft)
18.04.2025 23:40 24,6 °C 7,8 °C 47 % 93 % 1011,9 hPa 0,0 l/m² 3,6 km/h (1 Bft) W-SW 239 ° 0 min 0 W/m² 6,7 °C 7,8 °C 4,8 km/h (1 Bft)
18.04.2025 23:41 24,6 °C 7,8 °C 47 % 93 % 1011,9 hPa 0,0 l/m² 2,5 km/h (1 Bft) W-SW 238 ° 0 min 0 W/m² 6,7 °C 7,8 °C 4,8 km/h (1 Bft)
18.04.2025 23:42 24,6 °C 7,8 °C 47 % 93 % 1011,9 hPa 0,2 l/m² 3,0 km/h (1 Bft) W-SW 238 ° 0 min 0 W/m² 6,7 °C 7,8 °C 4,8 km/h (1 Bft)
18.04.2025 23:45 24,6 °C 7,8 °C 47 % 93 % 1011,9 hPa 0,0 l/m² 2,4 km/h (1 Bft) W-SW 239 ° 0 min 0 W/m² 6,7 °C 7,8 °C 4,8 km/h (1 Bft)
18.04.2025 23:47 24,6 °C 7,8 °C 47 % 93 % 1011,9 hPa 0,0 l/m² 3,5 km/h (1 Bft) W-SW 240 ° 0 min 0 W/m² 6,7 °C 7,8 °C 4,8 km/h (1 Bft)
18.04.2025 23:49 24,5 °C 7,8 °C 47 % 93 % 1011,8 hPa 0,2 l/m² 2,8 km/h (1 Bft) W-SW 243 ° 0 min 0 W/m² 6,7 °C 7,8 °C 4,8 km/h (1 Bft)
18.04.2025 23:50 24,5 °C 7,8 °C 47 % 93 % 1011,8 hPa 0,0 l/m² 1,8 km/h (1 Bft) W-SW 244 ° 0 min 0 W/m² 6,7 °C 7,8 °C 3,2 km/h (1 Bft)
18.04.2025 23:51 24,4 °C 7,8 °C 47 % 93 % 1012,0 hPa 0,0 l/m² 1,3 km/h (1 Bft) W-SW 244 ° 0 min 0 W/m² 6,7 °C 7,8 °C 3,2 km/h (1 Bft)
18.04.2025 23:52 24,4 °C 7,8 °C 47 % 93 % 1012,0 hPa 0,0 l/m² 2,5 km/h (1 Bft) W-SW 244 ° 0 min 0 W/m² 6,7 °C 7,8 °C 3,2 km/h (1 Bft)
18.04.2025 23:54 24,4 °C 7,8 °C 47 % 93 % 1012,0 hPa 0,0 l/m² 0,9 km/h (0 Bft) W-SW 244 ° 0 min 0 W/m² 6,7 °C 7,8 °C 3,2 km/h (1 Bft)
18.04.2025 23:56 24,4 °C 7,8 °C 47 % 93 % 1011,9 hPa 0,2 l/m² 0,4 km/h (0 Bft) W-SW 244 ° 0 min 0 W/m² 6,7 °C 7,8 °C 1,6 km/h (1 Bft)
18.04.2025 23:58 24,4 °C 7,8 °C 47 % 93 % 1011,9 hPa 0,0 l/m² 0,4 km/h (0 Bft) W-SW 244 ° 0 min 0 W/m² 6,7 °C 7,8 °C 1,6 km/h (1 Bft)
_ Min-Zeit 07:09 23:58 18:34 12:56 02:15 - 06:58 - - - - 23:32 22:04 06:58
Minimum _ 21,4 °C 7,8 °C 33 % 81 % 1008,2 hPa - 0,0 km/h (0 Bft) - - - - 6,7 °C 3,0 °C 0,0 km/h (0 Bft)
_ Max-Zeit 19:13 13:39 12:58 07:37 14:39 23:56 10:12 - - 10:15 17:40 00:03 13:39 19:41
Maximum _ 30,7 °C 11,3 °C 59 % 94 % 1012,1 hPa 0,2 l/m² 18,5 km/h
W-NW (3 Bft)
- - 3 min 148 W/m² 9,3 °C 11,3 °C 25,7 km/h
W (4 Bft)
Durchschnitt _ 23,4 °C 9,8 °C 50 % 90 % 1010,5 hPa #4,8 l/m² 7,7 km/h (2 Bft) W - #7:17 h 30 W/m² 8,1 °C 8,3 °C 11,7 km/h (2 Bft)
© 2009 Mathias Hoßbach